GFSNW_500_spd_000.txt.gz
Wind_Speed
52 47 43 41 39 32 43 46 46 43 39 38 35 33 30 23 19 16 10 7 8 11 11 12 14 15 15 14 16 16 15 17 15 14 13 10 8 7 7 7 8 8 8 6
53 49 45 43 40 36 45 49 49 45 41 39 37 36 33 23 18 13 6 5 6 9 10 13 15 16 16 17 18 18 17 18 19 16 14 12 9 7 8 9 10 10 12 14
52 48 46 45 40 42 48 54 52 48 43 40 39 37 32 25 20 13 7 5 5 9 12 15 16 16 18 19 19 18 19 18 17 15 16 16 13 12 14 15 16 16 18 19
49 47 45 45 41 45 50 56 52 47 43 42 41 38 32 26 20 14 8 4 4 6 9 13 16 17 19 20 19 19 20 19 19 18 18 18 18 18 19 20 21 21 22 22
46 44 43 45 41 47 52 57 51 47 43 41 41 39 34 27 21 15 8 5 6 5 7 10 14 17 20 21 20 21 22 21 22 21 21 21 22 22 23 24 26 27 27 27
45 42 44 44 42 49 53 58 53 47 45 44 44 39 32 27 23 18 13 9 9 8 7 9 13 17 20 22 23 24 24 25 25 27 26 28 27 23 28 29 30 32 32 33
43 42 43 43 41 50 53 57 54 49 47 46 42 38 34 32 28 22 18 14 12 12 11 11 14 16 19 22 23 24 25 28 31 32 31 35 27 29 32 35 36 34 36 39
41 39 41 41 41 52 55 56 55 51 48 45 44 40 35 33 29 25 21 19 18 16 15 14 15 17 18 19 22 25 28 30 33 36 37 39 37 34 37 40 40 37 42 44
38 39 38 38 42 52 57 56 54 52 48 45 43 41 36 35 32 28 25 25 22 21 19 18 17 17 19 22 23 23 26 30 34 37 40 43 41 40 42 45 46 43 46 46
36 35 35 37 42 52 57 54 52 51 49 47 45 42 36 36 34 32 30 29 27 25 24 23 22 21 20 21 23 26 29 31 35 38 42 46 44 45 45 48 48 51 49 48
33 34 34 36 42 50 55 51 52 50 48 47 45 42 39 38 36 35 34 33 31 30 29 29 28 28 26 25 25 26 30 34 36 39 43 46 44 47 48 49 50 50 50 50
31 32 29 34 40 43 46 50 51 50 48 47 45 42 40 39 39 38 38 36 33 34 34 34 33 33 31 31 33 33 35 35 39 41 42 45 48 49 50 49 49 48 50 50
31 38 29 35 37 35 34 43 50 50 48 46 44 42 42 40 40 40 38 38 37 38 39 38 37 38 38 39 40 40 39 41 42 42 41 44 47 49 47 48 48 48 48 48
30 33 30 35 40 50 42 37 41 45 46 45 44 43 42 41 41 40 39 39 40 41 41 41 42 43 44 44 44 45 42 39 40 43 42 44 43 42 45 46 45 46 46 48
26 27 26 28 35 41 43 44 42 40 41 42 41 41 41 40 40 40 40 41 42 41 42 42 42 43 43 43 43 41 35 35 40 42 41 41 41 42 42 43 42 46 49 51
33 29 27 26 28 32 35 36 37 37 38 38 38 38 38 38 38 40 40 40 39 39 38 37 38 35 37 41 39 33 32 38 40 40 40 40 40 41 42 44 48 51 54 56
34 31 28 25 25 25 28 29 28 28 29 31 33 34 34 34 33 32 31 31 30 32 32 31 31 30 35 38 40 29 34 38 39 40 43 43 44 48 50 52 54 56 54 54
27 28 28 28 27 24 23 24 25 26 27 27 28 28 26 27 27 28 28 28 29 30 31 33 34 38 40 42 36 36 38 40 41 44 46 49 50 52 54 56 54 50 51 52
29 27 25 25 25 24 24 24 25 26 27 28 28 28 27 28 28 29 29 31 33 35 36 36 37 38 39 38 39 40 41 43 45 48 50 53 53 52 50 48 49 53 53 50
29 28 28 26 26 25 26 27 28 29 30 31 31 31 31 30 30 31 32 34 36 39 38 40 42 42 43 43 43 44 45 47 48 48 50 50 49 48 49 51 53 54 53 54
35 34 33 32 32 33 34 36 36 35 36 36 35 31 30 30 32 33 36 40 42 44 44 43 43 41 39 40 40 41 43 45 47 49 49 51 53 55 56 57 58 56 55 53
40 39 38 38 37 37 40 41 39 38 36 36 34 31 31 33 35 38 40 40 42 44 42 42 42 41 39 40 43 45 46 48 48 50 53 53 54 55 55 55 55 55 54 52
43 40 36 36 39 42 44 43 41 40 37 35 33 32 33 36 37 35 34 36 38 38 41 43 44 42 43 44 44 45 46 47 50 52 53 57 56 56 55 53 51 50 50 55
33 33 34 35 37 37 36 34 33 34 34 35 36 35 35 33 35 35 35 38 40 43 44 42 43 47 48 49 51 52 55 57 58 58 56 56 53 53 53 48 50 53 55 60
27 30 33 34 34 35 35 35 34 34 35 35 36 36 35 34 36 38 41 42 42 46 48 50 50 53 54 54 55 56 54 52 50 51 52 54 54 53 50 50 52 53 54 55
28 29 31 33 34 35 36 37 36 37 38 39 40 41 43 43 44 46 47 48 50 50 49 49 49 49 50 52 50 50 52 53 53 52 51 52 52 52 53 54 57 59 58 56
31 32 33 35 37 39 40 40 41 41 42 45 47 47 46 48 49 49 48 48 47 47 47 47 49 50 47 47 48 49 51 50 48 50 51 52 54 56 56 56 56 56 58 59

GFSNW_500_spd_003.txt.gz
Wind_Speed
76 70 60 54 49 45 41 41 42 44 44 40 35 31 28 25 22 19 15 12 12 14 16 17 18 18 17 16 16 17 17 17 17 16 15 12 10 9 8 7 8 9 8 6
77 69 63 57 51 45 42 44 47 48 47 41 36 33 31 26 24 20 13 9 9 10 10 14 15 16 16 15 15 16 16 17 18 16 15 13 12 11 10 9 10 10 11 14
75 68 63 57 53 49 45 48 51 52 49 42 39 36 34 28 23 19 12 5 3 6 8 12 14 16 17 16 17 18 18 16 17 17 17 18 16 16 14 13 13 15 15 18
74 66 61 57 53 52 47 52 55 52 47 43 41 39 37 31 22 17 10 3 1 3 6 10 13 16 16 17 18 18 18 17 18 21 22 21 20 20 19 18 20 21 21 22
70 64 59 55 55 54 48 54 56 54 49 44 42 42 40 35 26 19 12 5 2 3 4 7 11 14 15 17 19 19 19 19 22 23 23 24 24 22 22 24 25 27 29 27
65 59 56 54 55 53 49 55 55 55 50 47 45 42 38 33 27 20 15 8 4 4 5 4 6 10 12 16 19 21 21 21 23 25 26 28 30 22 27 29 31 33 33 34
58 56 52 52 54 48 50 54 56 55 51 48 44 42 38 33 27 22 18 12 8 7 6 6 5 7 10 14 17 19 20 22 25 28 29 34 28 28 32 35 37 39 40 41
53 50 48 49 47 46 51 52 55 56 52 48 45 43 39 35 30 25 21 16 14 11 9 10 9 7 9 12 14 17 20 24 27 30 32 34 35 35 38 41 43 45 46 48
48 46 45 43 43 46 51 51 55 56 52 48 45 41 39 35 31 28 24 20 18 16 15 14 14 13 10 11 13 17 21 24 27 29 33 35 36 39 41 44 47 47 50 50
45 43 40 42 44 45 49 48 54 56 51 48 45 42 38 33 32 29 27 24 22 20 19 19 18 18 17 17 16 17 20 23 26 29 33 35 37 39 41 43 47 48 49 51
39 39 41 42 42 42 47 49 51 53 51 48 45 42 38 34 32 29 28 28 26 25 24 23 24 23 23 22 21 22 24 26 28 31 35 39 40 42 44 46 48 50 50 50
39 40 39 39 38 40 43 45 48 52 50 47 43 40 38 36 36 33 32 32 30 29 28 28 29 28 28 28 30 30 30 32 35 36 37 40 43 45 46 46 47 47 46 47
36 36 36 36 36 36 38 43 44 42 47 47 44 41 39 36 36 36 33 32 29 31 31 31 32 34 33 35 36 37 37 39 40 39 38 40 43 43 43 43 43 43 44 45
33 32 33 32 32 33 37 41 44 40 41 44 43 41 40 39 38 36 33 33 33 34 35 34 35 36 38 39 41 42 40 37 36 38 37 39 38 37 39 40 41 42 43 44
31 31 30 27 31 33 30 35 37 45 43 42 39 39 39 39 38 37 37 36 37 37 36 37 38 39 40 41 43 39 31 33 38 38 36 37 36 38 39 39 40 42 44 46
26 30 32 30 33 38 41 29 32 42 42 39 40 40 39 38 38 38 37 37 37 37 38 39 40 38 39 42 39 29 29 34 35 37 38 39 40 42 43 44 46 48 49 51
27 29 28 30 43 38 38 39 36 35 37 34 34 34 33 33 34 36 36 36 36 37 37 36 35 33 35 35 34 30 32 35 37 40 41 42 44 45 46 48 49 52 53 52
32 30 27 27 33 35 32 31 31 32 33 33 34 35 35 34 33 31 32 31 31 31 31 30 30 33 34 37 36 35 35 37 39 42 44 45 47 48 50 52 52 51 51 52
29 30 31 28 26 26 27 28 29 30 30 30 29 27 25 27 25 24 25 27 29 31 32 33 36 37 39 38 37 37 40 41 43 44 45 47 48 48 49 52 53 54 55 56
28 28 27 26 27 26 25 25 25 24 24 24 24 22 23 23 22 24 28 31 33 37 37 38 40 42 42 41 41 41 41 42 43 44 44 47 49 51 52 53 54 55 56 57
25 23 23 23 23 22 22 23 24 24 25 25 24 22 22 23 27 29 32 36 38 40 40 42 44 45 41 40 40 40 39 40 41 44 48 50 52 53 53 54 55 56 58 58
31 28 25 23 24 23 27 29 28 29 29 28 26 25 28 30 31 35 38 40 41 42 41 41 41 38 36 36 37 39 41 43 45 47 48 50 51 53 54 55 55 55 55 56
28 28 28 29 31 34 36 34 31 31 31 28 28 31 34 36 37 38 36 37 39 39 40 40 37 36 40 42 43 44 47 50 51 53 54 55 56 58 57 56 55 52 51 48
33 34 37 39 41 40 38 35 34 34 35 35 34 34 34 34 35 36 37 38 38 40 40 39 40 43 45 48 51 53 55 58 58 59 57 58 58 56 54 53 55 54 54 54
34 37 39 37 42 41 35 33 31 29 29 30 32 33 34 34 34 35 36 37 39 41 42 44 48 49 51 53 55 57 58 58 58 58 58 58 58 57 57 54 54 55 54 53
29 29 30 28 27 30 30 30 30 31 33 34 34 33 34 34 36 38 39 41 43 44 47 50 52 53 55 56 56 55 55 56 57 56 54 55 52 53 55 56 57 57 54 56
30 30 29 29 29 29 31 31 32 33 34 35 36 37 38 40 42 43 43 44 46 47 49 49 48 49 48 50 51 52 52 52 54 56 57 60 63 61 54 52 52 52 51 49

GFSNW_500_spd_009.txt.gz
Wind_Speed
88 83 75 67 60 70 67 59 55 49 48 43 36 31 33 30 30 27 25 24 23 20 19 18 18 18 18 18 17 18 19 19 21 18 20 19 19 18 18 18 18 15 13 12
91 90 85 78 67 65 69 64 58 54 52 45 38 36 38 38 34 30 27 25 22 20 18 18 18 20 18 19 19 21 19 21 21 21 19 18 17 17 18 19 17 15 16 13
88 91 89 85 75 71 72 65 60 57 54 47 41 43 43 41 37 33 30 26 22 19 19 20 21 23 23 23 24 24 24 24 23 20 15 19 18 18 19 19 18 17 16 17
90 92 91 89 81 78 74 70 62 53 56 52 46 44 43 42 38 35 31 25 20 18 19 21 22 21 21 22 23 24 23 21 21 20 20 20 20 19 21 22 19 22 18 24
97 96 93 89 88 83 77 72 65 60 53 54 48 51 49 45 39 36 29 23 18 17 17 18 17 19 19 19 19 20 21 21 19 19 20 21 22 22 22 23 23 26 26 30
103 98 92 88 86 83 77 70 65 65 57 56 53 54 52 47 43 38 33 25 18 15 12 14 15 16 16 17 19 20 20 20 20 20 19 22 22 19 23 24 25 28 31 31
101 97 92 88 87 85 75 71 69 67 56 59 56 55 51 47 44 39 33 26 20 14 10 8 9 12 14 15 16 18 19 20 21 19 20 23 19 19 23 27 27 31 35 37
97 91 93 87 86 80 75 70 68 57 57 59 58 55 53 48 46 44 37 29 22 15 10 7 5 4 9 11 13 13 15 17 19 20 22 23 22 22 24 27 28 36 37 40
79 85 90 86 80 77 67 71 68 66 59 59 56 58 53 52 48 42 38 32 25 19 14 9 5 3 4 4 6 9 12 15 17 18 21 22 22 23 25 27 31 34 36 39
78 80 83 78 79 75 64 68 67 64 56 57 58 57 55 53 50 44 38 32 28 23 18 13 8 6 5 4 4 5 7 10 13 15 18 19 21 24 27 30 35 37 41 43
81 72 75 80 76 69 65 64 66 58 57 58 58 59 55 54 52 45 38 35 33 28 22 18 14 10 10 9 9 11 12 14 16 19 22 26 27 30 32 35 38 42 44 47
73 71 71 70 67 61 61 57 58 53 57 56 57 59 55 55 51 44 41 37 33 31 29 24 20 18 15 16 17 17 19 21 23 24 28 31 33 35 38 40 43 45 46 44
69 71 67 62 58 54 54 50 52 53 59 54 57 58 55 52 51 47 43 40 35 33 31 29 26 23 22 22 23 23 25 27 28 29 32 35 38 40 42 44 44 43 43 43
62 60 56 53 51 49 45 45 48 50 51 54 55 54 52 50 49 47 46 40 37 36 36 33 30 28 28 27 29 29 30 32 33 34 35 40 40 42 43 43 43 41 42 44
53 50 48 46 45 46 40 41 44 45 48 48 47 49 49 47 46 45 44 41 40 39 37 34 33 32 32 33 34 34 35 36 36 38 40 40 42 42 40 40 42 44 45 46
46 45 43 43 43 44 42 35 37 39 42 42 46 47 46 46 45 43 41 39 38 38 36 36 36 35 37 37 38 39 38 39 40 40 40 39 39 41 42 44 44 45 47 49
43 43 42 41 39 37 35 31 33 35 36 40 39 41 44 42 40 39 38 37 37 37 38 38 38 40 40 41 42 42 39 38 39 37 37 41 41 45 46 46 48 49 49 49
40 39 39 38 36 33 31 33 35 34 34 34 38 41 41 41 40 40 38 38 38 39 40 39 40 41 42 45 43 40 37 36 37 38 41 43 45 47 48 49 49 48 47 47
36 35 35 36 37 34 44 43 36 33 37 38 33 37 39 40 40 38 38 40 41 41 40 41 41 41 43 40 39 37 37 39 42 43 44 45 47 48 47 46 45 45 47 49
36 37 37 36 38 40 42 32 47 46 26 31 32 32 32 33 35 37 39 40 40 41 42 42 44 45 42 36 35 38 40 43 45 46 47 45 44 42 41 43 46 48 52 55
35 34 35 37 37 34 43 32 39 45 44 40 36 36 35 35 36 36 39 41 43 44 45 46 46 44 35 35 36 39 43 46 45 43 41 40 40 43 44 47 51 54 57 59
37 34 37 38 36 35 44 47 43 40 39 37 37 34 32 32 34 38 40 42 41 44 42 41 42 39 36 37 38 40 43 43 41 40 41 43 44 47 51 54 56 57 58 59
25 29 33 34 33 33 35 41 38 33 28 27 26 26 28 29 30 31 32 35 37 38 41 41 40 37 38 40 42 42 41 40 40 41 43 46 50 53 55 56 56 56 53 52
28 24 32 32 27 24 27 29 23 20 21 23 23 24 25 26 29 32 34 38 39 42 42 42 40 38 38 39 40 39 41 42 44 46 49 52 54 55 54 52 49 50 54 57
25 29 33 30 29 24 23 21 21 21 21 23 25 27 29 30 34 36 38 41 43 42 40 36 36 37 38 38 42 45 46 47 49 54 55 54 54 51 48 50 53 56 59 61
28 28 31 27 27 31 29 28 27 27 29 31 33 34 35 36 37 39 40 40 40 37 37 37 37 38 42 46 45 47 49 52 56 55 55 52 50 50 53 55 59 61 63 64
24 27 28 30 29 29 30 34 35 35 35 36 37 36 34 36 36 36 36 37 35 35 37 40 45 45 43 44 48 53 57 57 56 52 50 51 53 55 58 62 63 64 64 63

GFSNW_500_spd_012.txt.gz
Wind_Speed
94 88 81 75 67 60 54 52 54 57 56 53 48 42 31 30 31 27 23 25 19 24 17 19 20 25 16 20 22 21 25 25 25 14 19 13 18 15 16 22 19 22 16 13
96 91 86 80 71 65 57 52 59 55 58 55 50 40 35 36 33 31 28 25 26 27 26 24 24 22 21 20 21 22 24 20 20 16 16 13 15 17 18 20 16 16 17 12
99 92 89 85 77 69 62 61 64 56 55 54 50 43 39 40 34 34 31 27 27 27 26 24 23 25 24 19 22 20 21 19 21 20 14 15 17 18 18 18 18 16 18 16
98 94 91 89 82 76 73 66 63 61 56 55 53 45 43 43 40 41 36 31 30 26 24 22 23 24 23 24 24 25 26 24 24 24 17 23 25 17 18 21 19 21 17 19
97 94 92 89 85 86 82 66 62 61 57 53 50 47 46 43 42 40 35 34 29 26 24 24 24 26 21 21 22 23 23 25 25 22 22 22 23 22 21 21 21 21 21 25
100 96 92 92 90 90 82 70 66 63 64 55 53 49 47 47 43 40 34 31 29 26 28 24 24 19 15 24 21 22 22 22 23 22 22 22 22 16 21 22 22 23 26 27
97 106 99 95 95 90 76 73 70 58 61 55 53 52 50 48 47 37 39 37 25 30 20 19 19 20 22 22 22 23 21 23 23 23 23 24 17 17 19 21 22 26 29 32
92 105 105 98 89 87 83 76 65 61 61 56 56 52 51 48 44 40 41 41 34 24 20 17 15 16 19 20 20 22 22 24 23 23 23 20 19 18 18 21 25 29 30 33
87 101 104 94 90 89 81 74 58 61 61 62 52 59 54 55 47 52 46 41 32 27 21 16 13 12 12 12 14 16 17 18 20 19 21 21 22 20 21 24 27 26 28 32
85 98 98 93 94 85 79 69 48 59 44 58 55 60 56 55 58 52 46 43 36 29 24 19 15 11 9 8 8 9 11 13 15 16 17 16 18 16 21 24 27 30 33 36
93 100 93 92 89 84 81 67 48 54 58 48 53 56 53 59 58 48 47 45 40 34 28 23 18 14 12 8 9 9 9 10 11 13 15 18 20 22 25 28 31 34 37 40
101 87 86 87 80 79 72 77 53 36 43 56 56 55 58 61 54 50 49 44 39 34 31 29 22 19 17 13 13 13 15 14 16 17 22 23 25 26 29 31 34 38 41 43
103 75 84 78 75 67 62 71 62 20 41 52 57 56 55 58 56 53 52 48 43 40 38 31 30 25 23 20 20 21 20 21 22 23 26 30 32 31 34 38 38 41 42 43
62 66 75 74 72 76 45 58 71 72 53 45 48 54 55 56 55 51 50 47 42 35 37 37 35 31 29 26 28 27 28 27 29 29 31 35 38 40 40 40 42 43 43 43
60 68 68 67 69 70 51 41 51 59 55 54 52 52 52 54 54 52 53 52 46 43 41 41 38 34 31 31 32 33 33 34 34 35 38 37 42 43 43 44 45 43 42 45
60 67 66 63 65 59 57 54 38 47 50 49 49 50 50 50 52 51 49 48 48 47 45 44 40 37 36 36 36 37 37 37 39 41 42 44 46 45 44 45 44 45 46 47
57 61 63 60 57 51 45 36 31 39 45 40 42 45 47 47 50 48 48 47 45 48 46 45 42 41 41 39 40 41 40 42 42 44 44 48 46 47 47 45 46 48 49 49
53 50 48 47 45 41 38 30 27 33 34 36 37 41 44 45 47 48 45 42 43 45 43 43 43 43 42 43 43 44 43 45 44 43 43 46 48 47 47 48 49 50 50 47
46 46 46 45 42 39 35 29 26 28 31 29 33 35 37 41 42 43 43 42 41 41 41 43 43 43 45 45 44 45 44 43 45 45 46 46 46 47 48 50 49 46 43 44
42 41 40 39 39 36 34 32 32 31 30 32 34 30 35 37 40 41 40 40 42 43 41 43 45 45 45 45 45 43 43 44 46 47 48 48 48 48 47 46 44 44 47 49
40 38 39 36 37 37 36 35 33 30 36 29 35 34 33 36 36 38 39 39 41 44 45 46 47 47 44 44 43 42 43 44 47 49 50 50 50 49 47 45 46 48 51 54
35 32 34 35 37 31 36 43 36 24 28 33 43 40 33 33 32 35 37 41 44 46 45 45 46 44 43 43 39 40 43 45 47 49 50 50 49 47 45 46 49 52 57 60
30 33 31 31 32 34 45 40 36 40 38 33 29 28 28 28 30 33 37 41 43 44 45 47 49 43 40 39 41 43 45 47 49 49 46 44 44 45 47 50 53 58 60 61
29 32 32 35 36 35 39 40 37 32 36 35 34 34 34 35 35 36 36 39 41 43 44 43 39 39 42 43 45 46 46 46 45 44 44 47 48 50 53 56 58 61 59 55
22 23 29 33 33 33 27 26 30 38 31 29 34 35 34 31 33 33 34 36 37 38 39 39 41 42 43 43 43 44 43 43 44 47 50 50 52 55 58 59 59 55 55 58
12 20 21 24 28 25 22 22 21 23 24 23 24 23 25 28 30 32 34 37 40 41 40 42 42 41 40 40 39 39 45 47 51 51 53 56 59 59 59 57 56 58 61 63
21 21 21 24 28 30 29 27 25 25 26 29 28 27 30 35 38 40 42 42 40 41 41 39 39 38 41 42 43 46 51 53 53 56 60 61 59 57 57 58 61 63 66 69

GFSNW_500_spd_018.txt.gz
Wind_Speed
87 85 83 81 75 73 69 67 65 62 64 61 51 50 45 39 33 35 34 36 31 26 19 22 19 15 16 19 26 27 25 24 20 13 18 21 25 19 19 22 23 25 23 16
83 90 85 83 79 78 74 69 67 67 66 64 52 48 45 39 41 41 38 38 31 28 24 24 24 19 19 22 23 23 22 22 25 21 23 20 20 12 18 24 24 23 21 15
76 83 90 87 83 81 80 77 74 69 70 60 55 52 46 41 42 42 41 40 34 31 27 27 26 23 24 26 25 23 21 24 22 17 16 21 22 18 22 25 23 21 15 15
46 82 83 92 89 86 85 85 79 69 65 65 58 56 50 49 51 46 44 42 36 32 30 32 34 30 26 26 27 24 24 24 22 20 21 22 25 23 24 26 21 25 15 20
49 49 90 95 94 93 92 87 79 69 58 56 56 57 52 54 47 48 47 41 34 33 35 30 31 28 29 27 27 26 26 29 24 24 24 25 28 29 24 23 22 24 18 18
42 47 58 95 100 102 96 85 76 69 60 57 58 56 53 50 48 49 46 39 36 38 37 37 34 26 23 25 29 31 30 28 27 29 28 30 35 27 26 26 28 25 24 23
45 46 49 63 96 104 95 88 79 71 65 58 52 52 51 46 50 50 47 41 36 39 43 38 35 35 31 29 28 27 28 28 30 31 32 34 27 25 29 26 26 25 25 25
44 46 45 54 80 104 99 91 82 74 69 55 52 53 51 44 49 51 46 42 35 41 43 40 39 39 35 33 29 29 28 26 28 30 30 30 24 24 26 25 25 24 24 24
47 48 46 50 70 100 98 90 83 75 69 60 53 56 47 50 55 53 50 46 43 45 47 44 42 41 37 32 28 28 27 26 26 28 26 26 21 24 23 25 27 23 23 24
50 50 46 46 67 94 96 91 86 73 68 66 59 58 48 52 56 52 48 47 48 49 50 45 41 39 33 31 27 23 25 27 27 24 23 22 19 22 23 25 22 23 24 26
45 42 41 46 70 92 97 89 84 70 64 69 65 56 54 54 55 53 50 49 50 50 49 45 40 35 31 29 22 22 19 18 17 18 18 16 16 17 20 19 20 20 21 25
35 38 40 51 74 92 94 87 83 79 64 50 51 57 52 53 51 54 52 48 45 42 48 45 39 36 32 26 22 21 16 14 13 13 11 13 14 13 14 15 17 21 25 28
36 42 48 62 82 94 91 80 80 75 53 44 37 35 54 55 53 50 50 46 43 48 56 43 35 30 31 28 25 24 18 16 15 14 13 15 15 16 18 21 24 28 31 34
39 56 59 66 88 90 86 78 76 68 49 44 38 36 47 53 55 53 51 47 43 47 44 44 43 37 35 32 30 27 23 22 19 19 19 22 24 26 27 29 31 33 36 38
46 42 57 81 92 88 78 67 69 69 51 45 37 36 45 51 53 46 47 45 48 45 36 45 47 43 38 36 35 32 29 28 26 25 27 29 30 32 35 37 39 41 43 45
46 59 77 89 89 86 75 66 57 63 55 42 35 43 42 50 50 49 51 41 44 45 52 43 41 43 44 43 41 36 35 34 33 31 32 33 34 36 38 41 43 44 46 47
68 82 91 89 84 54 52 56 47 45 45 37 33 44 48 48 47 46 48 42 38 49 50 46 45 46 48 48 45 41 40 39 38 37 37 38 39 41 43 45 46 47 48 49
84 93 88 83 68 62 52 39 31 38 44 36 50 43 52 53 57 56 46 40 43 39 38 42 46 46 48 50 49 46 45 43 42 43 44 45 45 46 47 48 49 49 50 51
83 81 82 77 68 57 47 30 38 26 32 43 48 51 45 47 45 41 43 37 38 42 44 44 45 44 47 49 49 48 47 47 48 48 48 47 47 48 48 50 52 52 53 54
82 77 71 66 57 33 35 31 28 29 26 27 37 52 52 36 37 37 42 37 36 37 40 42 45 49 47 47 47 48 47 46 47 48 48 48 49 48 52 54 53 54 54 54
64 64 71 56 33 26 27 33 32 15 13 17 23 33 40 36 32 29 30 32 35 38 40 40 42 45 45 44 45 45 45 46 46 45 46 46 47 52 55 53 53 53 54 55
61 54 56 37 34 24 26 29 34 21 12 13 16 21 28 30 31 32 32 35 37 38 39 40 42 40 40 40 41 41 45 48 45 47 52 54 55 52 50 51 53 55 56 55
51 51 47 25 28 19 18 20 16 15 10 9 14 21 24 25 24 26 28 32 33 34 35 38 37 36 37 40 43 44 45 47 49 51 51 47 46 49 52 54 56 55 53 53
31 29 27 27 24 24 24 22 22 19 16 16 17 24 19 21 24 27 29 27 28 31 34 34 32 34 37 41 42 46 47 46 43 41 44 47 50 54 56 55 54 53 54 56
30 28 27 29 28 31 30 23 20 20 18 14 13 16 26 29 24 18 24 24 27 30 30 29 35 38 39 36 36 37 34 36 41 45 49 51 54 53 52 54 55 56 58 62
26 30 27 24 24 25 21 21 19 19 17 14 23 19 22 23 30 34 32 31 31 27 29 30 31 31 29 28 32 35 39 43 48 50 51 52 52 53 55 56 58 60 63 63
20 20 20 20 19 22 23 21 16 14 11 15 28 27 24 23 25 28 29 29 30 29 27 28 30 33 35 38 42 45 49 53 53 52 52 53 55 57 59 60 61 61 60 59

GFSNW_500_spd_021.txt.gz
Wind_Speed
81 89 86 87 85 81 78 74 72 65 65 65 55 49 48 47 39 41 40 40 36 32 28 24 20 20 18 21 23 25 25 31 29 25 21 21 19 27 27 27 26 24 23 15
63 85 88 88 88 86 81 76 76 73 71 67 50 46 51 50 42 46 43 39 39 34 30 29 22 23 22 22 25 26 27 31 32 32 25 25 20 17 22 26 28 28 23 19
50 76 88 88 89 89 85 83 82 77 78 62 57 51 50 50 48 45 44 42 40 36 32 30 23 26 26 24 22 23 25 25 24 21 21 23 23 20 24 29 32 24 22 21
46 58 87 90 91 90 90 89 83 77 71 64 58 55 51 48 50 52 47 44 44 39 34 32 25 27 30 26 27 27 22 29 26 21 23 24 23 22 26 25 24 24 20 23
46 48 71 91 93 93 95 90 82 80 67 62 61 60 54 49 49 52 52 48 44 41 37 30 27 29 30 26 27 26 27 23 23 22 24 26 27 25 26 23 24 27 27 25
50 44 54 83 95 97 97 89 84 78 71 66 67 59 53 48 48 48 48 42 45 39 35 30 31 35 32 28 30 26 26 27 26 25 26 31 33 28 27 28 29 31 33 28
51 51 46 55 91 94 93 87 82 76 75 70 61 57 57 51 45 48 47 48 49 40 38 35 37 35 33 34 32 29 27 25 27 30 31 37 31 30 30 34 33 33 34 31
50 53 48 41 61 86 92 88 85 80 77 68 64 59 58 54 51 54 51 53 48 41 43 40 42 41 37 37 31 28 26 27 31 34 34 36 33 27 26 27 29 30 28 27
51 47 48 43 39 55 87 91 86 82 76 69 67 60 58 52 57 51 53 59 53 48 47 43 47 44 39 43 39 32 29 29 31 34 35 29 23 28 28 27 31 27 25 25
53 48 47 45 40 39 63 91 90 85 76 70 68 61 59 55 56 53 56 59 60 53 50 45 48 47 40 42 35 30 29 30 33 34 35 32 25 26 30 30 22 23 24 25
50 49 46 44 42 37 49 74 92 85 78 71 68 65 60 54 57 56 58 62 60 55 51 47 49 47 41 41 36 30 30 31 31 30 30 26 20 25 23 20 20 21 22 23
50 48 45 43 42 40 47 68 87 86 81 73 68 63 58 54 55 56 58 61 56 50 48 49 45 45 41 38 36 32 31 28 26 26 22 20 17 14 14 13 14 17 20 22
47 45 43 43 44 40 46 67 82 87 82 72 68 64 65 54 56 59 61 57 54 51 46 47 47 43 40 37 33 31 30 28 26 24 18 16 13 13 14 15 17 19 21 24
43 41 39 40 40 37 51 69 81 84 77 69 62 51 44 56 55 58 59 56 54 51 47 48 46 41 38 36 32 33 30 28 26 24 19 20 18 18 19 20 22 24 26 29
38 40 39 41 43 46 60 75 79 77 60 63 48 42 44 52 55 56 55 54 55 52 49 47 46 41 41 39 35 35 32 29 28 26 25 25 25 26 27 29 30 32 34 36
42 43 44 48 50 62 70 74 78 67 58 58 47 49 46 51 56 55 55 56 52 49 49 48 42 46 51 44 40 38 34 33 34 33 31 31 32 34 35 36 37 39 41 43
38 42 43 49 62 84 80 75 74 78 41 43 45 39 39 43 54 55 53 48 51 48 45 45 41 40 42 45 43 42 39 39 38 37 37 37 37 38 40 41 43 45 47 48
41 35 46 65 78 77 68 64 65 65 44 42 43 39 31 35 39 49 50 46 40 49 47 42 44 42 40 39 43 41 42 43 43 41 40 41 42 44 46 47 49 50 51 51
52 53 81 76 76 62 54 36 44 65 61 41 40 25 35 40 39 42 44 40 58 41 44 33 38 48 55 46 45 39 41 43 45 46 46 46 47 48 49 51 52 53 53 53
74 89 85 71 60 52 33 31 35 55 49 37 33 20 38 33 46 44 39 42 40 44 46 43 41 33 32 38 41 42 40 42 45 48 49 48 49 50 51 52 52 52 53 53
79 77 73 62 50 43 41 40 35 30 31 38 28 33 33 32 46 43 48 43 32 36 37 33 34 36 40 42 43 45 47 48 49 49 48 48 50 49 49 49 50 53 56 58
74 71 59 46 44 40 20 22 30 30 35 38 40 43 45 43 37 38 41 44 40 41 39 40 43 39 39 39 41 42 43 44 45 46 45 48 48 47 49 53 57 60 60 56
45 53 40 27 13 18 19 27 29 12 7 14 22 25 31 46 40 39 36 40 36 33 32 32 34 38 37 38 39 40 41 42 42 40 40 44 52 51 53 53 51 51 53 57
45 31 24 23 21 20 18 19 17 14 7 6 9 14 22 30 38 39 37 35 28 30 31 30 29 28 31 33 35 35 36 38 42 45 47 49 52 48 44 45 51 55 59 59
30 26 18 8 11 10 12 8 10 11 9 7 9 12 23 25 26 29 31 27 30 30 28 24 23 26 29 29 29 30 33 37 41 45 48 46 43 42 47 53 56 57 57 56
32 28 22 11 9 8 9 10 9 7 7 8 8 7 19 28 25 26 25 21 22 26 24 25 26 27 30 33 38 41 43 41 38 38 40 42 46 52 56 56 56 55 56 58
16 14 15 18 14 14 16 15 13 14 13 12 11 18 23 20 23 23 26 27 28 30 29 30 31 33 35 35 35 35 35 37 40 44 50 53 56 57 56 56 56 56 58 61

GFSNW_500_spd_024.txt.gz
Wind_Speed
60 53 51 92 89 87 87 82 79 73 69 69 65 51 48 47 38 42 46 42 38 33 30 29 27 19 18 18 18 24 23 33 31 28 27 29 26 28 24 25 26 26 28 18
58 58 51 74 93 89 86 85 80 80 75 72 61 53 52 51 44 45 44 43 42 37 33 32 27 20 18 19 21 23 22 29 35 30 30 30 30 29 22 29 27 26 27 18
56 59 56 49 88 90 87 88 87 86 78 68 66 59 52 51 48 48 48 45 44 40 34 32 27 22 23 21 24 23 26 27 29 31 25 28 29 27 28 32 30 23 20 20
57 56 59 54 67 92 89 90 90 82 80 73 62 61 57 53 49 52 51 47 44 41 36 33 29 25 21 22 28 27 27 27 25 24 21 28 29 28 30 32 30 27 19 25
60 56 60 56 51 81 91 91 88 84 74 71 72 66 57 53 49 52 53 53 41 41 38 33 30 24 22 24 28 28 28 26 25 23 23 28 30 29 26 26 28 27 26 25
62 56 58 54 51 69 91 89 86 84 76 75 75 60 58 53 50 51 54 45 39 47 37 34 33 31 31 26 31 28 27 29 30 25 24 26 30 24 24 26 27 28 29 25
62 58 57 53 49 52 79 87 85 82 81 74 68 65 62 58 50 47 47 47 46 45 40 42 39 34 34 30 30 32 30 27 29 32 30 33 22 23 25 29 29 33 32 31
62 59 55 50 44 44 60 83 86 82 81 74 72 69 64 63 53 49 45 43 45 45 44 45 44 41 38 38 32 29 35 31 32 31 28 29 25 22 28 32 29 30 30 30
58 57 52 46 42 40 49 72 85 82 81 77 73 71 67 61 53 52 47 44 41 49 50 47 48 46 43 41 33 31 34 31 29 27 29 28 26 28 29 28 30 27 28 29
55 54 50 44 41 37 41 66 85 84 81 79 76 71 66 61 52 53 49 46 49 50 52 51 47 48 43 44 36 32 34 31 28 30 30 30 30 27 29 34 22 26 26 28
52 50 45 43 42 38 39 62 81 83 79 77 77 71 66 59 54 53 54 53 56 55 57 57 52 49 48 43 35 34 34 34 34 31 31 31 29 27 27 25 27 26 26 26
46 44 41 41 40 34 41 56 79 82 78 75 74 71 65 58 54 54 52 56 56 56 54 56 55 51 48 41 38 33 34 32 30 30 29 29 27 22 22 20 20 19 18 19
42 41 39 41 36 30 33 53 70 81 80 75 73 69 66 61 55 53 54 59 58 58 56 53 52 46 45 40 39 34 30 33 31 29 27 26 23 18 16 16 15 14 14 16
40 42 40 37 35 30 34 54 66 81 79 76 73 68 63 56 56 52 51 56 59 57 53 49 52 46 47 46 41 33 28 31 31 31 27 24 22 21 19 17 16 17 19 21
38 40 37 34 32 31 35 50 68 77 81 76 71 65 55 49 48 51 52 57 59 58 52 52 49 48 50 45 44 39 30 29 32 29 27 29 27 24 23 23 23 24 26 27
35 35 36 32 30 34 37 48 64 71 74 71 70 61 55 52 47 52 53 55 59 57 45 48 49 50 49 47 43 35 31 32 34 33 32 32 31 30 29 31 32 33 34 35
32 34 33 33 34 31 36 48 59 69 64 60 63 61 52 45 40 45 55 54 55 54 49 49 52 54 50 46 40 33 35 39 34 36 35 35 34 35 37 38 39 41 42 43
32 34 32 30 32 32 35 52 52 57 65 57 54 57 44 37 35 37 48 53 48 47 50 49 52 52 51 47 39 36 30 36 41 44 45 41 42 42 43 45 46 47 48 49
32 34 33 34 33 36 52 48 41 37 44 51 51 49 45 44 37 36 33 46 47 44 46 49 50 50 47 42 41 39 37 36 37 34 37 43 45 46 47 49 50 51 52 52
43 38 37 37 48 60 49 45 34 39 46 50 49 46 50 40 33 31 35 42 42 41 46 46 50 51 45 41 38 42 46 48 40 42 46 44 45 47 48 48 50 51 52 52
37 38 41 58 60 49 40 37 31 43 58 57 49 33 43 32 40 29 35 38 41 47 46 46 41 48 37 38 38 35 41 38 46 48 41 42 45 47 49 50 52 53 53 52
72 68 69 59 41 35 27 26 26 45 55 32 23 19 18 23 21 27 22 43 38 40 42 43 34 42 37 49 39 41 37 36 40 43 42 43 45 47 49 50 51 53 48 48
64 56 50 40 31 22 25 29 21 28 28 28 27 21 18 18 17 21 21 29 35 35 32 26 33 30 34 35 37 39 38 38 38 40 42 44 45 46 47 48 56 50 54 57
47 44 34 20 10 11 16 25 21 21 21 28 30 31 32 29 31 29 31 31 33 44 41 41 38 30 27 31 34 34 34 35 36 39 40 41 41 41 42 43 52 57 61 54
35 28 18 23 22 21 21 23 32 19 12 12 13 17 23 27 25 27 34 35 34 34 33 30 31 29 30 32 31 30 30 32 34 36 39 39 44 50 53 55 55 51 48 50
23 19 16 13 12 9 14 12 11 8 6 5 4 5 7 12 18 23 28 32 36 29 23 23 28 29 30 30 29 31 33 36 38 41 44 45 49 54 51 48 49 51 54 58
10 3 1 2 4 5 3 2 1 3 5 3 3 6 9 11 15 18 17 19 25 27 24 24 27 29 29 31 32 36 39 41 44 47 45 42 43 45 48 51 53 57 63 68

GFSNW_500_spd_027.txt.gz
Wind_Speed
68 63 59 61 65 64 58 82 86 80 81 81 75 63 48 49 53 43 48 47 45 46 44 36 34 30 21 19 21 21 21 24 28 30 30 28 31 30 30 32 27 28 27 22
68 62 58 59 66 68 58 68 86 83 84 83 74 62 56 55 53 42 47 49 44 49 41 39 34 31 24 25 22 20 20 23 26 32 34 35 32 30 31 27 22 27 33 27
61 62 59 58 60 68 63 58 84 90 85 78 70 70 62 58 54 45 49 46 47 51 40 40 35 28 26 25 22 22 22 22 25 25 28 28 31 27 27 29 30 31 29 26
57 61 61 61 60 65 64 60 75 89 90 85 74 70 64 65 55 47 52 50 53 40 42 39 34 28 27 26 23 23 24 22 21 21 25 33 31 30 31 33 32 33 29 27
61 61 63 62 62 62 63 56 63 86 84 76 77 75 70 65 56 48 52 51 48 41 40 41 34 32 30 31 28 29 27 22 22 23 24 27 27 29 31 29 27 31 28 25
66 65 61 63 63 63 64 48 50 78 84 81 80 73 69 66 59 51 50 49 42 35 37 37 37 37 34 33 31 31 31 25 25 24 23 25 29 25 26 24 24 25 28 25
68 68 56 62 61 61 56 46 44 77 85 82 75 72 70 67 56 50 51 49 51 36 37 41 41 38 36 35 33 32 32 29 27 28 27 31 19 19 21 21 22 25 26 29
63 68 61 59 56 56 55 50 44 70 81 77 76 76 71 66 58 55 50 49 47 43 41 44 44 42 40 38 35 34 29 28 31 30 28 24 21 20 19 25 19 26 25 27
58 66 62 56 51 53 45 40 43 61 77 79 76 76 73 67 61 56 51 47 47 47 47 44 48 45 44 41 39 35 31 30 30 35 33 26 16 20 22 23 20 20 26 27
60 63 57 52 50 47 41 34 43 62 74 76 78 76 73 67 64 58 54 49 48 45 48 46 44 48 46 42 39 34 31 30 30 31 31 21 20 19 21 25 24 25 27 28
62 61 53 49 48 41 38 31 34 54 74 75 78 76 74 68 62 56 52 51 49 46 51 53 50 50 46 47 38 32 34 29 28 26 29 27 21 23 24 25 24 25 24 23
51 49 49 48 43 37 34 32 37 54 68 60 75 73 72 66 62 57 50 48 48 46 47 52 53 51 49 46 41 33 31 28 26 27 28 30 27 24 23 23 23 22 21 20
53 48 46 43 38 35 31 26 36 52 62 68 62 73 72 67 59 53 50 49 51 53 49 46 45 46 46 44 36 35 34 31 32 29 27 25 27 25 24 21 21 19 16 14
42 43 43 38 35 33 31 32 37 51 63 67 63 37 50 65 55 51 48 49 51 54 53 49 46 44 40 41 41 37 37 35 29 27 27 27 28 26 26 23 22 20 18 17
38 39 38 35 34 32 32 31 41 58 58 48 58 39 27 36 56 47 46 47 52 55 56 55 49 44 40 40 44 39 38 36 31 26 24 30 28 30 26 24 25 25 25 24
32 31 31 28 28 27 27 27 51 63 59 40 35 58 45 33 28 40 49 47 47 51 53 54 55 43 37 42 43 40 37 34 34 35 31 31 30 30 28 28 28 29 31 31
30 28 27 27 26 21 17 33 62 48 46 53 34 29 29 39 39 39 32 44 47 49 49 50 49 43 41 37 41 38 40 37 39 33 34 34 33 31 32 32 33 34 36 37
28 27 28 25 22 16 20 48 59 46 43 45 59 42 29 35 36 36 37 31 41 45 47 43 41 41 36 39 37 38 38 39 39 38 29 37 38 38 36 35 37 40 41 43
28 28 25 23 20 18 30 38 44 44 57 37 34 39 45 32 35 34 34 33 29 36 42 40 36 41 45 40 35 39 41 42 42 38 33 30 41 43 44 45 42 44 46 47
24 22 21 24 23 33 35 29 27 29 48 39 35 30 33 40 34 30 27 30 29 30 33 37 37 34 40 44 41 41 44 46 43 37 33 37 37 40 41 42 45 47 50 52
26 24 24 23 20 28 26 22 21 36 47 39 33 28 21 27 33 27 22 26 26 25 26 33 33 37 36 38 43 43 44 44 43 38 42 43 46 45 45 46 45 48 49 48
25 23 28 43 44 38 32 27 19 17 33 31 34 32 27 27 26 31 32 21 30 34 31 30 33 34 34 37 39 39 45 48 47 49 50 41 38 41 40 46 50 47 44 44
38 44 52 40 28 26 25 18 21 22 26 27 31 26 25 26 32 31 30 31 24 34 36 33 33 35 35 36 37 46 33 50 53 45 33 35 40 43 44 44 44 44 44 45
55 41 35 37 24 22 24 17 15 14 22 31 37 24 18 23 15 27 31 28 29 20 28 32 37 29 22 24 33 43 36 32 34 35 35 38 40 40 40 41 40 42 45 49
36 21 6 15 21 25 20 20 17 18 16 17 17 14 12 17 15 19 19 22 26 27 27 22 28 31 30 33 37 33 28 29 31 32 32 33 36 36 36 38 45 49 51 53
24 35 31 28 25 29 22 20 18 19 18 16 15 13 13 20 22 24 18 20 25 31 29 27 27 27 19 22 22 23 28 30 31 32 33 36 39 41 43 48 50 52 55 58
27 23 26 24 22 20 19 17 14 13 13 11 9 10 10 12 16 23 24 21 17 12 14 20 24 18 16 19 21 25 29 32 33 36 39 43 47 50 51 51 51 52 54 56

GFSNW_500_spd_030.txt.gz
Wind_Speed
78 75 72 67 66 64 64 64 63 58 59 80 85 83 66 64 64 62 60 56 51 47 44 42 43 45 32 32 32 31 25 27 27 28 30 27 30 29 34 33 27 30 27 25
72 72 72 72 71 69 64 65 64 68 61 77 85 79 69 72 70 67 63 56 44 48 43 46 47 42 36 34 34 32 30 29 27 30 29 33 33 32 31 31 33 32 28 27
59 53 59 68 72 71 69 67 68 74 71 63 76 77 77 75 73 68 66 50 45 47 47 46 51 44 40 40 38 35 33 30 26 26 20 25 32 33 31 32 35 29 30 29
48 58 53 57 58 66 72 71 70 68 68 60 65 79 76 74 77 69 68 52 49 47 44 45 57 48 42 40 36 35 36 32 27 20 22 27 29 32 33 33 31 32 29 30
53 47 52 54 59 64 67 71 66 66 62 56 65 76 81 81 76 68 64 54 46 43 45 48 55 51 48 42 36 36 38 31 26 21 21 23 26 29 32 31 32 32 30 30
53 48 58 55 57 65 65 61 60 61 62 64 61 77 77 79 75 68 61 50 43 41 39 38 46 42 43 40 38 37 38 32 26 22 21 23 31 25 27 28 27 24 25 24
56 50 66 56 60 62 54 55 54 54 61 62 48 69 76 79 75 66 60 54 48 45 43 39 43 44 47 42 39 40 38 31 29 26 24 29 19 20 25 27 24 24 26 26
53 52 70 58 57 55 49 55 54 51 52 51 50 72 77 78 77 68 63 56 47 44 43 37 47 39 48 45 43 42 38 35 32 31 28 23 22 19 23 22 22 24 21 26
48 58 65 65 57 49 49 54 51 44 46 41 46 73 76 77 75 66 60 59 50 44 48 40 51 44 48 48 47 41 40 36 35 32 29 26 17 15 18 22 17 16 23 26
51 64 66 51 45 44 50 50 47 44 45 31 44 70 79 75 71 64 59 59 50 47 54 48 49 55 47 50 46 42 39 38 38 30 31 22 18 21 19 23 10 24 23 25
49 68 60 61 51 45 47 44 46 42 46 34 44 53 52 69 69 62 60 58 49 50 50 54 48 58 51 49 47 43 38 35 34 32 32 22 16 19 22 18 22 25 24 24
47 60 62 56 46 40 41 41 43 40 42 37 47 63 47 58 64 62 59 52 48 50 53 51 51 49 54 55 47 47 40 37 37 32 27 21 22 25 26 23 24 25 24 23
49 65 55 50 44 37 38 38 34 32 39 41 37 31 40 45 60 61 58 52 49 49 46 42 41 50 49 49 50 41 39 34 30 27 24 19 20 24 26 27 27 26 23 21
54 48 43 44 36 38 37 34 28 25 30 49 42 24 35 51 60 55 52 50 47 50 50 46 42 43 46 50 44 43 42 33 34 28 23 21 21 25 29 31 29 25 25 22
47 42 40 36 39 37 33 28 21 22 28 43 34 20 21 42 54 51 49 48 48 47 47 48 43 39 38 42 42 42 44 38 34 26 21 28 23 27 31 31 29 27 27 26
41 38 36 37 35 32 29 28 28 21 47 46 37 28 17 16 49 45 45 45 45 46 46 42 41 38 37 37 36 31 37 39 39 34 29 30 29 31 32 33 31 31 30 31
36 37 35 32 29 28 26 22 25 21 54 44 35 33 31 22 22 35 43 41 41 42 44 45 42 41 37 34 31 26 30 35 40 38 38 34 28 30 33 38 36 35 36 36
33 30 28 27 26 24 23 26 29 40 46 48 43 46 45 39 30 25 39 36 36 40 41 40 41 39 39 34 28 30 31 30 39 39 35 35 35 33 31 35 37 40 41 40
30 28 25 21 20 20 24 25 45 52 53 52 36 44 42 41 24 30 33 23 34 38 39 37 36 36 36 33 29 30 31 33 34 37 37 41 33 32 29 32 38 44 44 45
28 25 21 17 13 13 51 55 58 54 40 40 42 46 41 37 27 31 35 23 16 16 19 23 35 32 32 33 28 30 34 32 31 35 38 37 39 40 38 38 41 40 45 51
23 21 19 18 31 47 45 46 51 41 49 51 48 45 41 37 34 31 34 18 21 24 19 21 21 23 31 32 31 27 31 36 36 36 38 40 42 42 39 40 44 48 50 49
25 23 22 27 32 38 38 46 48 48 39 37 32 26 24 29 29 26 23 19 18 18 16 19 19 20 25 31 32 32 32 32 36 38 39 42 43 45 47 46 50 52 48 48
25 28 36 35 37 36 31 36 44 43 36 32 33 26 21 18 29 29 26 19 16 12 12 15 21 25 24 25 29 28 30 33 35 37 39 39 42 42 41 43 40 43 45 40
40 31 32 31 30 28 27 30 36 41 40 34 30 26 20 16 21 22 22 25 21 17 21 20 12 11 18 26 27 27 31 34 35 41 39 39 33 36 31 36 34 33 44 46
30 23 13 8 8 9 19 27 31 28 28 30 29 24 20 19 15 19 22 24 25 26 24 23 23 24 23 20 26 28 28 35 40 37 38 42 38 38 37 41 44 44 43 42
16 20 25 26 35 31 30 30 33 30 27 22 30 20 12 24 23 13 16 17 14 18 21 24 24 23 27 28 25 25 28 33 33 29 30 31 33 34 36 38 40 43 46 49
26 28 26 30 31 30 28 26 24 27 22 22 21 17 15 17 20 18 21 23 22 21 20 22 24 28 32 28 26 22 20 21 26 29 29 31 33 37 41 43 46 48 50 52

GFSNW_500_spd_033.txt.gz
Wind_Speed
59 58 62 59 62 64 67 64 63 58 56 61 62 60 45 58 65 64 62 58 59 56 49 49 45 41 42 43 44 46 38 37 37 34 28 23 21 20 22 29 24 26 27 23
65 66 65 65 66 65 66 71 65 63 62 63 61 53 52 40 64 70 65 65 46 49 52 47 46 44 42 43 46 48 38 44 42 31 27 30 30 30 26 29 25 34 27 27
73 75 72 70 69 67 66 74 75 70 68 61 59 54 52 50 62 69 69 68 62 45 37 59 52 48 48 45 41 38 42 46 41 39 28 23 23 31 31 33 34 32 32 22
77 74 69 69 71 70 68 79 83 75 73 66 56 54 52 57 60 72 71 71 70 54 44 50 51 52 46 41 42 45 48 48 43 38 33 26 25 25 30 30 31 29 26 23
57 58 57 56 64 67 68 76 78 75 67 58 57 53 58 62 55 70 75 75 65 40 43 40 41 51 50 42 46 49 48 46 42 39 38 31 29 29 28 28 29 33 31 32
50 52 48 50 58 64 73 67 61 62 65 63 63 55 56 57 51 67 72 75 63 63 32 41 46 33 50 49 52 52 52 47 45 43 35 34 37 34 29 28 30 29 30 26
54 55 56 46 55 67 67 57 55 57 51 63 55 48 59 55 50 59 74 52 55 63 58 51 51 41 35 51 53 55 54 47 45 41 38 42 25 24 22 24 26 28 27 26
57 57 59 57 58 62 58 45 55 55 51 47 51 59 53 54 49 60 66 59 66 55 58 49 48 47 41 49 50 56 53 46 47 44 42 34 29 25 20 22 26 26 25 24
48 50 56 66 57 63 51 58 52 52 42 47 52 47 53 52 44 65 67 43 54 61 55 53 50 54 46 49 51 52 54 49 47 43 40 37 25 19 17 24 29 28 25 27
46 53 55 67 62 51 47 49 50 48 39 40 39 42 42 48 45 61 49 58 61 59 52 52 50 48 45 52 51 47 46 48 48 43 39 31 25 19 22 27 2 22 25 28
46 48 60 59 56 60 48 49 50 44 32 37 35 37 39 46 49 52 64 59 60 57 58 50 55 44 49 49 46 26 47 48 44 41 37 34 22 20 23 22 28 31 27 28
46 46 59 51 53 51 48 50 46 42 33 37 39 27 25 35 38 51 62 47 53 54 54 51 55 46 48 50 54 34 39 45 42 42 40 27 27 21 20 24 33 33 31 32
42 47 52 60 53 48 44 42 40 37 34 31 36 32 28 32 39 57 62 51 49 53 51 50 48 46 45 39 44 51 41 39 44 42 36 33 27 23 25 25 31 36 35 34
43 54 58 53 48 48 42 34 32 32 34 32 28 30 31 33 30 47 58 48 46 52 50 50 49 47 50 45 41 49 46 48 42 42 36 38 33 24 27 32 32 35 39 35
53 51 53 48 41 41 37 34 29 32 37 33 24 24 35 42 38 47 50 49 47 45 45 50 49 45 49 50 45 46 44 46 46 46 39 35 29 29 32 31 30 30 32 32
46 47 45 39 33 33 36 33 32 28 29 33 28 33 25 30 39 36 45 50 41 42 46 44 43 36 40 39 46 40 40 43 46 43 44 36 32 30 30 28 31 29 31 32
41 40 38 35 36 35 34 29 21 22 23 44 29 18 26 32 33 38 37 39 42 41 45 45 39 35 33 33 33 28 33 36 39 42 46 42 35 34 29 31 33 32 32 36
36 36 37 39 36 32 29 26 20 29 40 45 35 29 29 31 27 31 38 36 38 41 42 41 36 32 28 30 27 26 28 31 30 37 41 38 40 37 34 36 36 34 36 35
36 36 36 34 31 27 23 22 29 49 48 34 35 37 30 28 32 33 38 37 36 35 36 36 35 32 32 29 23 24 25 26 29 27 30 33 35 35 34 34 38 37 33 32
26 26 25 24 23 23 23 26 31 46 36 32 36 31 25 25 28 36 38 36 32 32 28 26 31 31 36 32 25 24 25 26 29 33 36 37 37 39 40 41 39 39 38 39
23 23 22 23 24 22 29 32 36 51 35 36 32 38 33 27 22 31 22 25 29 26 24 24 24 25 32 26 25 25 27 28 27 30 34 36 38 38 39 42 46 46 47 41
22 19 19 21 18 21 24 41 43 53 41 29 36 33 33 26 26 27 25 21 27 23 21 20 20 16 17 20 22 26 28 30 30 29 33 38 40 42 42 42 44 44 45 46
26 29 23 28 29 33 43 52 51 57 39 33 36 27 16 17 17 26 24 19 15 18 18 18 13 15 19 20 19 18 23 29 32 34 37 38 38 39 41 41 39 42 46 48
21 20 31 29 37 45 38 38 51 49 39 36 36 31 30 27 22 21 24 26 21 16 16 12 11 5 5 10 19 23 25 26 27 30 34 37 37 37 41 39 43 46 45 53
26 30 34 29 33 40 41 38 40 43 45 32 32 28 25 21 21 25 24 23 24 21 17 16 14 14 15 15 18 18 20 26 28 30 30 38 42 40 42 51 50 47 45 48
15 8 3 12 24 45 51 55 47 43 36 32 27 24 22 18 22 18 23 23 25 25 23 22 23 22 22 22 21 21 21 22 28 36 42 42 38 37 40 39 42 43 42 45
12 22 25 30 34 41 41 39 39 37 35 31 26 18 17 19 20 17 13 15 21 19 19 22 25 24 23 26 27 28 29 28 30 32 34 37 38 38 38 38 39 41 44 47

GFSNW_500_spd_036.txt.gz
Wind_Speed
44 46 47 47 48 50 54 55 51 49 53 54 53 43 34 30 32 38 56 57 56 59 47 35 33 40 44 40 38 40 41 42 40 38 31 34 34 27 28 35 28 33 34 26
47 50 51 51 51 54 59 61 61 60 61 61 55 48 43 39 38 39 43 58 60 49 50 41 36 38 41 36 38 42 39 47 47 42 32 30 33 28 33 24 26 32 31 23
55 55 54 54 54 53 59 64 68 66 67 60 59 53 47 45 40 42 45 48 60 58 52 47 41 32 31 38 46 45 40 47 46 47 43 31 32 27 31 32 34 32 34 25
57 58 60 60 60 58 59 67 72 68 66 62 58 60 48 50 46 41 46 48 58 60 56 53 48 38 30 47 54 45 49 48 48 47 40 38 29 29 28 36 30 29 32 31
62 63 65 67 68 66 67 69 72 70 66 63 61 57 53 48 48 45 42 50 45 53 59 58 49 40 38 50 43 55 49 47 44 47 45 46 43 33 29 33 33 34 29 32
71 74 77 78 77 71 66 71 68 67 66 66 65 61 52 48 48 51 37 45 44 52 63 69 57 34 34 41 47 46 47 49 44 56 49 43 47 44 32 31 29 27 33 28
62 59 55 53 55 65 72 76 69 66 63 62 61 56 52 51 54 51 42 45 46 44 58 58 68 52 34 43 51 48 45 50 45 45 45 52 51 43 42 43 41 40 36 30
63 63 59 56 51 53 67 67 61 67 64 55 53 54 56 59 60 56 51 46 46 40 55 38 52 58 30 48 44 52 49 48 53 56 50 49 47 38 41 39 31 29 31 31
61 60 65 62 57 54 54 62 66 60 56 60 39 41 49 56 57 54 48 47 42 43 56 49 51 44 69 48 44 36 45 49 51 55 55 53 48 37 31 31 34 28 30 28
48 48 51 58 58 58 55 52 57 64 48 50 46 44 41 50 50 52 46 47 48 49 59 72 56 53 55 45 47 40 47 50 49 52 53 53 43 34 29 31 11 25 25 27
34 41 48 51 58 60 56 42 52 45 42 45 42 39 40 36 48 50 37 43 50 47 58 55 53 59 65 57 47 39 40 50 48 50 52 51 43 37 37 27 19 26 27 25
32 39 41 47 59 60 61 46 50 46 41 43 40 35 30 33 33 36 40 36 41 44 45 60 52 49 54 55 54 44 40 36 41 47 48 47 41 33 28 21 27 31 34 30
31 40 42 45 50 56 49 50 48 43 42 38 34 31 34 34 37 38 43 42 42 54 37 49 44 55 52 52 52 44 41 31 41 42 40 36 40 36 36 31 31 30 33 38
34 40 48 47 48 52 48 50 42 42 40 36 22 32 28 28 32 35 37 42 37 41 43 41 41 48 49 48 45 45 40 16 32 52 47 46 47 32 31 35 32 34 34 36
33 38 43 49 50 46 46 47 43 40 41 35 32 32 30 28 29 34 37 36 42 37 24 39 44 44 44 43 43 47 36 41 36 51 35 24 36 37 40 36 35 33 35 33
41 43 41 44 46 46 41 42 40 34 32 27 29 33 35 27 27 20 40 31 48 45 27 24 39 46 40 43 42 38 36 34 37 40 36 40 42 42 41 42 39 39 38 35
43 39 41 47 45 42 34 33 33 29 36 32 27 26 25 27 30 30 43 47 51 39 34 30 30 32 38 35 35 33 36 36 38 40 39 44 42 45 47 44 42 36 33 35
43 41 42 40 38 33 34 33 29 27 27 26 24 22 20 22 35 32 43 57 55 44 35 34 32 29 28 28 32 30 32 33 35 42 39 37 39 46 48 43 43 42 44 41
35 38 41 40 38 35 30 27 24 24 26 31 27 20 15 25 37 30 46 48 47 35 28 24 30 30 28 22 22 25 29 32 34 32 32 33 37 39 40 43 47 49 44 37
30 36 37 35 31 27 25 22 23 31 35 35 27 22 20 31 41 37 37 36 36 33 29 27 26 28 31 26 22 22 21 21 24 29 29 26 32 32 31 30 34 37 41 43
32 31 28 28 26 23 22 19 20 36 45 38 27 29 29 29 36 40 33 29 28 25 25 26 26 29 29 27 27 23 23 21 24 26 26 27 28 30 36 38 38 39 38 40
25 25 24 23 21 20 19 21 37 40 32 25 25 19 16 33 28 31 36 30 24 23 25 29 23 23 26 25 24 25 26 28 29 28 31 33 34 36 39 42 42 41 40 41
23 23 23 18 26 25 23 26 35 33 21 20 20 17 26 33 29 31 25 19 21 28 27 27 21 18 14 16 19 22 23 26 30 32 34 36 37 36 36 38 42 45 46 47
14 20 25 21 23 30 31 29 32 31 19 23 23 23 25 27 32 35 23 14 25 30 32 27 19 16 14 17 19 21 23 24 22 23 26 30 33 34 33 34 37 39 41 43
12 21 20 16 17 26 34 36 37 22 23 24 21 19 19 19 16 15 13 12 13 16 18 16 15 13 15 17 17 18 19 21 23 25 28 31 32 31 33 34 39 44 47 48
14 14 15 20 27 27 27 43 34 21 24 22 19 16 14 13 13 11 11 12 14 15 18 16 17 19 21 22 23 24 25 25 25 26 26 28 31 36 39 41 40 40 40 44
6 10 14 22 30 34 31 41 29 23 21 16 14 18 18 17 16 11 11 15 17 19 18 18 19 20 23 24 26 26 26 27 29 30 32 35 35 36 38 40 39 39 41 46

GFSNW_500_spd_039.txt.gz
Wind_Speed
38 39 40 40 41 39 40 41 38 37 40 41 37 25 21 19 26 26 26 40 51 61 49 49 43 42 47 40 30 38 31 36 41 40 36 40 33 32 33 38 30 30 33 30
39 39 38 40 42 42 42 44 44 41 43 40 33 28 28 28 28 32 32 32 32 43 56 51 47 43 38 43 43 44 33 40 45 45 42 41 40 35 36 32 34 39 33 31
36 37 38 40 43 46 48 50 51 49 47 40 37 35 32 33 35 34 34 30 34 35 53 52 60 55 40 42 43 42 38 40 46 43 41 40 42 39 37 36 38 33 36 31
38 40 42 43 45 47 51 60 59 55 50 41 43 46 42 38 37 37 40 37 35 33 37 58 58 49 50 46 46 48 43 41 44 47 47 43 46 40 37 37 32 37 29 32
44 45 46 47 48 51 56 61 60 59 55 51 49 49 41 38 38 44 42 39 35 33 37 34 50 54 54 56 50 49 48 47 47 50 50 47 52 49 38 36 31 32 30 37
50 51 51 51 55 56 57 58 59 62 61 60 56 50 44 42 45 46 45 42 42 42 31 40 50 54 59 63 41 40 56 52 50 52 51 50 55 50 54 41 34 32 35 30
54 53 52 53 56 59 59 61 60 58 63 64 61 56 51 46 50 49 50 47 45 32 38 39 41 45 57 65 51 38 42 57 58 51 53 56 41 48 52 52 38 38 31 34
59 63 64 65 67 69 64 59 58 54 57 56 54 54 54 49 53 55 53 49 44 46 39 40 44 45 54 55 43 28 27 40 58 58 56 50 48 47 44 48 49 44 44 38
64 62 61 61 61 57 54 55 59 58 60 62 43 40 44 53 58 60 57 51 48 48 44 45 43 47 47 56 50 43 30 27 50 47 48 53 46 48 41 44 49 46 46 38
52 55 57 58 58 59 57 55 55 65 58 35 59 54 50 44 48 52 51 52 52 51 54 48 44 49 43 49 64 61 51 47 39 47 45 40 44 39 37 45 43 36 37 39
45 48 51 52 51 50 53 60 53 57 66 53 47 51 47 45 36 42 43 48 54 51 55 52 51 52 41 46 38 40 44 51 30 43 50 47 45 38 47 38 31 27 29 31
37 38 44 45 50 52 52 51 53 48 51 61 41 33 38 47 41 34 39 46 47 51 53 46 45 50 46 39 39 33 39 44 47 27 49 41 41 38 35 40 37 34 38 32
31 28 29 37 39 41 40 52 49 43 48 46 43 43 37 38 38 35 37 45 47 48 46 41 45 47 37 54 36 38 38 44 46 30 42 44 47 42 39 39 42 39 32 37
23 25 25 37 39 39 43 43 39 35 41 53 40 40 36 35 35 34 34 37 43 39 41 43 43 41 41 48 51 41 38 42 41 25 27 41 43 38 44 43 43 49 45 44
25 27 31 32 38 41 40 42 36 34 33 41 24 29 35 31 34 35 33 30 34 38 37 31 37 34 37 42 42 44 36 35 41 41 25 39 44 43 35 34 50 49 45 41
37 39 36 38 37 40 45 36 46 43 38 30 25 25 27 33 29 29 32 34 35 33 29 33 32 32 35 36 38 35 34 35 37 41 38 27 40 39 48 34 32 36 42 31
41 40 35 36 42 43 43 35 42 43 34 29 31 25 27 29 29 32 35 35 36 34 30 28 24 29 31 33 33 37 33 34 34 38 40 41 33 35 38 43 48 44 42 40
41 43 43 40 39 46 48 35 37 33 30 30 29 30 32 32 26 25 38 38 37 34 25 22 17 24 24 34 29 27 29 29 27 32 36 37 32 34 37 39 37 40 42 44
39 40 42 42 42 40 35 31 29 31 33 33 32 28 28 26 33 27 31 42 34 38 18 29 24 21 25 28 21 20 20 22 25 31 36 36 35 32 34 35 38 42 44 48
42 40 38 38 38 39 38 37 36 35 35 32 29 23 22 25 29 33 39 36 38 41 29 34 28 22 26 22 20 20 21 27 28 30 32 33 33 33 32 32 34 40 45 49
36 35 33 36 37 34 31 27 26 26 23 22 23 22 15 19 27 35 35 39 43 36 35 32 27 30 27 23 18 15 13 14 12 16 20 22 24 27 29 30 33 36 38 39
27 25 25 24 23 21 19 17 14 20 25 27 18 16 18 15 21 26 25 33 40 36 32 35 32 25 21 19 21 20 19 20 23 26 28 32 33 32 33 32 33 36 39 40
23 23 21 20 20 18 15 14 15 21 32 23 21 14 15 23 27 33 31 32 34 32 34 37 29 22 19 20 20 21 23 26 31 33 34 37 37 37 39 40 40 40 39 40
19 19 18 17 15 11 13 18 25 31 22 15 9 11 22 30 28 34 31 27 23 31 30 22 15 18 15 14 13 16 19 22 24 26 27 29 31 33 34 36 39 41 42 42
20 20 18 15 12 11 17 32 24 19 24 18 16 15 22 28 29 25 29 25 25 27 24 26 13 15 12 14 15 18 20 21 23 24 27 29 31 32 34 35 36 38 38 39
14 20 21 17 14 15 19 23 26 27 25 23 18 22 18 25 33 32 30 13 8 11 22 28 22 16 15 18 16 17 19 20 24 28 30 30 31 31 32 34 36 36 38 39
17 19 22 22 22 23 25 30 28 25 28 22 16 15 19 16 16 12 7 6 5 6 8 10 12 14 15 19 22 24 25 26 27 28 29 31 33 36 37 39 39 41 43 45

GFSNW_500_spd_042.txt.gz
Wind_Speed
38 38 35 31 32 32 34 38 38 36 37 40 39 31 24 28 29 35 29 39 42 55 50 42 45 39 41 53 55 50 51 47 46 37 36 38 39 38 36 40 39 36 32 25
36 37 35 34 32 33 36 41 40 40 38 36 31 27 29 31 32 31 27 23 20 41 49 47 44 43 44 45 52 52 49 45 48 42 41 43 45 43 42 40 39 40 38 32
35 38 34 36 36 36 40 43 42 42 37 32 34 36 34 31 32 30 25 23 23 23 34 55 46 42 43 36 42 43 45 45 47 49 43 42 46 47 41 42 43 39 40 31
37 36 37 38 38 39 41 46 41 41 37 37 35 33 33 33 32 30 29 27 23 22 21 25 28 55 48 51 40 52 45 46 50 50 49 50 47 46 42 42 45 45 37 37
37 37 38 40 41 40 45 45 43 42 42 41 39 38 34 33 37 35 33 30 29 29 26 29 27 31 44 61 60 47 50 45 45 52 52 50 55 52 49 45 46 45 44 42
36 37 39 41 43 45 48 45 46 48 48 47 45 35 28 36 40 41 38 36 36 36 35 32 30 31 34 39 56 67 56 48 54 49 52 50 58 50 53 49 47 47 47 38
41 41 42 40 42 48 51 49 51 54 53 53 41 42 44 41 39 40 40 41 45 41 39 40 38 36 37 39 39 43 59 60 59 42 56 60 52 52 52 51 52 52 45 41
44 46 47 47 47 47 49 49 50 52 56 51 50 46 46 48 46 45 42 41 43 46 42 44 43 39 39 39 40 40 49 54 62 37 47 54 56 49 47 52 51 52 49 43
48 50 52 54 54 52 53 53 51 52 53 52 44 49 50 51 48 49 45 40 42 47 47 45 44 43 42 41 41 43 47 50 56 41 28 15 51 50 45 48 50 47 44 49
55 57 57 57 56 56 58 58 57 56 57 53 52 53 51 46 46 46 44 43 43 46 49 52 51 49 48 46 40 48 43 42 51 60 50 28 32 50 49 51 44 40 41 51
46 46 46 46 47 47 49 49 47 48 54 50 51 46 49 48 46 49 46 44 49 51 54 56 55 52 50 49 44 41 39 36 49 60 50 24 20 31 48 49 49 43 41 37
43 44 45 47 49 50 49 49 42 42 46 58 52 47 47 53 42 44 45 40 38 44 52 55 55 56 54 48 45 40 37 29 31 48 33 26 29 39 43 40 42 41 40 45
43 42 41 43 44 43 45 45 47 48 45 49 57 47 44 37 41 54 48 45 36 44 42 43 47 53 54 49 43 34 35 37 34 35 27 34 25 43 45 43 42 35 39 41
36 38 40 43 43 41 41 42 36 38 44 50 40 52 58 43 35 42 42 45 39 35 34 35 33 40 51 46 35 37 35 40 33 30 28 39 28 26 37 38 36 36 32 34
21 26 36 35 34 36 36 28 38 37 33 39 34 39 42 41 24 32 38 42 36 29 34 35 37 34 39 42 35 37 35 39 34 32 27 35 23 17 28 44 46 44 39 40
22 16 23 34 39 41 42 38 34 35 32 31 26 31 28 41 35 31 35 35 33 34 34 40 37 36 37 36 36 30 32 39 41 32 27 27 29 27 33 38 40 42 45 42
29 31 35 39 41 36 36 34 33 32 23 25 30 32 28 31 37 35 34 38 31 31 34 26 30 35 34 38 40 32 27 31 32 30 29 26 23 24 31 31 32 38 45 43
38 39 39 39 38 36 39 45 36 25 30 25 24 28 33 33 26 27 35 37 33 37 39 34 30 36 38 31 25 24 32 30 34 28 25 22 22 24 29 36 34 32 31 39
38 44 47 42 35 30 36 38 36 33 28 29 28 24 25 27 30 33 31 30 34 32 34 29 26 36 35 29 31 30 28 29 27 28 24 23 25 26 34 39 36 35 36 36
40 35 37 40 38 32 36 34 33 31 25 27 28 22 22 24 26 23 23 29 33 36 36 34 28 25 25 28 25 24 24 27 27 26 25 27 29 30 31 30 32 36 39 39
36 34 34 38 35 39 38 38 36 30 27 26 22 18 16 21 25 26 27 23 34 34 32 33 16 26 24 25 26 23 24 26 23 23 22 22 22 26 28 30 33 36 38 40
35 35 38 34 29 29 29 28 25 21 20 19 18 21 16 13 19 23 28 26 32 36 38 25 16 27 25 27 29 25 25 23 19 19 20 21 25 28 29 29 31 34 35 37
22 23 24 24 21 19 17 16 17 17 18 18 19 17 12 14 17 20 24 26 34 29 38 25 28 27 23 24 25 24 22 21 22 23 25 28 31 33 34 35 36 37 40 42
18 18 17 15 14 12 11 12 16 22 30 24 20 16 13 22 14 17 22 24 27 31 27 29 33 26 23 21 21 23 19 14 14 19 23 25 26 29 31 32 33 34 34 36
12 13 11 11 10 11 17 23 26 23 13 7 8 10 11 20 18 21 24 21 24 31 29 27 22 21 22 23 25 24 20 16 18 22 23 25 25 24 24 26 28 30 31 33
11 9 8 11 16 21 26 26 21 19 19 16 13 17 18 21 20 20 18 16 14 17 20 24 25 27 17 19 19 17 16 13 12 12 15 18 20 23 27 28 30 32 33 34
16 15 16 17 25 28 25 23 24 25 22 15 12 12 26 25 24 19 20 19 10 2 2 17 24 22 17 20 18 14 16 17 18 20 23 25 27 29 32 34 37 39 40 42

GFSNW_500_spd_045.txt.gz
Wind_Speed
49 49 46 43 41 39 37 34 39 39 38 44 47 48 51 46 45 40 36 39 46 50 51 50 48 47 49 52 51 51 51 49 47 42 42 41 43 44 42 45 44 41 36 29
49 42 39 38 36 36 35 35 36 34 33 40 38 41 39 41 38 33 35 37 44 48 53 51 51 44 46 49 53 55 55 55 53 49 44 46 47 47 46 45 46 44 42 31
38 41 38 34 34 37 40 39 38 36 31 30 31 34 33 34 33 30 33 33 32 35 46 55 49 43 46 44 48 52 55 55 56 58 53 50 53 51 50 48 47 47 44 35
42 37 35 35 36 37 42 44 36 34 28 28 29 31 31 31 30 27 27 27 27 27 27 35 56 49 45 47 44 48 47 49 57 58 58 53 54 55 52 51 49 50 44 41
37 31 30 34 37 41 45 44 43 42 37 32 30 30 27 30 32 30 27 29 29 31 27 29 35 57 49 49 48 52 45 51 51 60 56 53 53 54 54 53 53 49 49 47
34 32 33 37 40 44 43 41 44 44 40 33 28 29 31 30 30 27 28 29 30 30 30 31 30 31 45 55 51 47 52 55 50 46 47 51 54 46 55 56 55 53 51 49
36 36 38 39 42 44 44 45 45 45 41 34 33 32 31 31 28 28 28 29 33 31 33 34 33 32 32 32 33 40 45 53 59 55 53 57 51 45 52 53 57 57 55 51
38 39 41 41 41 42 42 41 42 43 44 42 38 37 37 37 37 35 33 31 33 39 38 40 38 36 34 31 33 35 37 42 45 44 54 72 47 37 38 54 54 55 58 56
39 40 43 44 45 47 47 47 46 45 48 45 45 43 42 40 39 42 40 34 36 42 46 45 44 42 38 38 38 37 38 38 40 41 42 53 50 45 40 50 57 46 53 55
43 45 46 46 47 49 51 51 49 47 45 50 49 46 46 46 46 46 44 38 39 42 45 47 47 46 45 43 42 42 40 39 39 38 43 43 53 47 34 39 48 47 45 50
45 47 50 51 51 51 52 52 54 51 49 50 50 50 50 49 49 47 47 43 43 45 48 49 48 47 46 47 46 45 43 42 39 38 36 39 48 46 34 34 44 50 49 46
50 52 54 54 54 54 55 54 53 52 56 52 52 51 49 48 48 46 47 48 46 44 47 48 48 48 48 47 48 48 47 43 41 35 33 26 30 48 41 25 35 37 50 50
44 45 45 45 45 44 45 47 48 53 56 57 58 55 53 53 51 46 48 49 48 46 47 48 46 51 52 50 48 50 48 47 41 36 29 30 28 39 50 37 26 35 30 32
40 41 45 46 44 43 44 44 38 40 41 45 46 53 58 53 49 48 46 47 45 46 44 42 46 48 49 51 50 49 47 47 42 39 29 32 28 23 34 39 26 33 28 29
34 35 35 41 41 35 35 33 30 33 36 34 35 48 54 51 40 37 36 43 42 44 43 39 36 34 38 41 42 47 45 44 41 39 32 30 23 21 23 26 27 31 32 35
29 35 38 36 37 37 39 36 33 31 31 36 40 40 51 52 39 39 30 29 31 37 41 38 32 29 32 34 31 32 39 41 38 37 32 32 23 20 20 21 17 18 36 48
15 23 31 34 31 28 29 24 25 28 27 27 31 43 39 39 45 48 44 31 35 38 37 40 31 31 35 31 35 34 33 35 36 35 33 37 32 25 20 23 19 21 25 32
31 37 35 34 31 33 31 28 33 32 28 19 12 29 37 36 36 38 34 28 29 33 35 33 32 31 35 35 31 31 30 32 32 34 29 33 30 29 25 22 19 23 26 29
43 43 43 41 38 36 33 35 36 33 24 11 20 22 27 26 31 41 33 29 28 27 32 33 32 38 29 32 31 30 32 33 37 30 25 29 29 30 27 25 25 28 27 28
44 40 36 38 37 36 35 36 26 19 22 26 21 19 19 25 31 31 31 35 27 33 26 30 37 31 24 29 32 33 29 30 31 26 27 29 31 30 30 26 26 31 32 32
30 35 37 35 37 35 25 25 27 24 24 22 23 22 18 20 25 26 29 27 24 26 32 28 35 36 30 27 32 36 33 29 29 28 30 31 33 32 29 25 27 30 33 33
30 36 32 34 31 34 31 30 29 26 20 22 24 17 12 13 16 22 25 23 23 29 29 32 34 34 28 21 20 33 32 22 24 24 30 32 32 32 25 24 27 29 30 33
27 27 31 33 29 27 25 24 22 13 12 14 13 14 11 12 14 19 20 23 21 19 25 31 32 30 24 19 21 24 26 26 23 24 29 35 35 35 35 31 28 29 31 34
22 20 23 22 19 17 15 15 14 14 14 13 12 13 14 15 13 15 14 17 17 22 29 32 31 25 17 20 20 22 22 22 22 19 17 21 26 28 28 29 31 31 32 34
19 17 16 15 16 15 15 16 16 16 20 18 14 12 14 21 17 13 13 16 22 25 29 31 30 26 19 18 20 21 21 22 24 21 26 28 29 29 30 30 30 30 31 33
15 11 11 11 13 17 20 21 25 19 17 15 12 14 17 19 17 9 11 15 16 21 27 25 20 18 20 21 18 18 20 24 26 28 24 16 16 16 17 19 23 26 29 30
10 11 12 16 25 23 20 15 9 9 11 8 10 16 22 21 19 14 13 12 8 8 16 24 24 21 19 19 20 17 18 20 18 16 17 18 19 21 23 26 28 31 33 35

GFSNW_500_spd_048.txt.gz
Wind_Speed
55 52 48 48 47 47 48 48 48 41 41 46 54 54 56 54 52 52 45 47 46 43 43 41 42 44 44 47 47 47 48 50 48 44 43 44 45 43 42 44 44 45 45 43
53 51 47 47 46 50 49 48 44 40 40 44 46 48 48 46 45 41 41 40 44 46 47 45 46 47 48 48 49 49 48 48 48 47 43 45 48 49 49 49 48 46 46 46
52 49 46 45 46 42 40 42 43 41 40 37 30 35 33 34 30 29 32 34 40 46 52 52 48 48 51 51 51 50 51 49 48 50 46 45 47 49 51 52 52 50 43 46
51 47 44 44 42 42 45 43 39 37 38 35 31 31 26 27 27 27 29 30 35 39 46 48 53 48 50 54 49 51 52 52 52 53 52 47 49 50 51 52 53 53 49 50
48 45 42 41 41 43 43 37 35 37 36 35 31 30 25 26 25 26 26 26 28 36 37 40 43 52 51 46 47 49 49 50 48 49 49 51 49 51 55 54 56 56 55 53
46 43 41 40 41 39 39 35 36 38 34 36 34 26 23 22 25 25 24 27 27 31 37 37 38 39 42 54 52 48 46 43 41 45 47 48 49 49 51 55 57 60 61 59
44 40 40 40 37 33 33 34 37 38 35 34 33 31 27 24 23 27 27 26 22 24 34 35 33 30 28 24 34 49 42 46 47 45 45 49 45 42 43 50 56 58 63 64
40 39 38 37 37 33 36 37 35 35 33 33 32 30 27 27 26 27 27 25 22 23 31 31 30 28 26 22 21 26 33 36 39 44 47 46 49 46 48 53 53 52 53 62
37 38 37 40 37 38 40 38 39 40 39 35 34 33 31 26 26 28 26 26 26 26 29 32 32 31 29 29 27 26 26 27 29 31 34 37 28 33 37 44 51 50 44 49
34 34 38 39 40 39 41 40 38 40 38 34 34 35 33 30 29 30 30 28 27 31 32 32 34 33 33 33 32 31 31 31 29 32 32 20 23 33 37 40 43 51 55 45
33 37 39 39 38 39 42 42 39 39 39 36 36 35 36 37 35 32 32 31 31 33 35 33 34 37 38 38 37 37 36 36 36 38 35 26 28 33 34 33 29 37 56 45
34 35 37 39 40 43 44 44 42 43 43 43 41 40 36 37 40 39 37 34 33 35 40 41 39 38 38 37 39 41 42 42 43 41 37 37 34 35 34 27 29 32 45 46
36 39 41 43 44 45 44 44 43 44 49 49 48 43 42 41 41 43 41 39 38 41 44 47 46 45 44 44 44 45 45 45 45 45 38 39 35 33 36 34 33 31 35 36
35 36 38 39 41 42 45 46 45 46 47 48 49 48 46 45 44 44 41 37 38 41 46 49 51 50 49 47 46 46 44 44 45 46 45 44 39 39 34 33 36 24 39 38
34 35 35 37 37 36 36 39 38 42 46 49 51 49 47 47 47 45 42 37 36 41 43 43 47 48 48 48 47 48 48 48 50 48 49 46 40 39 37 32 31 24 28 36
30 31 33 32 32 34 35 35 35 34 36 42 45 44 47 49 51 49 47 40 34 37 39 44 44 39 37 39 38 40 42 46 48 49 47 42 38 36 38 36 33 20 17 17
30 32 31 30 30 30 33 33 28 29 34 33 33 32 33 38 40 42 50 40 31 26 29 34 39 36 35 35 32 31 29 32 32 33 37 37 34 32 38 38 26 24 19 21
20 30 34 31 28 29 29 26 28 30 27 26 25 29 35 36 35 38 39 32 33 21 20 25 27 30 34 34 29 31 29 35 31 21 28 33 31 35 39 36 30 29 22 20
28 33 38 35 29 29 29 28 28 27 26 25 24 19 24 35 28 28 39 36 34 23 24 29 29 30 34 38 38 34 31 29 27 28 27 31 31 35 36 35 31 31 32 18
37 39 37 30 32 32 36 36 28 22 26 28 12 14 17 28 25 29 35 38 35 29 29 25 28 29 30 33 38 41 30 31 32 30 32 31 29 30 32 33 33 32 33 29
33 36 36 39 32 28 26 25 28 24 18 17 17 19 19 28 26 34 30 30 27 24 20 27 28 21 24 25 23 19 25 28 32 30 22 29 32 32 31 32 33 36 39 35
33 33 35 36 34 27 26 23 19 22 24 19 18 16 17 17 20 18 23 27 26 27 24 24 30 27 24 25 24 23 22 21 25 27 29 26 29 30 32 33 37 39 39 39
34 32 28 26 26 29 26 25 21 20 20 19 19 11 13 15 16 22 23 24 25 25 26 28 24 22 21 19 22 22 12 12 20 30 24 21 28 31 37 34 32 38 40 39
24 20 21 22 23 20 18 20 15 12 15 15 15 16 12 12 17 19 20 22 22 22 23 21 19 19 18 19 25 17 16 19 20 24 29 30 30 31 34 37 40 43 42 44
18 17 13 13 12 13 15 15 13 12 13 14 14 15 14 15 11 11 12 15 20 19 17 15 15 16 20 23 22 17 14 19 18 20 22 21 23 26 30 30 27 30 35 37
13 11 11 12 12 11 11 11 11 11 12 13 14 14 19 18 16 13 9 9 5 6 8 11 15 19 20 23 23 21 21 21 23 14 16 23 25 27 25 20 20 23 24 25
10 9 10 11 12 11 11 14 14 13 14 14 10 9 12 23 19 10 4 4 7 4 9 13 16 18 20 18 19 21 20 18 10 10 13 13 16 19 21 21 22 24 26 29

GFSNW_500_spd_051.txt.gz
Wind_Speed
65 61 56 54 52 52 52 51 51 47 45 48 52 53 53 48 44 49 51 46 40 39 38 36 37 40 38 39 39 39 41 43 43 41 39 38 40 41 41 42 41 42 42 41
64 60 56 54 52 52 51 49 47 43 45 49 52 52 50 46 40 46 49 46 41 41 38 39 39 41 44 42 43 41 45 48 47 45 42 41 43 43 43 45 45 43 44 46
61 57 54 52 51 51 50 47 45 44 48 48 46 45 43 40 33 37 41 38 37 40 43 45 44 43 44 44 45 43 45 44 45 43 44 46 47 47 48 49 49 49 48 49
59 56 52 50 50 49 48 46 42 44 40 37 34 37 37 30 27 30 30 30 28 35 43 50 49 49 48 47 47 48 47 47 45 42 40 40 44 45 46 47 48 50 49 49
56 54 52 49 49 47 46 43 42 39 36 37 37 36 30 25 24 27 25 25 27 34 38 42 52 52 52 52 50 48 50 49 48 45 42 43 43 42 44 44 47 49 49 49
49 49 48 48 46 46 43 41 40 35 33 31 32 28 25 22 25 25 23 25 27 28 34 38 38 44 50 50 49 48 49 46 45 44 40 40 46 42 43 43 44 48 52 53
44 45 46 45 44 43 42 40 38 36 30 30 28 26 25 25 23 22 19 22 24 26 28 31 35 35 37 41 43 47 45 44 45 46 44 44 43 35 32 42 44 50 56 57
37 40 41 41 41 42 41 38 36 32 30 29 28 22 21 21 20 20 18 17 18 27 24 25 29 32 31 29 28 29 34 45 51 44 43 42 38 35 35 35 38 43 47 53
34 36 38 38 39 39 39 36 32 31 31 31 25 22 20 19 20 18 16 18 21 23 25 24 26 27 27 26 25 23 19 18 23 28 26 15 15 23 25 23 29 34 44 50
31 33 35 36 36 38 36 35 31 30 35 27 22 21 21 21 20 19 19 19 21 24 24 24 23 26 26 26 25 22 20 20 19 20 19 13 19 22 23 22 23 26 28 35
27 30 32 34 36 36 39 35 32 31 31 23 22 21 23 23 22 22 19 20 21 24 26 26 24 25 25 26 27 26 26 25 24 23 18 17 21 25 26 25 24 26 26 27
27 30 32 33 34 38 40 36 33 31 32 25 24 26 27 26 27 28 25 23 24 25 29 29 27 27 26 27 28 29 29 28 28 26 24 25 29 33 33 32 28 30 31 31
25 27 30 31 33 37 39 37 34 33 34 31 31 29 30 27 28 29 26 26 27 27 30 31 31 31 30 30 30 30 32 34 33 32 30 32 35 38 37 35 33 34 37 38
25 29 31 32 34 37 39 36 35 36 35 36 34 31 30 30 28 28 26 26 28 27 30 33 34 34 33 32 32 32 32 33 34 34 36 37 39 42 40 40 38 37 38 37
25 28 32 34 34 36 38 38 37 35 34 35 32 32 29 28 27 26 26 26 24 25 30 34 37 37 37 36 36 36 37 37 38 39 39 41 42 44 44 45 43 41 38 41
24 25 27 28 29 30 32 34 36 36 36 36 36 33 31 30 29 30 29 27 26 26 29 33 37 38 39 40 40 37 37 38 40 42 44 46 47 49 50 50 49 45 36 43
27 25 25 27 28 30 29 31 24 25 27 30 31 31 30 31 32 32 32 31 29 27 27 30 32 33 36 41 39 35 35 37 40 44 46 47 47 50 47 46 44 41 34 44
28 28 26 27 27 28 28 26 26 24 23 25 26 23 24 27 25 27 29 31 31 25 25 27 24 20 25 30 30 36 38 34 34 37 40 40 38 35 33 37 38 36 39 37
27 30 30 29 27 25 25 28 26 29 30 27 21 18 21 21 21 20 20 23 26 32 37 34 25 12 21 13 18 22 29 33 32 30 36 32 29 25 29 35 37 34 32 32
31 34 33 30 28 25 26 22 23 25 25 24 23 22 18 17 20 24 21 23 25 30 33 30 29 28 20 19 22 24 29 32 33 32 34 33 31 28 26 30 36 35 29 31
43 41 34 29 31 28 28 27 24 23 23 23 21 20 17 17 19 15 19 19 25 32 35 23 25 26 21 20 21 24 21 19 27 31 36 36 35 29 25 25 30 29 29 31
31 30 31 32 31 25 26 23 21 25 26 25 24 19 19 15 21 19 16 17 21 28 26 19 18 14 16 19 19 17 20 19 20 23 26 25 27 28 30 26 26 30 32 31
33 30 31 28 27 24 22 22 22 19 24 21 20 17 18 17 20 28 24 21 18 22 20 21 13 14 16 20 23 20 17 20 18 14 12 17 20 24 24 25 26 28 34 34
23 22 20 21 24 21 21 19 20 20 19 20 16 19 18 18 23 23 20 21 20 22 23 22 18 19 20 20 19 17 14 13 17 19 18 20 22 26 30 31 34 33 35 37
20 19 18 18 19 20 18 16 16 17 15 14 13 15 14 16 19 20 19 18 19 17 14 14 16 18 17 16 14 12 12 16 21 18 21 22 23 26 27 26 27 29 30 33
13 13 12 12 12 12 14 11 11 13 14 14 14 15 12 14 16 16 14 13 9 10 16 16 17 16 16 12 13 16 22 23 21 22 24 27 25 25 27 26 23 21 22 21
8 8 9 10 11 11 11 10 10 12 14 12 11 13 14 15 10 7 5 6 10 9 10 8 4 8 13 16 19 19 19 20 23 24 18 17 17 17 19 21 22 23 24 27

GFSNW_500_spd_054.txt.gz
Wind_Speed
61 64 63 61 58 58 55 52 50 50 49 50 51 49 47 46 40 44 42 39 38 35 38 39 37 36 36 31 27 27 31 38 33 35 35 33 32 34 34 38 42 40 39 32
58 59 59 60 59 59 56 53 48 48 49 50 46 45 45 44 39 40 43 43 38 36 37 40 40 40 38 37 34 32 31 34 38 41 39 38 38 37 36 37 36 39 38 38
53 56 59 57 56 55 54 53 50 48 49 45 43 42 40 40 40 43 43 42 40 37 36 41 41 41 42 37 37 35 34 34 35 38 42 42 40 40 40 38 38 38 40 41
56 57 57 57 55 53 51 49 45 46 46 43 41 39 38 41 40 36 36 39 34 32 36 41 43 45 44 44 37 31 33 38 38 37 38 39 40 40 41 40 40 42 42 45
40 43 52 54 52 51 50 45 42 43 43 42 39 38 36 34 28 30 30 31 30 28 30 38 49 48 48 47 45 45 43 37 31 35 35 32 36 39 42 44 43 44 43 45
37 35 43 47 49 49 47 44 43 43 40 38 37 35 32 30 29 27 26 29 26 27 30 36 43 52 51 48 47 43 43 42 41 39 37 37 39 35 34 35 36 38 41 45
32 30 37 43 45 45 44 41 40 39 36 34 31 28 26 25 25 24 27 25 24 26 28 30 36 41 46 51 50 48 46 37 38 37 32 42 42 35 36 35 35 40 45 47
28 28 33 39 41 41 41 40 38 35 35 31 28 26 25 27 27 28 29 23 21 17 24 25 29 31 34 36 38 46 48 45 44 42 44 44 41 37 32 34 35 37 42 45
25 28 30 35 39 39 40 36 35 36 34 28 26 29 28 26 29 28 23 15 16 20 23 25 26 26 27 28 29 32 36 37 37 38 41 41 39 31 28 31 34 41 39 40
24 26 31 32 35 37 36 34 33 33 29 24 31 31 30 28 26 22 17 17 15 24 23 26 26 25 25 23 26 27 26 25 21 19 20 22 21 24 23 22 23 22 23 27
21 24 27 30 33 35 35 31 32 30 25 32 34 32 28 24 22 19 17 16 21 26 24 25 25 23 24 25 23 25 24 21 19 17 17 16 17 19 21 19 18 18 18 19
20 22 24 27 30 31 32 31 28 27 32 34 34 33 22 22 24 23 20 17 20 27 26 26 24 23 23 23 25 24 24 20 18 19 19 23 23 22 21 21 21 23 24 24
18 20 24 27 29 31 29 26 27 31 31 34 35 25 17 18 19 21 23 21 22 24 28 28 27 26 25 24 22 22 23 23 21 21 23 24 26 25 26 28 29 29 28 28
18 21 23 26 27 28 26 27 31 31 28 30 25 18 18 18 19 18 19 22 22 24 28 28 27 25 26 25 23 22 22 22 23 24 26 27 28 29 30 33 34 36 36 35
18 19 19 23 24 25 27 29 32 28 23 26 22 20 20 21 21 21 21 19 19 22 26 28 27 26 26 26 25 24 24 24 25 26 27 29 31 33 35 37 39 40 41 42
19 19 21 24 24 24 24 28 30 27 24 26 25 23 25 25 22 20 20 22 22 22 24 26 27 27 28 28 26 27 26 28 28 30 32 35 37 39 40 42 44 45 45 46
23 23 23 23 26 29 30 29 24 27 30 31 29 28 26 26 25 24 26 25 24 25 24 23 23 24 27 27 26 26 28 28 30 31 33 37 39 40 42 44 46 47 48 50
28 27 28 27 26 26 24 24 25 27 29 29 27 26 24 24 23 21 22 24 23 22 22 22 22 25 26 27 25 22 25 27 31 32 37 40 42 43 45 47 46 44 42 39
31 29 28 27 28 24 20 24 24 21 22 23 20 17 20 20 19 18 19 22 23 24 26 23 23 22 26 22 21 23 25 27 31 36 40 42 42 39 36 36 37 36 32 32
33 35 34 28 30 35 24 23 23 18 16 19 15 17 17 16 16 17 16 15 21 31 32 32 28 24 25 18 16 18 21 25 29 33 35 35 34 34 35 31 30 31 28 31
35 38 36 28 32 35 27 23 26 27 24 18 18 20 19 17 15 15 17 15 20 23 24 33 38 33 27 27 27 24 23 25 24 25 27 29 31 34 31 31 31 29 29 31
31 31 32 29 31 30 30 20 20 20 22 20 19 18 19 15 19 13 13 14 17 20 22 27 35 29 22 21 21 21 22 18 18 21 22 25 28 26 25 25 27 29 35 31
36 38 34 32 28 28 21 16 14 17 20 19 20 21 18 18 21 17 13 13 12 12 18 24 25 20 17 12 16 16 21 21 19 19 22 23 24 24 21 23 25 30 29 28
27 29 25 22 21 18 16 18 17 21 23 22 20 22 16 20 23 12 26 12 12 12 14 17 15 15 20 16 16 18 18 21 21 22 19 18 22 24 25 27 29 31 34 34
23 20 20 20 21 21 20 20 22 23 23 22 20 18 21 20 12 15 17 15 18 16 16 16 17 17 20 20 19 20 21 21 20 17 19 23 26 27 30 30 32 34 35 35
18 20 19 20 22 22 21 21 19 17 17 14 17 18 18 17 17 18 19 19 16 12 15 17 20 21 21 21 22 20 18 18 20 23 25 28 30 28 26 25 24 22 22 23
16 15 16 15 15 14 13 14 15 16 15 14 14 14 12 13 15 14 13 12 14 13 16 18 18 17 19 19 20 22 24 22 19 20 24 26 25 22 21 22 24 25 27 28

GFSNW_500_spd_057.txt.gz
Wind_Speed
50 49 47 48 52 55 56 55 51 50 49 51 52 51 44 42 39 39 35 35 32 30 31 32 32 34 34 32 29 23 23 28 26 23 26 32 32 37 37 40 27 31 28 24
50 49 47 47 47 50 52 55 52 50 51 51 49 47 44 42 39 37 38 37 35 32 30 31 33 35 38 34 32 28 27 24 23 18 28 30 30 28 28 34 34 29 26 34
45 43 42 42 43 45 50 52 52 51 52 49 46 45 44 41 39 37 37 37 37 36 34 34 34 35 38 36 34 33 32 25 23 27 20 20 25 30 29 30 32 31 28 19
41 41 41 41 42 44 47 51 49 48 49 47 46 45 42 40 38 36 36 36 36 35 36 37 36 37 40 38 33 31 33 31 26 29 35 35 28 32 30 31 30 29 26 29
40 39 38 39 42 44 53 49 47 46 44 43 45 44 42 38 36 33 34 33 33 35 36 36 34 38 43 42 42 35 34 31 35 34 31 30 33 34 35 34 34 32 36 39
37 37 37 37 38 40 43 47 46 46 45 42 42 40 38 35 33 32 30 28 26 26 23 31 34 42 46 47 46 45 37 32 35 30 27 30 35 31 32 32 34 35 36 29
33 35 36 36 36 34 37 42 44 45 42 41 38 37 35 33 31 29 27 27 25 26 27 29 32 38 45 49 47 47 50 40 33 30 30 28 26 33 29 29 28 29 33 36
32 32 32 33 31 30 36 36 35 41 40 37 34 32 31 30 30 31 31 29 27 27 25 27 32 32 37 42 47 49 50 50 51 47 47 39 40 40 32 31 28 35 35 44
29 30 29 29 27 31 37 37 34 38 36 33 32 32 31 29 28 30 31 30 28 28 30 26 27 25 24 27 32 44 51 49 48 38 39 41 39 40 32 32 30 42 41 40
26 26 26 26 27 30 35 35 35 37 35 31 30 29 27 28 31 31 30 30 32 21 17 24 23 24 25 23 24 27 37 40 44 46 43 41 43 46 36 35 34 41 34 36
22 23 24 25 28 30 34 32 34 34 30 28 30 29 31 33 34 27 30 27 28 22 24 24 21 23 23 24 19 20 23 26 27 29 26 32 24 24 26 32 39 34 25 22
19 20 21 24 28 30 31 32 31 29 26 29 29 32 35 36 31 30 29 22 24 26 28 20 21 21 21 20 24 18 21 21 23 24 23 18 19 21 19 23 25 24 23 23
16 18 20 23 27 29 28 28 26 27 29 30 31 33 34 32 29 29 25 27 22 23 25 22 20 18 18 18 24 24 17 14 22 21 19 15 23 20 19 21 22 25 27 27
15 17 21 23 25 24 27 27 26 26 24 30 31 34 30 25 25 27 26 30 31 28 23 23 22 21 18 17 22 26 27 26 26 26 24 27 24 25 23 25 26 27 28 30
15 17 21 23 24 24 25 26 26 25 26 28 29 31 26 20 21 23 25 29 28 29 25 27 24 18 20 20 18 21 24 25 23 24 24 25 26 24 23 27 28 30 32 34
17 17 19 20 21 23 26 28 26 29 32 32 27 23 22 16 17 18 21 26 30 29 29 29 28 24 20 18 23 21 24 24 23 22 23 25 26 27 27 31 33 35 38 40
20 22 19 19 23 23 24 21 26 29 27 25 21 15 12 15 16 16 19 21 23 24 26 29 27 25 25 25 22 24 24 24 25 26 26 27 27 29 31 34 37 39 41 42
23 22 22 23 22 22 25 27 28 25 21 21 16 12 14 16 19 19 21 24 24 24 25 24 23 25 26 26 23 23 21 23 25 25 27 29 30 32 34 36 38 41 43 46
27 26 25 23 25 25 24 24 23 22 22 22 19 15 15 18 20 21 22 24 27 26 25 22 24 23 27 22 16 20 23 25 24 24 27 29 30 33 36 39 41 42 39 37
30 30 30 28 27 24 22 22 22 22 21 19 15 17 15 18 20 20 22 24 26 27 28 27 28 28 25 22 19 17 19 21 24 26 25 28 31 34 37 38 36 34 34 32
33 33 31 30 31 25 21 25 23 22 21 20 18 17 17 17 16 18 19 19 20 23 24 30 33 31 29 24 20 18 18 20 22 26 29 31 33 32 29 31 34 39 39 32
40 32 35 41 35 33 30 28 26 23 20 20 21 21 19 20 21 16 16 14 19 19 23 29 32 27 30 28 24 26 26 27 29 28 23 26 28 29 28 28 29 32 31 32
30 27 37 33 32 30 23 22 23 21 18 18 19 20 21 21 24 20 14 14 13 15 20 24 24 23 26 31 26 22 24 26 28 27 29 27 27 26 28 28 28 28 31 33
25 24 25 28 28 22 18 11 11 15 17 17 18 19 22 18 18 21 15 12 11 12 10 9 14 16 19 20 21 23 24 26 26 27 29 28 27 27 26 27 28 30 33 34
30 27 23 21 16 13 11 13 16 17 17 16 18 18 16 10 11 14 15 17 17 12 11 12 10 15 19 20 24 26 26 25 25 27 27 28 29 30 32 33 33 35 36 36
14 16 17 15 16 16 17 16 16 17 19 19 18 17 14 19 14 15 17 17 13 12 10 11 15 20 23 24 25 26 26 27 27 27 27 28 30 29 29 31 29 27 25 24
16 16 18 20 18 17 17 17 15 17 16 17 16 14 18 17 17 15 14 14 16 17 18 16 16 18 21 23 26 26 27 27 27 29 30 30 30 31 29 29 29 29 30 31

GFSNW_500_spd_060.txt.gz
Wind_Speed
63 62 68 58 49 47 46 44 41 46 48 51 51 47 45 46 42 42 36 34 34 33 32 30 26 27 30 25 24 21 22 22 20 15 21 18 34 37 39 40 36 34 38 27
64 64 55 47 45 45 44 42 37 40 42 45 48 45 45 47 44 41 36 35 35 33 33 31 28 27 29 26 26 25 24 24 19 17 20 17 21 33 39 42 34 31 33 30
61 50 45 44 43 41 39 38 37 36 41 42 41 42 44 45 42 38 37 36 36 35 34 32 30 29 30 26 25 28 28 24 23 17 17 24 18 18 29 38 34 36 33 32
43 41 39 37 35 35 36 35 31 33 28 40 42 41 37 33 40 37 36 37 36 35 34 32 32 30 31 30 28 31 29 26 27 27 20 27 24 16 20 36 33 30 37 35
33 32 32 33 35 38 39 35 30 30 32 27 26 35 38 37 22 29 34 34 32 31 30 30 28 31 32 33 31 34 30 32 29 29 27 30 26 27 28 28 31 32 23 31
29 30 31 33 35 37 37 32 30 33 33 31 31 25 28 36 33 25 24 28 28 29 24 28 31 32 32 34 33 36 33 34 34 29 32 35 29 32 30 18 24 29 29 26
29 30 30 31 33 35 34 31 28 32 31 35 25 31 20 21 31 33 31 21 24 25 23 25 27 29 31 35 35 36 39 34 27 32 32 32 27 32 34 36 27 28 30 28
27 28 28 30 30 33 32 29 27 27 31 30 28 23 30 24 17 28 31 32 24 23 25 21 25 27 31 32 35 37 40 48 45 29 22 17 24 29 29 29 27 25 28 29
24 26 26 28 29 31 32 26 27 28 25 29 27 26 22 25 29 24 28 29 19 25 22 26 25 20 18 21 24 30 37 47 53 45 29 30 18 18 19 25 17 23 32 38
22 24 25 26 26 29 28 24 26 34 32 27 27 23 29 28 25 19 18 21 22 25 26 26 18 12 16 17 15 20 21 36 53 49 38 33 29 25 35 31 29 35 40 41
27 24 23 24 24 24 24 23 32 35 27 26 29 30 31 31 25 19 19 23 22 24 25 21 20 17 20 20 15 10 16 20 37 54 47 47 41 35 41 42 41 42 43 45
26 24 24 23 21 22 22 27 29 29 25 26 29 31 30 33 31 27 26 24 20 22 25 25 15 18 20 19 21 18 21 12 20 33 44 49 49 51 50 49 37 36 38 42
22 23 21 20 19 20 21 26 27 23 23 28 28 27 28 32 31 33 31 28 23 22 22 20 20 22 19 18 19 21 14 11 16 20 24 29 27 28 33 35 35 36 40 37
16 16 16 16 18 21 23 23 24 24 23 24 21 28 28 27 31 31 26 29 28 22 19 20 22 21 18 16 19 20 18 11 17 20 21 19 21 27 25 25 24 26 28 28
11 12 14 16 20 24 25 25 24 22 16 21 25 23 26 28 29 28 28 29 31 28 28 25 26 21 18 17 18 18 25 14 18 27 18 27 23 18 25 26 27 28 28 29
11 14 17 22 25 27 27 26 24 20 20 23 20 23 23 24 24 25 27 28 35 34 28 26 26 23 19 18 16 20 22 27 25 26 27 29 29 26 26 26 28 29 28 29
15 18 20 22 23 24 23 21 20 25 28 25 22 17 20 19 19 24 27 29 33 31 28 26 23 21 25 19 19 17 20 22 26 29 28 27 28 28 29 28 29 29 31 33
20 22 24 24 21 22 23 23 22 30 32 26 24 16 11 17 21 25 26 28 31 33 32 28 25 24 18 23 24 23 23 26 26 29 29 29 30 29 29 29 30 31 33 35
24 25 25 23 22 20 23 25 24 32 31 28 22 18 10 17 21 19 19 24 26 29 31 31 28 27 28 27 22 22 22 26 25 28 28 28 28 28 27 28 28 30 33 38
25 26 25 27 27 24 23 26 26 24 24 22 17 15 12 12 16 20 20 22 24 26 24 24 26 26 27 25 25 20 22 24 25 23 24 24 24 24 25 28 31 33 36 37
29 26 23 26 29 24 23 23 23 23 21 19 18 16 12 14 16 19 18 19 21 23 23 26 28 28 27 26 22 22 25 23 24 24 24 22 23 26 28 31 32 30 30 31
27 25 32 34 30 25 23 25 23 19 16 17 16 16 12 15 12 11 11 12 17 18 17 22 28 29 27 25 26 25 26 24 25 23 24 28 30 29 28 29 31 32 31 33
36 37 31 29 30 27 25 26 20 16 13 16 14 15 14 16 18 15 12 11 12 15 17 20 21 23 22 25 28 29 31 31 30 30 30 28 30 31 33 33 34 31 31 33
35 37 33 27 24 19 10 10 9 13 14 15 16 17 17 15 16 17 14 10 10 10 4 2 9 18 24 26 30 33 29 32 29 29 28 30 32 33 35 36 34 34 35 35
37 32 27 18 13 13 14 14 13 14 16 16 15 16 15 16 14 15 15 14 12 9 7 10 12 13 17 20 21 21 21 23 26 27 29 31 32 34 34 33 33 34 37 39
27 28 20 14 15 16 15 12 13 12 14 16 16 15 15 9 13 11 13 13 11 15 13 12 11 13 14 14 17 19 21 25 29 32 31 32 32 31 31 33 34 36 35 34
16 15 15 15 17 16 15 13 13 14 16 15 15 16 13 9 14 9 11 14 15 15 15 14 15 17 14 17 21 24 26 28 30 30 29 29 30 32 34 35 35 36 36 35

GFSNW_500_spd_063.txt.gz
Wind_Speed
58 59 60 63 65 65 61 57 63 49 45 43 41 41 42 42 40 40 44 44 38 36 35 34 31 29 30 26 19 20 18 14 15 14 14 18 25 23 28 45 44 39 31 35
60 64 67 68 68 67 65 59 44 37 37 38 32 31 37 42 42 39 42 44 40 36 36 35 33 29 32 32 26 23 22 18 15 14 15 16 22 24 28 39 45 44 39 37
65 69 71 65 54 47 42 36 32 33 32 30 28 29 28 36 39 38 38 41 40 38 38 35 32 31 33 30 27 24 24 20 18 17 18 13 20 19 32 36 42 37 43 43
65 55 42 37 34 33 32 29 25 24 24 23 31 31 28 23 24 36 36 37 36 36 38 36 36 35 34 30 29 26 24 22 21 19 20 17 24 24 25 40 39 41 30 36
41 37 33 26 27 27 26 23 21 23 21 22 15 19 27 30 20 17 21 34 35 35 36 38 37 35 35 32 31 27 24 24 23 20 23 24 23 16 20 25 36 41 35 42
36 31 26 25 24 27 26 24 24 25 23 23 26 21 18 24 31 25 20 18 32 34 34 37 36 36 34 32 32 31 26 25 26 24 25 27 26 22 22 27 28 38 29 23
27 25 26 26 27 26 24 24 26 28 24 26 22 29 25 19 19 32 26 24 25 28 27 24 30 33 31 30 31 30 27 24 27 26 26 29 27 25 27 29 26 26 12 24
27 25 24 24 24 24 24 24 27 29 28 27 25 26 35 24 9 20 35 30 27 25 20 23 20 20 26 26 25 27 28 28 27 31 26 30 27 26 30 30 27 26 28 31
24 21 20 20 20 20 22 23 26 29 27 22 24 32 40 34 21 14 20 31 32 29 28 25 22 18 17 18 20 22 26 27 31 31 32 26 22 31 34 35 35 38 35 30
18 13 12 15 19 21 20 22 26 30 27 20 29 35 25 35 27 24 15 22 28 29 27 25 24 18 15 14 10 11 14 15 25 33 43 34 22 21 22 33 37 39 38 37
17 12 19 21 19 18 20 20 26 30 18 24 30 31 32 33 29 30 22 18 19 26 26 27 22 15 14 15 14 9 16 13 14 24 42 51 31 26 24 26 28 28 30 30
13 16 18 26 20 20 21 20 26 26 32 30 32 32 35 37 26 30 24 18 21 22 22 22 19 17 15 15 14 15 12 15 8 13 17 38 44 40 30 25 25 30 33 35
15 16 20 24 24 22 19 21 23 23 32 30 28 30 30 39 35 34 31 21 25 24 19 22 18 13 11 12 15 14 17 14 13 10 14 26 34 37 48 45 43 42 43 42
21 19 21 22 26 21 18 17 22 25 29 25 20 29 32 32 35 34 35 28 25 20 19 15 15 16 13 15 15 15 15 13 14 13 15 17 26 34 30 34 34 37 42 43
17 16 15 16 18 18 20 22 26 22 18 21 26 26 27 28 29 30 31 30 29 24 23 23 14 14 15 15 14 17 16 2 10 20 24 27 22 30 32 22 33 31 28 30
12 11 10 12 18 23 24 25 22 19 20 20 17 20 22 22 23 26 26 26 29 26 24 27 20 20 13 19 16 18 22 18 12 19 19 21 25 28 28 43 16 25 24 26
10 11 11 15 19 20 19 18 19 20 19 19 16 14 14 16 18 20 24 24 28 23 28 26 22 21 20 20 21 16 17 17 17 18 26 25 26 26 24 22 19 24 28 30
14 17 18 21 26 27 25 23 21 22 27 26 24 21 10 12 12 13 19 22 25 24 32 27 23 24 25 24 20 19 23 17 21 25 27 28 27 26 25 24 26 28 28 31
20 23 24 25 24 23 23 24 27 30 31 29 29 23 12 6 13 14 15 20 22 22 27 32 28 26 26 27 24 26 27 27 26 27 28 29 29 30 31 31 32 32 31 31
23 26 26 30 28 27 25 30 36 33 33 25 24 22 17 14 15 16 15 16 20 26 24 31 34 32 30 27 26 22 22 24 32 33 32 30 31 32 32 32 32 32 31 33
23 26 27 27 27 26 24 28 34 32 29 20 22 21 18 17 16 18 18 16 14 16 17 19 23 22 24 24 24 24 25 25 27 28 29 29 28 28 29 30 30 32 34 35
25 28 30 27 24 20 22 25 30 28 25 20 20 20 18 15 11 11 15 13 13 11 13 18 21 21 23 23 24 23 24 24 25 28 29 27 27 29 29 30 33 36 35 34
23 26 29 29 25 24 22 21 21 21 18 20 18 16 18 14 17 15 15 12 12 11 13 11 7 11 13 16 20 23 25 28 30 32 32 32 31 30 33 33 33 33 34 35
25 30 31 26 20 14 12 12 16 17 16 21 18 17 14 11 17 16 14 10 9 8 2 2 7 9 12 16 20 23 26 29 30 30 29 34 30 30 31 32 33 35 36 37
33 31 24 22 16 16 18 17 16 15 14 13 13 13 12 13 13 14 14 14 10 4 4 7 10 11 11 13 15 18 21 23 24 21 22 26 29 29 31 32 34 35 36 36
25 20 16 15 14 13 13 11 10 10 10 11 12 11 11 12 12 10 9 9 6 6 10 11 13 16 15 14 15 15 16 17 19 21 23 26 30 33 35 36 34 34 34 34
26 22 14 10 12 13 11 10 8 7 8 9 11 11 11 7 7 7 4 5 9 11 11 13 16 16 17 17 16 17 19 21 24 26 28 29 30 30 32 33 34 34 34 34

GFSNW_500_spd_066.txt.gz
Wind_Speed
49 51 54 52 52 54 56 57 58 64 63 60 56 53 44 38 35 39 44 43 47 49 37 37 36 38 34 27 21 22 24 20 19 15 11 7 20 27 32 38 43 34 33 30
53 53 52 53 58 61 64 68 64 54 49 49 41 33 30 32 32 37 45 47 45 48 45 44 40 37 34 30 27 25 24 21 20 20 17 13 13 27 28 32 47 43 34 35
52 52 55 57 60 57 47 39 28 27 26 24 23 19 21 23 27 33 40 45 51 47 41 44 43 40 38 33 31 29 30 26 26 21 20 18 11 18 23 31 31 44 44 40
52 55 58 58 46 36 34 28 19 18 16 20 24 25 23 20 20 22 32 37 44 44 44 42 43 44 40 37 34 32 30 27 28 26 24 26 18 14 23 26 32 40 42 46
54 59 51 42 36 33 28 22 15 16 15 16 17 30 30 24 21 20 21 31 34 37 39 37 42 42 41 37 34 32 31 28 30 28 27 28 26 23 11 23 28 39 38 42
56 43 35 30 27 25 20 16 16 17 17 20 19 18 31 32 28 26 24 15 24 31 33 31 33 36 41 37 33 31 30 28 30 29 29 30 28 24 19 16 22 24 36 41
40 33 28 26 25 24 22 20 20 21 18 21 22 23 21 22 27 36 22 19 14 26 32 30 23 28 35 34 32 32 31 29 29 28 28 29 25 23 28 26 23 30 32 29
36 31 28 26 25 24 23 21 21 21 20 23 25 29 29 22 21 28 31 24 20 11 27 26 29 24 30 29 28 31 30 30 29 28 29 27 24 23 28 22 24 23 23 35
29 23 22 21 21 21 20 16 19 21 21 23 27 27 24 28 22 21 33 30 21 24 20 23 23 24 23 26 27 27 29 30 30 29 30 30 22 26 27 29 33 25 21 21
22 19 17 15 12 12 15 17 17 21 21 24 27 26 27 23 32 18 24 35 31 25 22 24 23 22 21 21 19 23 27 29 29 28 31 31 31 29 30 29 29 30 31 31
17 13 16 17 11 12 12 13 17 20 21 21 27 26 23 28 44 29 17 22 23 32 29 25 25 26 23 19 17 16 11 17 17 19 29 34 32 29 26 33 30 28 32 31
16 12 12 15 13 16 16 13 16 19 22 22 24 23 37 26 41 25 19 19 14 11 23 27 27 21 20 17 22 19 9 9 11 13 14 23 31 37 24 25 34 30 27 22
17 16 14 14 19 17 24 19 20 20 20 22 23 20 33 33 35 34 24 23 20 17 21 25 25 21 20 17 14 16 10 14 12 15 11 14 18 36 39 25 29 34 32 33
21 20 20 19 18 20 26 23 22 19 19 20 28 29 31 38 35 35 30 27 17 18 22 20 22 20 14 10 9 13 13 16 13 19 13 13 11 27 27 34 38 33 32 33
17 18 22 24 22 24 25 27 17 17 18 27 30 31 34 40 38 39 37 29 24 20 20 20 21 11 6 10 11 16 16 17 11 22 19 19 17 17 29 20 22 25 35 32
14 15 16 17 17 19 24 16 17 21 24 26 27 35 36 43 39 38 38 32 22 22 24 24 20 11 5 9 14 14 14 12 7 8 18 25 18 27 23 31 21 21 27 36
13 13 10 8 9 11 13 21 23 25 20 19 19 20 22 24 30 34 34 30 24 26 24 17 21 17 15 6 16 18 14 11 14 13 11 25 25 13 34 32 26 26 24 28
13 10 9 13 24 28 29 26 24 22 20 20 22 20 17 15 17 19 22 22 24 25 20 16 23 20 16 16 15 18 18 17 15 17 21 21 23 22 16 19 21 25 26 24
13 13 15 26 28 27 25 25 25 27 32 28 28 24 20 16 8 12 13 18 19 24 20 17 22 22 19 19 21 20 20 20 20 20 23 24 23 23 22 21 23 26 28 29
12 18 23 27 28 27 25 27 34 35 31 24 29 27 24 16 14 10 9 12 15 20 23 23 25 28 25 23 24 26 26 24 23 25 27 30 30 28 27 27 29 30 31 31
21 27 28 26 27 26 27 31 39 36 28 28 26 27 26 21 20 15 12 6 11 15 18 18 19 21 26 28 27 26 26 26 28 28 28 29 31 34 34 33 32 31 30 31
23 23 24 27 26 26 28 32 37 33 30 26 21 20 20 20 21 19 13 12 11 10 11 14 12 13 17 21 23 24 24 25 27 29 31 32 33 33 33 33 33 33 34 36
28 26 24 24 21 21 21 26 35 27 21 21 19 16 16 16 15 17 15 13 14 11 7 5 9 13 15 16 17 20 24 26 28 26 29 31 30 31 33 34 33 33 35 37
31 28 28 22 20 20 19 22 26 24 20 17 17 18 16 14 15 17 13 12 9 5 5 9 11 7 7 8 9 11 13 17 21 25 28 31 32 31 31 34 37 37 36 36
24 23 20 20 19 17 17 21 22 22 20 20 17 15 14 13 13 18 15 13 8 6 10 6 6 9 10 12 11 11 12 13 13 14 17 19 21 24 26 27 31 35 36 38
23 22 21 18 17 18 20 18 18 16 18 18 16 15 13 11 11 10 10 7 8 12 9 8 10 10 12 14 15 16 17 17 18 20 22 23 25 28 29 31 33 35 35 35
22 20 17 15 14 15 14 12 10 9 9 11 13 11 9 6 7 8 8 8 10 8 10 12 13 14 15 16 19 19 19 20 21 23 24 25 27 28 30 31 33 35 36 35

GFSNW_500_spd_069.txt.gz
Wind_Speed
36 39 41 44 47 50 54 53 51 57 58 60 61 62 58 55 50 45 45 41 40 46 38 44 38 39 38 29 29 29 26 27 28 21 21 17 19 26 28 21 26 29 31 33
39 41 44 48 52 53 51 52 56 61 58 52 51 43 39 44 44 45 45 42 45 51 54 40 41 41 38 39 32 27 27 28 25 22 23 21 16 22 25 28 23 29 30 27
41 44 47 51 51 52 54 58 49 39 35 32 27 18 19 21 31 36 37 40 44 50 53 53 39 41 40 40 38 34 32 31 28 21 23 23 20 18 24 27 28 25 34 34
42 46 49 50 53 57 54 42 32 32 27 23 20 28 21 16 16 19 19 29 39 48 51 44 51 38 39 45 42 36 35 34 34 26 26 25 26 19 20 26 25 30 26 40
44 48 48 52 55 46 36 29 26 24 22 20 18 20 26 22 22 17 17 24 33 40 51 45 37 46 50 44 37 37 37 35 34 31 28 28 28 27 22 18 26 28 30 39
46 46 49 48 42 35 29 22 18 18 15 17 17 15 23 30 26 21 24 20 27 37 37 43 46 43 39 43 41 33 28 35 33 30 31 28 28 30 32 21 18 20 28 32
45 46 45 40 37 29 24 22 20 18 14 16 16 16 15 28 32 23 25 21 20 23 32 37 43 37 40 41 39 38 34 34 33 30 29 27 25 30 34 29 26 20 24 26
43 44 36 34 28 23 23 22 21 19 15 20 21 21 22 17 22 28 29 27 21 10 19 29 27 29 33 28 32 34 31 32 31 31 28 26 22 29 30 35 28 24 20 26
43 36 32 26 21 21 20 20 20 20 19 21 25 26 27 23 20 20 18 33 13 10 10 23 27 26 24 33 26 27 30 32 31 30 28 28 23 27 30 33 30 22 18 18
37 29 26 22 19 17 17 18 18 18 15 19 24 27 28 30 25 19 16 23 21 9 11 10 23 27 27 25 22 25 29 30 30 28 29 29 24 27 27 29 25 23 20 25
30 25 19 17 14 13 14 9 9 14 15 18 24 27 29 28 26 28 20 16 32 20 17 15 21 20 22 21 20 24 26 26 26 26 28 29 20 25 32 31 24 21 19 21
25 21 17 15 13 12 11 11 11 9 11 14 22 27 27 27 30 29 22 18 19 26 26 20 22 19 21 18 17 17 14 10 15 18 22 26 23 27 31 30 27 19 13 16
23 20 18 17 16 16 16 15 17 17 17 16 20 26 31 28 30 33 30 21 22 20 27 22 25 22 20 21 18 20 19 4 9 14 15 18 20 26 30 35 33 29 28 26
23 23 22 20 18 17 19 23 18 22 18 16 20 28 24 29 33 37 32 24 22 21 21 22 26 22 19 19 16 18 18 12 14 15 18 12 12 22 27 41 34 28 34 41
22 20 19 18 19 17 21 25 19 22 25 17 24 20 21 32 30 36 33 33 18 25 17 18 22 21 22 19 16 17 12 20 17 19 22 15 14 13 19 23 25 34 30 38
17 16 16 15 19 28 26 24 24 25 18 19 22 22 25 22 34 38 35 24 22 17 14 18 26 27 5 11 16 14 14 16 15 12 19 14 16 22 14 21 18 16 29 40
15 15 15 13 16 17 22 21 20 16 13 15 19 20 21 25 33 30 31 26 24 16 17 21 22 19 9 9 11 14 16 12 8 12 9 18 25 17 17 25 31 31 22 16
14 14 12 13 12 15 17 19 18 16 14 15 20 24 26 34 34 33 31 30 25 17 19 22 14 16 12 9 8 10 15 15 15 13 16 18 16 21 24 11 19 31 25 28
12 11 11 10 16 21 21 21 20 20 20 21 21 21 20 23 27 28 26 31 26 23 22 20 15 16 16 12 14 13 12 13 17 16 18 19 18 18 18 17 17 18 30 25
11 13 12 17 25 23 24 25 24 29 32 26 25 25 18 18 15 14 14 18 19 20 19 18 15 14 18 19 18 17 18 18 19 20 22 23 25 25 25 24 22 22 24 26
15 18 16 23 25 26 28 31 35 32 26 26 25 22 20 20 15 10 12 17 15 18 19 20 19 13 16 20 22 22 20 19 21 23 24 26 27 27 27 25 25 26 27 28
21 19 19 24 27 29 32 38 34 26 29 30 27 23 25 24 20 16 13 9 9 10 12 14 15 16 17 19 22 24 25 25 23 23 25 26 27 27 29 30 30 29 29 30
23 23 23 25 26 31 35 38 30 29 27 25 23 22 22 21 18 17 13 9 9 8 6 7 12 14 16 16 16 16 17 20 24 27 29 29 30 31 32 33 33 34 34 34
24 22 23 23 23 25 33 31 28 26 25 21 18 16 15 13 14 15 12 9 6 6 8 13 10 9 9 8 8 8 9 11 13 16 19 23 25 27 30 33 34 35 36 37
21 22 20 20 21 25 35 34 29 23 19 16 14 12 11 9 7 9 8 7 7 7 11 9 5 4 7 10 12 12 14 14 15 16 16 16 17 19 20 21 23 25 29 31
24 24 25 22 20 22 25 30 28 21 17 14 11 10 8 7 5 4 7 8 10 14 14 11 7 11 15 15 15 16 17 19 22 23 23 24 25 27 28 30 31 33 36 37
23 23 22 18 18 21 21 22 20 15 11 12 12 11 10 7 9 10 11 12 14 15 12 11 15 17 19 19 19 19 21 22 24 25 26 27 29 30 31 33 35 36 36 37

GFSNW_500_spd_072.txt.gz
Wind_Speed
29 30 31 34 35 38 40 43 47 50 51 53 53 54 57 59 59 60 59 56 52 46 45 42 42 40 39 36 36 35 33 35 30 25 24 23 24 24 22 18 15 18 20 20
30 31 33 35 38 40 43 47 51 52 54 56 59 58 52 50 49 48 50 55 56 51 48 44 42 36 38 34 31 34 31 27 28 25 28 22 25 25 25 25 21 18 18 21
31 32 34 37 40 43 46 49 53 57 56 53 46 36 33 34 27 20 31 37 46 49 49 46 42 36 33 30 34 41 27 29 28 23 25 25 24 24 23 10 16 17 18 18
31 33 35 38 42 45 48 50 52 49 42 38 33 29 26 19 15 5 11 14 23 39 46 47 44 46 31 34 32 43 37 36 33 28 25 25 25 28 25 23 16 17 22 24
32 33 36 40 43 47 48 48 43 36 33 29 25 23 20 16 18 15 11 11 18 24 37 41 39 52 51 33 24 44 37 35 35 32 32 29 25 27 29 29 27 24 22 26
33 35 38 41 44 44 44 40 34 27 23 21 18 18 17 17 20 19 13 17 9 18 24 33 37 39 40 27 29 21 31 39 38 35 34 29 27 29 29 30 24 26 23 29
34 36 38 41 41 42 37 32 25 23 22 21 20 15 15 18 20 23 20 20 20 16 19 25 32 45 37 33 33 34 33 30 28 29 26 26 22 29 28 29 28 23 18 19
34 37 38 41 40 36 29 22 22 23 20 20 20 19 16 16 13 22 24 20 16 16 6 16 26 41 41 34 33 27 28 41 40 34 29 28 21 27 27 28 30 28 24 17
35 36 38 39 38 31 25 23 25 24 21 20 21 21 21 18 15 15 27 28 25 16 2 10 23 27 38 31 29 28 30 34 35 37 32 29 20 26 25 25 25 27 26 26
34 36 37 37 32 27 21 21 20 18 18 18 19 19 22 21 19 14 15 13 13 14 9 6 24 26 26 26 29 27 25 27 30 30 30 28 18 22 26 23 22 26 25 24
34 35 35 33 28 23 19 16 14 13 12 13 15 16 20 22 22 19 16 13 10 18 7 6 8 22 26 26 26 26 25 23 22 23 25 23 19 22 25 24 22 22 20 19
33 33 33 28 23 19 13 14 12 10 6 8 11 13 19 23 24 25 22 16 5 10 13 10 7 13 17 18 18 17 16 16 13 17 18 18 16 20 23 22 23 23 18 17
31 31 29 24 21 19 16 13 15 12 10 12 13 15 20 20 24 27 24 20 11 11 18 17 12 13 15 16 16 17 13 14 3 9 15 15 16 17 21 23 22 26 26 24
30 28 25 23 22 21 19 16 15 19 15 13 17 14 16 19 23 28 26 24 13 9 16 24 21 16 15 15 16 14 15 15 10 12 14 15 12 13 18 21 21 28 29 30
26 24 23 22 20 17 18 24 19 17 22 19 21 20 16 20 26 28 27 31 20 13 18 18 17 15 15 13 13 13 7 12 15 12 13 14 13 10 14 18 20 23 36 38
23 21 20 18 15 12 21 27 23 22 22 26 26 21 16 20 26 28 29 31 16 19 17 15 16 16 16 11 14 16 12 8 12 14 14 12 16 13 13 10 18 22 32 38
20 18 17 16 17 21 27 24 21 21 23 20 20 16 16 18 19 28 32 32 20 19 15 14 15 18 20 10 17 20 12 8 5 10 9 12 18 17 15 13 10 16 24 20
17 15 16 16 17 20 23 19 23 20 23 11 9 12 15 13 18 25 31 25 18 18 11 11 12 18 12 5 13 13 17 15 13 11 14 14 14 13 19 25 21 19 22 30
15 13 14 14 16 16 21 22 16 14 11 8 9 11 12 14 19 28 25 18 16 17 12 10 13 15 8 4 3 7 9 14 15 16 16 13 15 14 13 14 15 16 20 19
15 13 14 15 15 11 14 17 16 14 13 13 12 13 12 23 22 23 19 16 18 19 17 13 14 11 9 9 10 9 10 13 15 18 20 20 20 21 22 21 22 22 22 23
15 14 14 13 12 17 21 21 20 20 21 22 22 21 20 20 18 16 15 14 16 16 15 14 13 10 13 15 17 19 19 19 20 22 24 25 27 26 26 27 27 28 26 27
15 14 13 14 19 24 25 27 28 28 27 22 16 15 17 21 17 8 7 12 10 12 15 17 16 18 19 19 20 22 24 25 24 25 27 29 30 31 31 31 32 31 30 31
16 15 17 21 24 29 32 32 26 22 21 18 17 17 16 13 15 16 13 10 11 12 13 14 20 22 21 19 18 18 19 20 20 21 23 25 27 28 28 28 30 31 31 32
17 16 20 22 25 28 31 28 22 22 20 20 15 20 17 15 12 11 9 8 7 8 10 11 10 9 8 9 9 10 12 13 15 16 16 18 19 22 24 26 29 31 33 35
21 20 19 19 22 30 33 26 24 23 20 17 15 13 12 10 10 9 9 9 9 6 9 8 7 6 6 8 11 13 14 15 18 19 20 21 23 24 25 25 27 28 30 31
23 22 20 21 24 31 34 28 23 20 16 12 8 7 9 8 8 6 6 9 10 11 13 12 10 9 10 13 16 18 20 22 22 23 25 26 27 28 30 31 33 34 35 37
26 24 21 19 21 25 31 27 22 16 12 10 9 10 9 6 7 8 8 8 10 12 14 15 12 14 18 21 22 23 24 25 26 28 30 32 33 35 36 37 39 40 41 41

GFSNW_500_spd_075.txt.gz
Wind_Speed
23 22 23 24 27 27 29 33 36 38 41 44 46 48 52 54 55 55 54 53 54 52 50 48 46 44 41 41 36 31 31 34 31 26 26 28 26 24 20 19 16 7 12 17
23 24 25 26 27 28 30 34 37 41 43 46 49 52 53 50 44 38 33 35 40 43 47 51 50 46 41 38 36 37 35 30 28 27 28 28 27 23 16 17 21 16 10 12
25 25 25 25 27 28 32 36 40 43 46 49 50 48 42 35 30 27 28 26 19 22 35 44 49 47 43 35 28 31 36 25 22 19 28 28 28 23 22 17 17 19 16 16
26 26 26 28 27 29 33 37 41 43 46 45 42 38 33 25 23 21 18 6 11 15 19 22 39 45 43 34 19 30 27 32 31 21 24 20 22 25 25 24 19 21 16 20
27 26 27 26 29 32 34 38 41 42 40 38 31 25 22 21 18 15 13 10 9 18 16 16 20 41 42 39 30 22 29 31 24 25 31 29 23 23 26 29 28 18 26 17
28 29 28 28 30 32 35 38 39 37 33 25 23 23 21 20 15 14 15 16 15 10 12 11 13 28 36 45 35 21 19 24 34 34 32 31 28 25 25 28 29 29 21 24
30 29 29 29 31 33 36 38 36 30 24 20 22 23 21 19 15 12 19 17 19 16 17 12 12 20 29 43 33 25 23 21 18 26 29 32 26 26 26 27 28 28 24 25
31 30 30 30 33 34 36 37 32 25 23 24 25 24 21 19 16 11 19 19 14 16 15 14 10 16 23 32 29 25 21 21 16 26 26 25 20 23 25 23 23 24 28 26
32 31 31 32 33 34 35 34 28 24 22 25 26 23 22 19 15 13 12 21 19 20 16 11 9 9 17 29 26 19 26 20 22 21 24 21 20 20 23 20 17 23 28 31
33 31 31 31 32 33 32 28 24 21 18 18 16 17 17 17 15 14 10 15 18 19 12 10 8 15 14 28 34 24 21 16 19 24 28 26 25 25 23 21 19 21 24 25
32 31 30 31 31 31 28 22 18 15 14 12 12 15 15 13 13 15 15 11 7 9 5 6 13 15 15 18 27 28 19 17 14 15 22 26 24 23 23 20 19 20 21 21
31 30 30 30 30 27 22 19 14 10 11 11 11 12 13 12 12 15 17 13 5 4 7 5 6 8 13 14 19 25 20 19 16 19 22 21 18 18 20 17 18 19 20 17
30 30 29 29 27 23 17 17 17 12 10 11 12 13 11 13 11 14 18 17 13 5 7 4 4 5 8 7 12 17 19 21 20 9 10 14 14 16 17 17 18 18 21 21
30 29 29 27 24 21 17 15 17 15 12 11 16 12 12 14 12 13 17 17 14 11 9 9 7 3 2 6 12 17 17 19 18 11 9 13 13 13 15 16 17 19 21 24
30 29 27 24 21 19 18 17 13 16 19 18 17 15 15 17 15 13 16 19 17 12 7 8 7 7 6 7 12 14 12 9 7 6 7 9 11 11 10 13 14 16 21 25
29 26 23 21 18 17 17 15 17 18 20 24 23 21 21 18 15 15 16 19 17 15 11 11 8 7 8 8 8 12 13 7 7 7 8 5 6 11 9 9 7 11 21 23
25 22 21 18 16 16 18 17 18 22 16 28 24 27 25 16 16 14 17 19 19 15 8 9 7 12 11 11 4 16 11 13 6 6 3 3 6 9 10 7 8 7 7 18
20 19 17 15 15 17 19 21 24 24 23 21 21 13 11 12 10 14 17 20 18 12 15 9 10 12 10 10 7 15 14 9 7 6 7 9 6 5 6 11 13 15 19 17
19 17 15 12 13 17 17 20 20 17 20 13 7 8 12 12 12 16 21 23 15 16 9 5 3 8 11 5 8 15 17 15 12 12 9 8 9 15 13 11 12 16 18 19
18 17 11 11 14 14 13 11 13 13 9 12 12 11 12 16 16 21 19 12 8 11 9 6 2 12 6 2 3 9 13 15 16 16 17 16 17 18 18 18 19 19 21 22
19 13 11 11 10 10 11 13 13 13 12 15 14 13 20 18 21 19 14 11 9 10 12 9 13 11 10 7 6 8 11 12 13 17 20 21 23 23 25 26 28 30 29 30
14 14 12 10 11 13 16 17 17 15 14 15 15 14 17 15 13 11 10 9 8 6 10 12 11 13 11 10 12 12 15 18 21 22 23 26 28 30 32 34 33 34 36 36
16 13 11 12 16 18 19 19 20 21 20 18 17 18 20 21 14 5 9 6 7 5 6 8 12 13 15 17 19 21 23 24 24 24 24 25 28 30 32 34 35 37 38 38
14 12 10 15 18 19 20 25 26 21 17 15 16 13 12 10 11 7 6 4 4 3 6 10 14 17 20 21 21 19 16 16 16 18 19 20 21 21 22 24 25 27 29 31
13 11 13 18 20 21 26 25 21 18 17 13 14 12 11 9 9 9 9 8 8 7 9 10 10 12 13 11 11 11 13 16 18 20 21 23 25 26 27 28 29 30 32 33
15 16 20 21 23 27 27 21 18 17 15 12 11 11 11 10 8 7 7 7 7 9 7 8 8 9 11 12 13 16 19 22 23 25 26 27 27 29 31 32 34 35 36 37
22 19 21 23 25 29 26 19 17 15 12 8 5 4 7 7 7 7 6 7 7 8 9 10 11 10 11 15 18 23 25 26 27 27 28 30 33 36 38 37 36 36 37 38

GFSNW_500_spd_078.txt.gz
Wind_Speed
32 34 31 24 20 18 20 22 22 23 26 29 33 37 40 43 46 49 51 52 53 53 52 54 52 48 47 44 38 37 36 35 34 31 31 27 24 22 20 21 18 18 14 14
29 27 21 17 18 21 21 22 23 26 28 32 35 38 42 45 47 47 41 37 35 33 32 38 42 49 49 45 39 36 35 37 32 25 26 30 27 22 21 20 21 21 17 11
26 22 17 17 20 21 20 22 24 25 28 32 35 38 38 40 35 28 24 23 24 25 19 18 27 39 45 43 44 31 32 33 36 28 21 27 27 26 23 22 22 22 24 24
22 19 18 19 19 20 21 23 24 25 30 32 34 34 33 28 22 23 21 20 21 14 12 16 14 16 33 42 41 39 27 30 29 34 25 33 27 26 25 25 27 24 25 23
21 20 20 20 19 21 22 24 23 27 30 32 32 30 25 19 19 20 19 18 15 14 10 11 11 13 15 31 32 32 26 19 26 29 32 24 25 22 22 27 30 28 29 24
22 22 21 20 20 20 21 24 25 30 31 33 32 25 21 18 20 18 19 17 13 13 12 9 13 12 16 26 36 42 27 12 31 32 34 24 22 21 20 23 28 30 36 28
22 23 21 21 20 21 23 24 27 31 31 32 28 25 24 23 20 19 17 15 13 17 19 17 19 14 14 26 41 42 21 12 26 27 30 24 24 23 24 24 26 27 30 31
23 24 23 22 20 22 24 26 29 31 31 29 24 23 26 25 23 19 16 13 8 16 19 19 13 8 11 20 36 44 12 13 13 16 23 27 24 22 25 23 26 26 24 30
28 26 24 22 22 24 26 27 30 30 30 24 23 22 22 20 19 17 14 10 9 14 18 17 13 8 9 16 25 31 25 18 11 15 16 16 16 16 23 26 25 23 22 24
29 28 25 24 24 26 26 27 29 28 24 21 18 15 14 15 15 14 14 11 12 16 13 9 8 4 10 14 18 26 22 18 18 17 14 14 18 16 15 26 23 21 21 22
30 28 27 25 25 26 25 26 26 24 21 17 14 13 14 16 15 11 14 11 7 9 11 11 10 18 7 12 19 29 15 17 16 12 15 19 21 19 16 20 25 20 19 21
29 28 26 25 25 25 24 24 21 20 17 13 11 9 12 13 12 10 14 12 8 7 4 1 8 8 10 9 18 28 26 18 17 13 12 18 19 19 20 19 20 20 20 20
28 27 26 26 24 24 24 22 19 16 14 12 8 8 9 9 9 8 12 13 15 10 7 7 7 7 8 10 13 19 23 17 15 14 10 17 25 25 19 18 21 20 20 20
27 27 26 25 24 23 22 22 21 15 12 12 13 9 9 11 7 10 8 15 18 13 12 11 7 8 9 8 11 14 17 19 16 16 16 13 19 20 20 22 20 19 19 20
28 28 26 25 23 22 20 20 17 11 10 10 15 15 13 6 14 12 8 14 19 15 13 13 9 7 6 7 8 9 13 16 20 19 8 7 13 15 13 13 13 14 19 22
28 27 25 23 22 21 21 17 8 9 15 17 14 17 19 19 18 9 13 15 19 17 14 16 11 8 5 6 8 8 10 11 14 7 9 8 9 11 11 7 8 14 15 18
28 26 24 22 20 20 18 15 16 11 10 19 21 17 20 19 22 23 14 18 20 18 13 13 11 10 8 5 6 9 14 13 11 11 10 9 9 11 12 6 10 7 9 10
28 24 21 19 19 19 15 14 12 17 24 22 21 20 17 21 13 14 18 19 21 17 12 10 8 13 12 10 11 7 14 15 13 11 10 9 8 6 6 8 13 11 15 12
26 21 19 19 18 14 12 12 16 17 20 19 17 6 2 9 14 17 19 20 16 15 13 10 9 5 11 9 13 12 12 15 11 9 8 7 6 6 8 9 10 11 13 15
24 21 20 17 14 12 13 20 17 13 10 11 8 7 5 14 19 20 19 19 15 14 11 9 5 8 19 6 13 16 17 14 15 14 15 16 16 14 15 14 15 16 18 19
24 22 17 15 14 14 16 15 10 8 7 10 8 7 16 21 21 24 19 14 10 14 8 4 3 12 11 3 10 13 14 15 17 18 19 18 19 21 22 23 23 24 26 28
21 18 17 14 11 11 10 10 11 12 13 11 17 20 21 21 19 15 12 5 5 4 5 5 11 14 11 6 7 6 8 11 14 17 19 21 23 25 26 28 30 31 33 34
22 19 15 12 10 9 10 12 12 14 15 17 18 18 20 16 14 13 9 5 6 8 4 7 14 12 14 13 12 12 15 18 20 21 22 22 24 26 28 29 30 32 34 36
21 14 11 9 9 13 17 17 22 21 20 18 17 16 19 17 12 9 8 3 2 1 3 7 8 10 12 14 16 19 20 20 19 18 19 20 22 23 24 26 27 28 29 30
11 12 11 13 16 19 21 26 25 21 20 18 19 14 12 10 10 5 5 4 6 6 6 6 8 10 13 16 18 18 18 16 16 18 21 23 25 27 29 30 30 31 33 34
13 10 15 18 21 22 27 26 22 19 17 13 11 9 8 6 6 7 7 7 8 8 7 5 6 7 9 12 14 15 16 18 21 24 25 26 27 28 30 31 33 36 38 39
10 16 20 23 24 26 29 24 19 17 14 11 8 8 8 9 8 8 6 5 7 7 6 5 4 4 5 8 10 14 18 20 23 26 27 28 28 28 29 31 32 34 35 36

GFSNW_500_spd_081.txt.gz
Wind_Speed
24 26 27 28 28 31 30 25 21 16 16 19 21 23 26 29 30 32 35 39 42 45 47 50 52 52 50 50 52 40 37 37 33 29 27 21 27 25 20 22 20 23 22 22
23 25 29 30 29 23 22 15 13 15 18 20 21 24 27 28 30 33 36 37 37 36 33 34 32 36 40 45 52 40 40 38 33 28 25 30 32 29 26 28 25 21 19 16
27 29 30 28 22 18 15 13 17 17 17 19 21 25 27 28 31 33 32 31 29 25 22 27 28 27 31 37 44 48 43 42 36 29 20 28 25 24 28 31 28 24 23 25
29 26 25 19 16 13 14 16 17 17 19 18 22 25 26 29 29 27 27 26 23 22 21 22 16 19 19 18 30 42 40 37 38 36 36 31 22 24 24 28 27 26 22 26
28 27 20 16 15 15 16 16 16 18 19 19 23 23 26 26 25 24 25 23 22 22 20 11 11 14 18 17 13 29 40 35 28 29 33 34 34 29 27 30 30 28 27 25
31 22 17 16 16 15 15 15 18 17 18 21 23 23 25 23 24 26 26 25 25 24 20 14 13 14 14 18 22 27 33 40 21 24 28 27 32 30 36 33 33 32 28 31
29 22 19 17 17 17 16 16 17 18 20 22 23 22 23 23 25 29 30 28 24 22 21 15 15 19 21 16 24 32 32 39 38 15 33 30 37 25 18 24 24 27 29 31
26 24 19 18 18 17 18 18 18 19 21 23 22 23 24 24 25 28 27 24 20 17 14 12 13 16 13 10 21 37 34 25 18 6 27 27 22 29 16 14 18 20 25 26
25 23 20 19 20 20 19 19 20 20 22 22 22 22 23 22 22 22 22 21 16 11 7 14 16 13 8 7 19 33 29 19 9 15 20 18 19 22 20 19 24 22 24 25
26 23 23 22 22 22 21 21 20 21 21 21 20 21 20 20 20 22 22 17 15 16 10 10 10 11 7 6 12 25 30 13 10 18 17 26 26 18 16 20 24 24 25 24
24 24 24 24 23 23 21 20 21 21 21 20 19 20 19 19 19 17 15 11 13 14 15 10 13 12 6 11 13 14 24 17 11 13 15 18 18 19 18 15 16 23 26 23
28 27 25 25 24 22 21 20 20 21 20 19 17 15 15 14 15 13 8 10 10 11 9 10 6 10 7 10 11 17 20 19 14 14 14 14 15 13 19 17 14 18 23 24
25 25 24 24 23 22 21 19 20 20 19 17 14 11 11 8 11 13 9 8 12 11 9 5 5 7 6 15 2 20 23 24 19 13 15 12 14 18 20 18 17 18 20 22
25 25 24 23 22 21 20 20 19 18 17 17 13 11 9 9 5 13 11 8 14 14 14 10 8 8 6 10 9 20 11 22 24 16 14 11 12 15 23 29 29 25 20 20
25 25 24 23 23 21 21 20 17 15 17 15 13 11 14 14 15 11 8 7 16 18 18 17 10 10 9 8 6 9 14 15 21 16 17 13 13 17 14 18 20 22 19 19
26 25 25 24 23 22 20 17 17 20 13 12 16 19 18 17 18 14 10 10 14 22 18 18 15 11 9 12 9 8 10 17 21 25 18 13 12 10 11 10 11 13 14 18
29 27 26 25 23 21 17 17 19 18 18 18 18 13 17 20 18 19 14 11 12 21 20 21 17 13 9 8 7 4 8 15 15 15 13 10 10 11 12 13 12 13 20 15
31 29 26 24 22 19 16 16 15 18 23 22 24 22 21 25 23 22 20 17 18 22 17 20 18 14 10 7 6 7 4 5 12 12 13 13 12 11 14 12 11 12 13 14
31 29 26 24 21 17 16 16 15 16 17 24 20 18 16 9 6 10 16 18 22 20 16 16 15 12 10 10 6 9 5 8 14 13 11 12 9 7 6 7 9 13 15 16
31 28 25 22 17 17 17 15 15 15 23 18 11 7 5 10 11 16 18 18 18 17 15 11 9 8 13 14 6 12 11 13 13 15 11 10 10 10 12 14 14 15 16 17
29 27 25 19 18 17 15 14 15 19 12 8 7 5 12 15 21 19 19 14 14 13 9 8 5 8 12 17 11 12 15 11 9 10 13 14 15 17 18 19 21 22 24 25
27 24 20 18 17 16 15 15 11 7 8 8 10 16 18 20 16 15 18 13 9 9 5 5 6 8 10 2 8 8 7 7 9 10 13 16 18 20 23 25 26 28 30 31
25 23 21 20 18 12 9 8 11 12 14 18 21 22 23 21 17 13 8 3 4 6 3 4 7 10 11 8 4 4 6 9 11 14 17 22 23 25 26 26 27 27 28 29
26 24 20 18 13 9 13 17 19 18 19 19 21 21 16 16 14 12 9 5 5 4 5 6 10 10 11 13 14 16 17 19 20 24 26 23 22 22 24 25 27 28 29 31
25 22 19 14 13 17 19 22 23 20 17 16 19 14 15 14 8 8 3 3 3 4 6 7 9 11 12 13 15 18 20 22 23 20 19 21 24 27 29 30 31 32 33 34
20 17 13 13 19 22 26 25 24 21 20 18 17 16 11 9 8 6 5 8 7 8 7 7 7 8 9 12 13 14 14 15 17 20 23 26 27 28 29 30 31 32 34 36
17 9 11 19 24 28 28 24 22 20 18 14 12 10 8 8 7 6 7 5 4 4 4 4 3 3 3 5 7 10 13 16 18 20 23 25 28 30 31 33 34 35 37 39

GFSNW_500_spd_084.txt.gz
Wind_Speed
29 31 33 33 29 31 30 23 22 21 20 19 15 15 17 19 20 22 24 25 27 30 33 36 39 41 45 48 52 52 50 46 39 35 29 26 24 18 22 21 20 22 23 22
27 28 28 29 29 27 25 22 21 19 16 15 15 17 19 20 21 23 23 26 28 31 33 34 35 35 38 40 40 42 50 47 41 34 30 29 30 27 23 27 26 21 25 19
25 27 30 26 26 26 20 20 16 14 14 15 16 17 18 20 22 21 23 26 28 29 30 31 30 30 34 33 32 35 37 39 45 40 26 32 30 30 27 32 32 30 27 25
27 28 28 26 24 21 20 18 14 14 13 16 16 17 18 20 20 21 23 25 26 27 28 29 28 30 30 26 24 24 29 35 42 45 39 33 25 32 35 32 28 33 28 28
27 26 25 27 24 21 17 13 13 14 14 16 16 17 18 20 20 22 25 24 27 28 29 28 26 31 28 22 24 24 23 16 34 42 46 42 30 21 28 26 24 28 28 30
25 28 29 28 21 16 14 13 13 13 14 15 16 16 18 19 20 23 24 25 27 30 31 28 27 28 23 21 21 23 23 16 24 32 33 43 43 28 29 21 8 11 23 28
29 31 31 24 19 17 14 13 13 13 14 16 15 17 18 18 21 23 24 24 25 27 27 22 15 9 16 22 20 20 25 18 20 28 24 29 35 32 34 25 24 25 27 28
34 34 28 21 21 18 16 14 14 14 15 16 16 17 18 19 21 22 22 22 23 24 19 8 7 12 18 21 13 17 24 21 18 22 17 16 23 34 31 28 26 30 35 29
32 32 26 23 20 18 17 15 14 15 16 16 16 17 18 20 21 23 23 23 25 23 14 12 8 8 17 8 8 3 26 23 20 22 7 18 18 28 29 33 29 17 30 25
33 30 26 24 21 19 17 16 15 16 16 16 17 18 18 20 21 22 24 23 23 15 12 9 8 14 6 7 5 4 21 20 10 9 1 7 20 27 24 29 32 21 16 17
25 24 25 21 20 19 17 17 16 17 16 17 18 18 19 19 20 20 21 21 14 12 13 8 6 3 2 7 3 8 19 8 4 7 4 5 9 18 15 12 15 14 18 23
21 26 25 22 21 19 19 17 18 17 17 16 17 18 18 19 18 19 19 15 11 10 14 18 9 4 5 5 8 12 9 13 11 9 9 11 11 11 12 14 15 12 13 17
25 24 23 23 22 21 20 19 19 17 16 16 16 16 16 15 14 12 15 13 10 8 10 9 7 10 9 5 2 7 21 15 21 20 9 19 14 14 13 14 17 20 13 12
25 25 24 23 22 21 20 21 19 17 15 17 16 16 15 14 12 9 13 18 9 12 13 9 8 10 7 6 5 5 5 19 21 14 6 10 12 12 13 15 19 22 23 22
25 23 23 23 22 22 21 20 18 17 18 17 17 17 15 14 14 12 10 16 10 14 16 13 11 11 6 5 1 10 10 11 12 17 13 12 10 9 11 17 16 18 23 23
25 25 24 23 23 23 21 18 19 19 17 18 20 16 17 18 18 18 15 16 12 14 19 18 13 11 9 9 11 4 7 10 14 12 15 15 14 11 11 7 10 10 13 14
25 24 24 24 23 22 20 20 19 18 18 19 19 18 16 17 18 19 18 17 19 14 23 21 19 13 8 10 11 7 5 10 16 16 22 23 15 12 9 10 11 11 12 13
27 26 24 23 23 21 18 18 19 18 18 19 20 20 21 22 21 22 22 19 17 14 24 21 19 15 12 7 4 6 4 7 14 18 16 14 11 9 9 12 11 10 11 14
28 27 26 25 23 19 20 19 18 18 20 18 15 18 18 18 16 12 11 15 14 18 19 19 19 16 11 10 8 7 6 10 12 16 13 13 10 9 9 8 7 9 10 12
29 28 27 24 21 21 19 18 17 17 17 16 18 17 11 10 5 4 10 10 12 13 12 15 15 12 14 10 9 10 7 5 11 11 8 7 6 6 5 9 12 13 15 16
29 28 27 24 21 20 19 18 16 16 15 16 10 7 6 7 10 11 12 11 10 11 12 11 12 10 9 10 13 9 6 4 5 8 7 7 9 11 13 14 16 18 20 21
27 26 23 21 20 20 18 14 11 12 10 5 8 13 13 14 16 11 10 10 11 10 9 5 7 7 5 5 8 5 4 4 2 2 4 7 10 13 17 22 26 28 29 29
29 26 23 21 20 17 11 9 10 6 7 9 17 19 18 17 14 15 12 11 9 6 4 2 3 5 6 4 6 4 2 0 4 8 10 14 18 22 28 32 30 27 26 28
28 25 24 21 18 12 10 9 11 12 15 19 18 21 20 18 14 10 11 6 7 4 1 2 2 5 6 6 5 7 9 12 15 18 22 25 29 31 26 25 27 29 31 32
28 26 22 18 13 13 12 17 21 22 22 22 22 17 15 13 8 8 3 4 4 1 2 4 4 5 5 6 8 10 14 17 21 25 24 22 21 25 28 29 31 32 34 35
27 22 17 15 14 14 20 25 25 23 21 20 16 10 13 8 5 1 1 5 5 5 6 6 6 8 9 10 12 15 16 13 12 14 17 19 22 25 27 30 32 35 37 39
23 18 15 15 15 22 25 28 25 20 18 16 13 15 7 7 5 4 5 6 6 7 7 6 6 6 7 7 6 6 8 9 10 14 18 20 22 25 28 30 33 37 40 43

GFSNW_500_spd_087.txt.gz
Wind_Speed
27 33 32 31 30 29 28 27 27 25 29 26 25 22 15 12 11 15 16 18 19 20 22 24 27 31 34 37 39 39 42 47 48 44 42 41 37 27 24 29 30 25 27 26
26 26 27 27 29 29 29 27 28 23 22 20 18 13 12 12 14 15 16 18 19 20 24 27 30 32 34 35 35 36 38 41 44 41 37 42 40 37 36 28 30 30 28 27
24 24 23 21 25 27 28 26 23 22 19 16 14 14 14 13 15 15 17 18 19 22 26 28 30 31 32 31 32 34 36 34 36 40 37 38 46 43 32 28 28 25 34 27
20 19 21 25 29 28 25 21 17 17 14 14 14 13 13 13 15 16 18 17 21 24 27 27 29 30 30 30 33 34 32 23 25 34 32 44 42 46 36 37 38 36 23 27
19 20 25 27 24 21 20 20 20 20 16 15 14 13 14 14 14 17 18 20 23 25 25 27 27 28 29 30 30 27 25 25 27 24 29 47 45 47 40 42 26 34 23 19
20 22 24 20 21 20 21 19 18 17 17 14 13 13 13 15 16 15 18 21 22 23 24 24 25 26 25 24 18 18 25 29 28 12 11 35 53 31 31 23 20 33 36 24
22 22 22 26 25 23 22 18 16 15 15 13 12 14 14 15 14 16 18 20 22 21 22 23 24 20 15 16 15 23 25 24 20 9 12 26 43 31 26 23 19 22 15 18
21 28 29 28 26 25 21 16 15 14 13 13 13 14 13 13 14 16 18 19 20 21 24 24 15 13 14 16 19 16 18 9 15 7 11 18 19 22 23 25 24 28 28 16
29 33 30 27 27 23 21 18 17 15 13 12 12 12 12 13 15 17 18 19 20 22 23 14 13 12 13 14 11 15 8 19 17 12 13 20 19 22 25 28 26 22 24 23
32 33 30 31 26 24 21 19 17 14 11 11 11 12 13 15 17 18 19 19 21 21 15 8 10 8 4 9 10 9 5 9 10 7 9 6 7 24 41 41 36 31 23 18
34 32 32 31 27 25 22 18 16 13 11 12 12 13 14 15 16 17 18 19 20 19 6 12 6 1 2 15 7 11 9 6 4 1 10 6 7 21 25 26 26 27 22 25
30 32 31 28 27 24 18 16 14 12 13 13 14 15 15 15 15 16 17 18 19 10 8 13 10 3 9 13 14 6 4 11 9 6 14 10 12 24 20 16 12 10 8 9
30 26 23 22 22 19 17 17 15 15 14 15 16 15 16 15 15 16 15 15 16 7 10 13 12 11 9 2 7 15 6 10 19 7 6 8 14 15 15 14 13 13 13 13
27 22 22 24 21 19 18 17 16 15 16 16 15 16 15 15 16 14 14 14 12 7 11 13 12 10 10 4 6 9 8 7 13 11 1 7 9 10 11 11 10 11 12 14
26 25 23 21 21 20 19 18 18 17 17 16 15 16 16 17 14 14 13 12 10 6 11 15 12 11 11 5 3 5 7 5 3 8 6 1 4 5 5 5 10 13 13 15
26 25 24 23 22 21 20 19 18 18 17 17 16 17 17 15 15 16 15 12 12 8 11 18 14 11 8 8 8 1 6 4 2 3 6 10 7 4 6 9 10 9 9 12
26 25 24 23 22 21 20 19 18 18 17 16 16 17 18 17 16 18 22 18 15 15 11 20 17 13 8 6 6 8 7 6 6 8 8 10 13 13 12 11 9 7 9 11
26 25 24 22 20 20 20 19 18 18 17 16 16 16 15 18 22 19 18 18 16 18 14 20 20 15 9 2 2 2 6 8 9 12 14 13 12 14 12 10 10 10 11 10
26 24 22 21 19 20 20 19 19 18 16 15 12 12 12 19 16 17 12 11 8 12 13 20 21 16 9 6 6 7 7 7 9 13 16 11 11 11 8 6 5 6 8 7
26 24 23 22 22 20 18 19 17 15 15 12 9 14 13 9 8 4 2 2 8 11 15 18 17 13 9 8 9 11 7 3 4 10 12 12 8 5 5 4 8 11 12 14
26 24 24 22 21 19 18 16 14 13 12 11 14 11 6 3 7 7 10 11 13 14 11 13 13 11 9 9 10 9 1 3 7 7 7 6 3 3 4 7 10 14 18 21
27 25 23 21 20 18 17 13 11 9 10 9 5 7 10 14 14 12 10 10 12 12 11 12 11 9 6 6 6 2 3 7 5 5 4 3 3 6 10 14 19 23 28 31
26 24 23 21 20 18 12 8 9 8 5 5 10 15 19 15 12 10 8 9 13 13 10 7 6 9 8 8 8 8 7 6 4 4 5 7 10 14 19 23 27 30 25 26
25 24 24 22 20 14 10 7 5 8 7 15 21 22 18 16 15 13 13 11 8 4 5 4 5 8 7 6 5 3 2 2 4 8 11 15 20 21 19 18 22 23 25 27
26 25 25 22 15 14 11 7 11 12 17 22 23 19 17 12 9 9 7 10 9 3 4 5 5 8 7 5 2 1 3 7 12 15 13 11 12 13 15 18 20 22 25 28
29 27 21 20 16 12 10 14 19 22 20 22 18 14 11 9 6 5 4 2 2 4 3 3 4 4 3 3 5 7 10 10 7 5 6 9 11 13 15 18 22 27 30 34
27 22 18 14 13 12 14 23 25 24 22 20 14 11 13 6 5 3 4 3 3 4 5 5 5 5 5 5 5 4 4 5 5 7 10 13 17 19 22 24 28 32 36 40

GFSNW_500_spd_090.txt.gz
Wind_Speed
24 26 27 28 29 25 24 25 30 29 34 34 35 35 27 24 23 28 32 23 18 16 17 21 23 26 26 27 30 33 35 38 38 38 37 35 36 40 41 38 35 33 34 30
21 21 24 23 23 23 24 27 28 30 28 25 27 24 19 22 21 14 15 15 17 19 20 22 24 26 29 31 33 33 35 40 42 42 40 38 42 48 46 46 39 35 37 32
20 18 18 20 17 18 20 25 26 26 28 25 19 21 20 16 16 18 16 16 17 19 20 22 23 26 29 30 33 35 38 38 40 43 38 38 43 52 54 48 46 43 34 32
19 16 16 16 17 20 26 29 30 27 20 19 22 16 14 15 16 15 14 16 18 19 20 21 24 26 27 30 33 37 36 34 38 37 32 33 41 49 57 55 47 36 34 23
17 15 17 18 23 26 29 30 24 20 22 20 18 18 17 13 12 14 15 16 16 18 20 22 23 25 29 29 30 32 31 30 27 22 23 33 37 45 54 60 50 46 41 40
16 16 19 22 27 28 26 25 25 20 16 15 15 14 13 12 14 14 13 14 15 18 21 21 22 25 27 26 21 23 22 23 29 28 20 21 25 30 46 40 46 44 22 22
15 19 21 28 29 27 23 23 23 19 19 17 14 13 13 13 13 13 12 11 16 19 19 20 23 25 24 16 16 19 20 27 25 21 14 12 8 13 33 37 41 27 30 26
19 21 31 28 27 24 23 25 23 20 16 16 15 14 14 12 12 11 11 14 16 17 18 20 22 23 14 12 17 24 24 22 19 10 8 7 11 16 16 24 28 28 23 17
21 25 27 27 27 26 26 23 20 18 18 16 13 13 13 12 11 11 12 13 15 17 18 20 19 10 6 14 17 15 15 13 12 12 9 4 11 21 22 24 27 35 17 15
24 28 30 28 27 28 26 21 19 20 16 14 14 12 11 10 10 11 12 14 15 16 18 17 6 7 6 7 4 2 10 6 6 4 3 4 8 20 23 22 33 27 22 12
32 32 29 26 29 28 27 22 19 19 17 15 13 12 11 11 11 11 12 13 15 16 16 9 12 8 7 10 4 6 3 2 2 6 7 2 2 26 11 32 21 38 18 18
34 31 30 28 30 27 26 21 20 18 14 13 13 13 12 11 10 11 13 13 14 14 13 12 16 10 11 10 12 4 7 12 5 1 12 6 2 16 16 26 29 18 19 17
31 31 29 30 30 26 26 23 19 16 15 14 13 13 11 12 12 12 12 13 13 13 8 16 18 11 12 3 5 11 5 7 6 7 3 5 8 14 14 12 13 12 10 8
25 26 27 23 25 26 22 20 17 16 15 14 14 13 13 13 12 12 12 11 11 11 7 15 18 14 9 3 2 6 8 5 2 3 1 6 6 12 12 11 10 11 9 7
27 24 23 24 23 22 21 18 17 16 15 13 13 14 15 14 14 14 13 11 9 10 8 15 17 14 11 9 2 4 8 7 5 1 3 6 9 7 8 9 11 10 10 9
28 28 25 23 22 23 20 18 17 17 16 15 15 15 15 15 15 14 14 13 13 11 11 16 20 14 11 10 8 3 6 5 5 3 6 8 9 7 5 6 6 7 8 5
29 28 24 22 22 20 19 18 18 16 16 14 14 15 15 16 15 15 16 18 17 17 14 14 21 15 11 9 8 7 4 2 6 5 3 9 12 8 6 5 7 8 7 7
25 24 22 21 20 19 18 17 17 16 15 14 14 14 16 16 16 17 20 17 17 19 21 18 19 17 14 12 8 4 5 7 8 11 9 10 9 10 11 10 10 9 9 8
23 22 21 19 19 19 18 17 15 14 13 12 14 15 15 14 17 17 15 12 11 13 18 18 21 19 14 11 4 3 4 8 12 11 14 15 13 8 8 8 7 6 6 7
24 23 22 22 21 18 17 15 14 12 11 12 14 14 12 14 8 4 5 2 7 9 14 17 21 16 13 9 2 5 6 4 5 13 13 12 10 8 7 9 8 5 6 10
25 24 22 21 19 18 16 14 11 10 11 12 13 12 11 5 7 7 6 7 9 14 14 17 18 15 12 7 2 7 2 2 6 10 12 11 11 9 6 5 6 9 13 17
26 25 23 21 18 17 15 11 9 11 11 12 10 5 9 14 12 9 9 10 10 14 15 16 14 11 6 4 5 5 7 10 8 8 8 7 5 4 3 8 13 17 21 22
25 24 22 20 18 15 11 10 11 10 10 6 5 16 19 16 13 11 9 8 14 14 14 11 9 8 7 6 7 11 12 11 9 8 6 3 2 7 12 16 15 14 16 19
24 22 20 18 16 13 11 11 9 8 7 9 22 23 19 14 11 11 13 16 14 13 10 9 10 10 9 11 12 10 8 6 4 0 4 8 11 8 8 10 11 12 14 16
23 21 19 18 13 13 13 11 7 8 15 24 24 20 16 14 14 12 10 7 8 4 8 7 11 12 9 8 7 7 5 3 4 5 4 3 5 7 10 12 15 18 21 24
22 21 19 17 16 15 15 10 12 19 23 24 21 19 13 9 7 5 7 6 6 10 9 8 10 11 11 9 7 5 4 3 3 4 5 7 11 13 16 20 24 27 30 32
22 22 20 20 19 16 14 14 22 23 23 22 18 15 11 6 6 5 5 4 3 5 6 8 9 9 8 6 5 4 4 4 6 7 10 14 17 21 26 29 32 34 35 37

GFSNW_500_spd_093.txt.gz
Wind_Speed
28 28 30 31 29 29 28 28 28 29 27 25 33 41 44 47 38 29 35 34 31 30 27 22 25 26 29 26 22 24 27 31 35 34 35 36 36 40 43 43 41 46 43 41
27 28 28 29 27 27 24 24 24 24 22 27 36 37 33 33 35 38 32 33 33 26 23 23 22 21 23 21 23 29 30 33 34 37 40 40 40 42 46 50 52 47 44 43
25 26 28 25 24 22 21 23 24 25 22 28 32 31 25 21 22 26 29 30 23 19 20 21 21 21 23 27 28 31 34 36 38 41 44 44 43 45 48 50 53 50 49 43
24 24 25 22 20 19 19 21 21 22 25 28 22 18 20 24 21 15 13 15 18 17 17 19 21 24 26 29 32 34 34 36 39 42 42 43 46 47 48 53 53 52 48 46
22 22 23 21 18 18 19 22 25 26 25 23 21 24 21 17 15 16 17 16 15 18 20 22 22 24 27 29 32 33 34 37 37 35 35 33 38 39 43 50 54 52 49 45
20 21 21 21 17 19 27 30 27 23 22 25 26 19 17 17 15 13 14 15 16 18 18 19 22 24 25 26 28 34 35 31 30 24 26 29 36 27 19 24 40 50 51 47
19 19 21 23 24 25 27 26 24 24 24 22 20 18 17 17 15 14 13 15 16 15 17 19 19 20 23 26 29 28 22 24 25 23 26 28 14 13 10 18 18 35 42 41
20 20 22 22 20 28 30 31 28 23 21 17 17 16 16 14 13 14 15 14 14 14 14 16 18 19 23 24 23 20 21 25 27 25 19 10 14 17 2 9 13 21 24 31
20 18 19 23 32 32 31 29 26 22 20 18 17 16 14 14 14 13 12 12 13 11 12 14 17 20 19 18 16 16 20 19 12 11 11 9 13 16 18 6 14 25 25 22
20 21 30 35 30 27 27 26 23 21 19 20 17 16 16 14 13 13 11 10 11 11 12 14 16 13 11 9 11 10 5 0 5 5 6 6 8 11 13 7 21 20 20 11
23 30 36 33 31 30 27 24 20 20 21 19 18 16 12 11 11 10 11 11 11 11 12 13 13 9 5 7 7 4 2 5 10 7 9 5 2 2 7 11 16 12 24 19
27 35 35 32 32 30 28 24 22 22 18 15 14 13 11 11 10 11 13 12 12 11 11 12 11 15 8 7 2 5 6 1 8 3 7 5 5 13 8 19 21 12 23 14
30 35 33 27 33 29 30 26 22 21 18 16 13 12 13 12 12 12 12 13 13 12 11 11 12 16 17 8 3 5 4 5 5 8 10 13 10 15 14 16 21 17 8 5
37 34 30 28 31 29 28 27 22 20 17 15 14 14 13 13 13 12 14 14 13 12 11 12 13 19 13 16 4 4 4 3 3 2 2 11 14 12 15 16 15 13 10 9
37 32 28 31 29 28 25 25 22 19 17 14 14 14 14 13 13 14 14 14 14 14 12 12 14 18 16 12 9 3 6 5 5 4 4 4 11 11 7 5 5 8 7 4
32 29 27 28 22 25 24 24 21 18 17 16 15 15 15 15 15 15 15 17 16 15 14 16 14 18 20 17 12 10 8 7 5 6 5 6 7 6 6 5 4 1 4 3
29 26 26 26 22 24 23 21 19 17 16 15 14 14 15 15 17 18 18 18 18 19 19 19 15 19 20 20 17 15 10 11 8 7 7 9 10 6 3 1 1 2 5 6
25 28 26 23 22 23 21 19 18 16 15 14 14 15 16 17 18 18 18 20 23 22 18 18 18 19 21 21 18 16 14 13 12 9 9 8 14 10 9 7 7 6 6 8
25 29 27 23 21 20 19 17 15 13 13 13 15 15 15 16 17 17 19 19 20 19 20 23 21 22 24 19 19 15 12 12 15 19 13 13 13 10 7 8 7 9 11 11
24 26 25 23 20 18 16 14 13 13 13 15 14 13 15 14 14 7 4 7 5 9 11 13 17 25 22 19 14 7 6 7 11 16 24 21 20 18 15 12 10 11 10 10
23 22 21 19 18 17 15 13 13 12 13 14 12 13 13 11 6 9 1 4 6 3 8 14 22 22 18 14 9 3 3 8 10 17 21 16 14 13 11 11 11 12 13 15
23 22 21 19 17 16 15 14 13 13 12 11 10 11 8 10 13 9 4 6 6 4 11 16 18 16 12 8 4 4 8 7 9 11 12 13 14 13 13 11 10 12 17 19
24 23 21 19 18 16 15 14 13 10 9 9 9 6 16 17 14 11 6 8 11 15 13 15 15 12 8 6 6 8 11 10 10 11 12 11 10 8 7 10 14 16 15 15
23 22 21 20 17 15 14 12 10 9 8 7 8 19 19 16 12 10 12 12 13 12 12 11 10 7 6 8 9 12 10 10 9 8 6 4 4 6 8 9 11 12 15 19
23 21 21 18 15 14 11 10 10 8 8 11 23 21 18 14 12 13 14 8 8 6 7 8 8 8 11 12 11 9 9 8 5 5 7 7 7 7 8 11 15 19 23 27
23 22 20 16 16 14 12 11 10 10 15 25 23 18 14 14 10 8 7 5 4 7 9 8 13 13 11 9 10 11 10 9 8 7 6 6 7 10 14 18 23 28 31 34
22 20 18 16 16 15 15 13 12 18 26 24 21 16 13 11 9 9 7 6 7 6 7 8 12 14 14 13 11 9 8 7 6 5 6 9 13 17 22 26 29 31 32 35

GFSNW_500_spd_096.txt.gz
Wind_Speed
41 36 35 33 32 31 32 32 31 34 34 32 28 28 31 34 36 39 36 37 36 32 35 34 34 36 34 28 15 16 20 25 30 30 31 33 33 36 39 43 43 43 45 43
39 34 33 32 31 31 33 35 34 34 34 30 28 26 22 30 30 33 38 34 30 30 31 32 32 27 22 15 15 20 23 30 31 32 33 34 35 38 41 44 47 48 48 49
37 34 31 29 27 29 30 32 32 31 26 25 23 18 21 31 33 32 28 31 28 27 24 24 28 21 15 19 24 26 25 26 30 32 36 37 39 41 43 46 49 51 53 52
35 31 28 26 26 26 27 24 25 24 17 15 15 15 17 27 29 31 27 29 24 29 29 26 17 18 20 19 19 21 25 29 32 35 39 41 42 44 44 49 51 56 51 53
31 27 26 25 25 23 23 21 20 15 14 16 18 16 19 20 23 24 23 22 19 17 16 17 16 16 17 21 24 28 31 32 33 35 39 43 45 46 48 47 48 53 52 52
28 25 24 24 24 20 19 18 18 16 16 18 21 18 19 22 19 14 13 12 13 13 14 14 15 18 21 23 27 29 29 32 35 38 39 40 43 36 37 37 31 27 30 30
26 25 25 23 22 21 21 21 22 21 22 21 21 24 22 18 17 14 12 12 12 13 15 16 17 19 21 23 25 28 31 35 36 35 35 34 33 28 22 10 15 22 23 18
25 25 22 22 22 24 27 27 23 24 26 25 24 21 20 14 13 13 12 11 12 14 14 15 16 17 19 22 25 28 29 27 27 31 34 33 25 16 19 23 21 16 8 1
24 22 22 24 27 23 26 26 28 25 26 24 19 16 16 15 14 11 12 12 12 12 13 13 14 16 18 21 23 21 16 17 15 10 4 3 6 13 14 17 11 11 1 2
25 24 27 23 23 25 31 31 29 28 26 22 20 18 16 15 14 13 13 13 12 12 12 12 14 16 17 19 14 10 8 7 6 6 5 7 7 7 12 10 11 7 9 13
26 26 23 22 27 34 33 30 27 25 21 20 17 16 15 13 12 12 11 11 10 9 11 13 13 14 14 13 9 5 3 8 8 4 13 8 5 2 5 4 5 8 11 10
27 24 27 33 36 33 31 29 24 20 18 18 17 15 14 12 11 11 11 10 10 11 11 11 12 13 10 9 11 8 3 3 2 1 1 3 2 2 4 4 8 16 16 11
29 27 33 35 33 34 30 26 22 21 19 18 16 13 11 11 11 12 12 12 11 10 11 10 10 10 13 7 5 7 6 2 5 2 3 3 5 6 9 9 13 16 19 16
31 35 37 36 34 32 27 25 21 21 20 15 14 12 12 12 13 12 12 11 11 12 11 11 11 10 12 16 7 4 10 7 2 1 6 9 9 11 12 11 15 15 13 9
28 37 35 33 32 30 31 26 22 19 19 14 14 13 13 13 12 12 12 13 13 13 12 12 12 10 15 18 18 7 8 9 6 4 6 12 13 11 11 12 11 9 7 4
31 34 32 30 29 28 28 28 25 21 18 15 13 13 12 12 12 13 14 14 15 15 16 15 15 12 16 20 20 16 8 10 10 10 5 6 12 10 10 9 9 7 4 4
32 34 32 30 28 27 23 24 22 20 17 16 15 14 12 12 13 14 16 18 18 18 19 19 18 18 16 26 23 19 15 14 11 9 8 7 8 6 6 6 5 3 1 2
34 30 26 25 26 19 22 21 20 19 17 16 13 11 13 13 14 15 17 20 22 22 23 25 24 21 17 28 28 24 19 17 13 12 9 9 11 8 6 3 2 0 2 4
30 26 24 25 25 20 21 20 17 16 15 13 12 12 11 12 14 17 20 23 26 27 27 26 22 20 20 25 28 25 22 19 17 15 13 12 11 12 9 8 9 5 4 6
29 29 26 24 21 20 21 18 15 15 14 12 11 10 10 13 15 17 10 5 11 11 9 11 18 20 23 24 24 23 21 20 17 20 21 19 16 14 12 10 10 10 14 14
24 28 27 21 19 18 17 17 15 14 13 11 9 10 12 12 13 6 1 6 9 4 1 8 15 22 24 21 19 18 16 17 15 16 21 20 20 20 19 15 12 11 12 13
22 24 24 21 19 18 17 16 14 12 9 8 9 11 11 12 7 10 2 4 6 8 6 11 18 24 21 19 15 13 10 8 6 8 13 9 6 9 9 9 10 13 14 16
24 24 23 21 19 18 16 13 12 9 9 10 10 10 11 8 17 10 2 4 8 11 8 15 18 19 16 13 10 9 9 9 8 9 13 17 15 13 11 11 14 16 18 17
22 21 21 20 18 16 13 12 10 8 9 9 9 8 11 17 14 9 5 6 10 6 13 13 14 12 8 8 9 10 11 9 9 9 11 12 12 13 15 15 12 11 14 17
21 20 20 17 15 13 11 9 8 8 9 8 6 17 17 15 11 7 8 7 8 9 10 10 9 7 8 10 11 10 9 9 9 8 8 8 9 7 6 7 10 14 19 24
20 18 17 16 15 13 12 10 8 8 8 7 20 19 16 13 10 13 6 7 6 4 7 7 8 10 11 11 9 9 8 7 6 6 5 4 4 5 8 12 17 22 26 27
20 18 18 17 15 13 12 10 9 8 8 22 22 17 15 14 13 10 6 7 6 6 6 7 10 10 10 8 8 10 10 8 6 4 3 4 6 10 15 20 23 24 26 29

GFSNW_500_spd_099.txt.gz
Wind_Speed
56 55 51 45 40 37 35 32 34 34 37 34 30 28 27 29 30 32 35 31 32 34 39 32 33 34 30 33 37 32 29 28 27 28 27 27 28 29 30 32 34 35 37 37
52 51 47 42 38 36 33 31 34 32 34 36 30 30 30 32 34 25 29 26 32 35 40 34 36 33 36 35 33 26 27 23 22 24 25 24 26 27 29 33 35 37 38 38
44 44 40 38 35 35 31 31 32 32 32 35 33 28 28 29 24 16 25 23 31 28 33 35 34 35 36 32 29 25 20 21 22 22 23 24 26 28 33 36 39 40 43 45
40 38 35 34 33 32 30 29 28 29 30 28 27 26 25 21 14 18 25 25 33 24 20 26 22 20 20 22 19 18 16 16 18 22 25 28 30 32 36 39 41 44 44 47
35 34 32 32 32 30 28 26 24 24 25 26 25 20 14 12 14 20 22 23 23 23 23 23 24 22 23 18 13 13 16 20 22 25 28 30 31 34 38 41 42 47 49 50
29 29 30 29 30 27 25 22 21 23 22 20 16 14 13 14 16 19 24 23 23 21 21 22 22 21 15 11 13 17 19 23 25 25 28 33 36 36 36 38 37 39 39 37
29 30 29 28 26 24 22 20 21 21 20 17 18 19 22 24 23 22 22 20 22 19 19 17 14 10 11 15 17 18 20 22 26 28 32 34 37 37 36 33 32 34 21 22
28 28 26 26 24 21 21 20 20 21 18 22 22 24 28 27 21 18 15 12 12 11 9 8 11 12 14 15 16 18 21 25 27 27 28 32 34 31 27 24 22 17 22 14
27 25 24 24 23 24 24 26 24 21 23 25 28 29 23 19 15 14 11 9 8 9 9 10 10 11 12 14 15 18 20 20 19 17 9 9 8 7 8 10 11 15 3 4
24 24 25 25 26 28 28 24 24 25 27 27 27 24 19 17 14 11 9 9 9 9 9 10 10 10 11 13 15 16 12 9 7 3 4 9 12 13 7 6 7 7 9 8
24 24 25 28 29 27 26 30 30 29 27 28 24 20 18 15 13 11 9 9 10 9 8 7 8 10 11 12 11 8 8 3 9 12 13 9 6 2 3 3 4 5 2 3
23 27 27 26 26 27 34 34 32 27 22 20 20 16 15 13 11 9 9 8 7 7 7 8 9 9 10 11 5 5 4 2 2 2 2 2 2 1 4 4 2 5 10 9
26 24 24 27 28 34 32 32 29 25 24 19 17 15 14 11 10 9 9 9 8 8 8 8 8 9 8 8 4 6 8 4 4 0 2 3 0 2 2 9 8 7 12 17
25 25 27 29 34 34 33 29 26 22 19 17 17 14 12 11 10 9 9 8 8 8 8 8 9 10 9 9 7 7 10 11 2 2 3 2 4 1 3 7 9 9 13 13
27 28 28 28 35 36 32 28 24 24 22 18 15 14 11 10 10 9 8 8 10 10 9 9 11 11 8 12 15 11 12 13 7 2 5 7 10 9 11 9 9 9 11 10
30 28 27 35 36 34 31 28 27 23 20 15 15 14 11 10 8 7 8 11 12 13 13 12 12 12 11 12 19 17 10 13 14 9 5 11 12 10 10 10 10 8 7 8
33 31 30 34 34 31 31 25 22 21 19 17 14 10 8 8 8 9 11 13 14 16 16 16 15 15 14 13 21 24 18 12 14 14 10 10 16 12 11 9 8 7 7 7
29 28 27 31 29 27 27 26 23 19 15 14 11 8 9 9 9 11 14 16 17 19 20 21 20 19 19 15 23 27 24 19 15 14 13 13 11 10 9 7 5 6 5 4
30 28 30 29 24 22 19 20 19 16 14 13 11 10 10 10 11 13 15 17 21 23 24 26 26 26 25 20 27 31 26 23 18 16 13 13 13 12 8 5 4 4 3 1
30 30 27 24 19 17 16 17 15 14 13 11 11 9 9 10 12 13 15 14 12 15 17 14 15 20 22 23 28 35 30 25 19 16 14 13 13 14 12 8 7 8 7 8
28 27 23 22 21 20 17 18 15 14 12 10 9 9 9 10 11 11 9 6 9 14 10 6 5 17 21 22 24 29 27 24 22 20 18 19 17 16 15 13 12 10 10 13
27 25 25 23 21 20 19 18 16 13 11 9 8 8 9 10 10 6 4 4 8 8 5 6 8 17 17 19 19 20 20 23 23 19 17 14 15 17 15 12 11 10 12 13
29 30 26 22 20 19 17 15 12 10 9 8 7 8 8 10 5 11 3 3 6 8 9 6 12 16 16 16 14 12 13 14 12 8 13 17 13 9 8 11 11 11 11 15
25 27 25 21 18 16 14 13 11 10 8 6 6 8 9 5 16 9 4 4 3 4 8 10 13 13 13 11 12 14 13 10 9 10 11 13 15 14 13 10 11 13 15 13
21 21 20 18 16 15 13 11 10 7 5 5 7 7 12 16 13 7 5 7 5 8 9 10 8 6 8 10 12 11 8 8 8 8 8 8 10 11 11 11 8 8 12 18
20 19 18 17 16 14 13 11 9 6 6 7 6 13 17 14 10 9 9 8 8 5 6 7 6 7 10 12 12 10 8 6 4 3 3 5 6 6 3 3 8 13 17 20
20 19 18 17 15 14 12 10 8 6 6 6 13 19 16 13 14 8 7 7 5 5 6 6 8 10 9 9 8 6 5 3 2 3 5 5 3 0 5 11 14 16 20 23

GFSNW_500_spd_102.txt.gz
Wind_Speed
63 60 56 52 51 50 49 44 40 37 36 36 36 35 35 31 30 32 32 30 31 31 33 36 34 31 26 24 22 21 28 31 27 26 28 31 34 35 34 34 34 34 34 33
48 51 49 49 47 48 46 41 38 37 37 35 34 32 36 33 30 29 29 29 30 30 32 34 30 30 26 24 18 27 33 33 28 26 30 33 34 33 31 31 33 35 32 34
36 41 42 43 44 41 38 36 36 37 35 33 32 30 30 31 30 30 30 33 31 28 28 32 28 32 31 28 29 32 28 24 27 29 30 27 25 25 25 26 28 29 31 32
38 39 40 40 38 35 34 34 35 33 32 31 31 32 29 29 29 29 29 30 22 23 24 26 29 30 29 35 29 37 35 32 32 28 20 18 16 19 22 25 27 33 32 38
30 35 34 35 33 32 32 34 33 30 30 30 30 29 28 27 26 25 24 23 20 22 24 20 26 30 24 24 25 23 23 19 16 13 13 18 22 25 28 29 30 34 37 40
28 28 32 33 31 31 32 31 28 29 28 27 25 24 24 23 22 22 25 21 23 20 21 20 21 23 23 20 18 14 11 9 15 18 21 23 26 27 30 33 36 40 41 43
28 29 29 30 30 29 28 26 26 25 25 22 21 23 24 25 26 24 29 24 21 17 23 25 24 23 19 15 11 10 13 15 16 18 22 26 26 29 31 34 38 38 39 36
25 29 30 29 26 26 25 25 24 24 22 21 24 24 25 27 27 23 21 21 21 20 22 21 18 14 12 9 11 13 13 14 17 18 21 24 23 22 20 22 23 22 20 14
26 27 28 27 25 27 24 22 22 21 22 24 25 27 28 26 23 22 22 21 19 18 16 13 11 10 10 10 10 11 13 14 15 15 14 13 14 14 17 16 9 9 12 12
23 26 25 26 29 26 24 23 24 24 22 27 29 29 26 25 24 22 20 15 13 12 12 12 10 9 9 8 9 11 12 12 8 6 7 11 17 17 15 7 9 7 9 12
24 26 26 27 28 26 29 27 27 24 27 31 29 26 28 23 21 18 15 14 13 13 12 11 10 8 8 8 9 9 9 6 5 9 13 15 12 8 6 6 3 6 4 2
26 25 24 25 30 35 28 28 30 30 29 26 29 29 24 20 17 15 14 13 14 13 11 9 8 8 8 7 7 7 8 10 8 7 6 8 5 3 5 1 4 4 9 8
25 25 29 33 31 28 31 35 31 28 29 30 27 25 20 18 15 13 13 13 13 12 10 9 8 7 7 7 5 7 13 10 7 7 4 4 3 3 7 9 5 4 3 12
25 27 28 28 29 31 37 33 30 30 26 24 22 21 19 16 14 13 13 12 12 11 9 7 7 7 7 7 6 8 15 13 9 5 5 4 2 4 5 7 6 5 7 10
21 21 27 30 34 37 34 33 30 29 26 24 20 19 16 14 13 12 12 11 10 9 8 8 7 7 9 10 10 12 15 17 13 6 5 6 5 12 9 7 8 10 11 10
25 29 32 36 36 33 32 33 32 26 23 22 19 17 14 12 11 11 10 10 9 9 9 9 10 11 12 13 13 17 16 17 17 11 5 9 10 11 10 9 7 8 10 10
32 29 27 36 34 34 31 26 25 26 21 22 18 15 13 11 10 10 9 8 9 11 12 13 13 13 15 17 17 21 21 15 16 16 11 10 15 11 10 10 10 9 10 9
27 26 28 34 36 34 30 27 25 21 19 18 15 13 12 10 10 9 9 10 12 14 15 17 18 19 20 21 20 22 27 21 14 15 16 12 18 15 11 11 10 9 8 8
31 28 31 34 35 32 30 26 24 23 18 15 14 13 11 10 9 9 10 12 15 18 21 23 24 24 25 24 23 22 28 26 19 15 15 17 15 13 12 9 7 8 6 4
30 27 26 30 31 28 28 25 22 18 16 16 15 12 10 9 8 10 12 14 17 19 20 23 22 20 29 32 28 24 29 28 22 17 16 15 17 17 15 11 8 8 6 4
25 26 24 24 24 21 20 20 20 17 16 15 12 10 8 7 8 10 12 14 10 11 15 13 11 12 18 26 27 27 30 29 23 19 17 15 13 12 11 11 8 6 6 5
28 27 26 24 20 20 20 21 20 18 16 13 11 9 7 7 9 11 10 5 4 6 8 8 1 6 14 18 19 20 26 29 24 20 14 13 12 13 11 9 9 7 7 8
32 29 27 25 24 22 19 19 16 14 13 11 9 8 8 8 10 7 5 4 4 5 1 4 7 11 15 17 17 16 20 24 20 20 17 14 14 13 14 14 10 7 8 9
31 28 27 25 22 18 18 17 16 14 12 9 7 7 8 9 7 11 7 6 5 6 7 9 11 13 14 15 14 14 15 15 16 16 15 17 14 14 13 10 9 10 10 13
27 26 24 19 17 18 17 16 14 12 10 8 6 7 7 8 16 11 8 6 5 8 7 9 9 8 8 9 11 15 15 15 15 13 12 21 22 17 15 12 11 10 11 11
25 23 21 19 18 17 16 15 14 12 9 6 5 5 9 18 13 10 11 8 9 6 5 4 2 4 7 10 14 14 15 15 14 15 15 15 14 12 10 10 10 9 10 13
23 22 21 20 18 17 16 14 13 10 6 4 4 12 17 14 14 13 12 10 7 4 5 5 4 7 10 11 12 11 10 9 9 9 12 13 14 14 12 8 7 10 12 15

GFSNW_500_spd_105.txt.gz
Wind_Speed
62 63 69 66 63 59 57 53 51 49 46 45 44 42 44 42 40 40 42 38 37 41 37 37 35 37 37 24 23 23 21 24 27 23 23 21 30 32 31 31 28 21 28 23
37 43 41 50 54 54 51 49 48 46 45 46 41 41 41 39 39 39 37 34 34 35 34 36 37 38 29 29 25 21 19 21 30 24 22 22 28 32 31 37 36 36 27 24
37 45 39 29 35 40 45 45 44 45 45 41 39 38 38 36 36 36 36 35 34 34 34 32 34 33 30 28 25 22 20 24 30 21 23 29 27 31 34 36 37 37 38 30
39 35 35 34 34 35 40 42 40 38 35 35 37 37 35 33 34 32 32 35 35 33 32 31 33 29 27 25 25 22 23 22 34 34 30 32 28 26 29 31 28 30 26 31
36 29 26 31 37 42 42 38 34 34 34 37 37 35 33 32 32 31 33 32 33 32 28 28 22 24 23 26 34 33 28 31 30 30 32 31 26 21 20 19 20 26 29 33
29 32 27 28 38 39 40 38 38 37 37 36 33 32 29 29 31 30 31 31 32 28 26 23 20 22 22 23 30 26 31 25 24 24 17 13 17 18 21 23 27 32 33 37
32 30 19 23 30 35 34 31 35 33 32 30 28 29 28 29 31 30 29 31 27 23 21 20 22 21 21 24 23 21 20 21 13 13 14 21 19 21 24 26 31 33 36 40
33 28 30 25 29 27 27 33 28 28 28 26 27 28 27 31 32 33 32 28 22 21 19 24 26 23 21 21 22 19 12 11 15 17 18 22 21 21 21 21 26 26 30 30
30 26 25 28 27 28 31 29 30 29 27 26 26 28 30 32 35 33 29 29 26 23 21 25 28 24 21 19 13 11 15 15 16 16 17 18 14 14 16 21 20 13 12 13
21 19 24 27 28 30 31 29 30 28 27 25 28 31 29 33 31 27 24 21 22 24 24 23 20 16 16 14 15 14 13 13 13 14 12 10 11 14 15 10 9 11 13 12
26 23 22 28 30 29 29 28 28 27 27 29 30 33 34 29 25 23 24 23 22 22 19 18 18 17 16 14 12 10 10 10 9 7 8 13 13 12 9 10 14 9 13 12
22 22 28 30 29 32 31 28 29 26 27 29 33 32 26 23 24 25 22 20 20 19 18 17 16 15 13 11 10 8 9 9 9 9 9 10 10 7 6 12 4 4 2 4
22 27 31 30 34 33 31 28 29 28 28 31 30 26 28 26 25 22 20 20 19 18 17 16 14 13 11 10 8 7 9 10 12 9 9 9 8 6 6 7 2 4 2 14
25 27 28 31 36 36 32 29 29 28 27 25 29 28 28 24 21 19 19 18 17 16 16 15 13 12 11 10 9 9 10 13 13 11 10 9 8 7 12 7 7 3 3 12
27 29 32 36 38 36 32 34 31 30 30 29 28 27 25 23 19 18 17 17 17 16 15 14 12 11 11 11 11 10 11 16 16 13 8 9 9 10 7 6 6 6 6 10
28 30 29 29 35 35 33 33 30 31 28 30 26 23 22 20 18 16 15 15 16 15 14 12 12 12 12 12 12 13 13 17 21 19 10 10 9 11 10 7 6 7 11 9
27 32 35 35 37 34 29 25 26 30 31 29 26 22 19 17 16 15 15 15 14 14 14 13 14 14 15 15 16 16 17 19 21 21 16 11 13 14 13 9 7 10 11 10
34 37 40 38 35 31 33 32 28 26 26 25 23 20 18 16 14 14 14 13 12 12 13 14 16 17 18 19 20 21 22 23 22 20 19 15 14 16 13 11 11 11 11 11
35 33 35 35 31 35 33 32 29 25 24 22 19 17 16 15 13 12 11 11 12 14 16 18 21 23 26 25 26 27 26 26 27 18 20 19 15 20 15 13 12 12 12 10
32 32 36 36 36 34 31 28 27 23 21 20 19 16 13 12 11 10 10 11 14 16 19 23 27 30 30 31 32 33 30 28 28 22 18 19 19 18 19 14 11 12 12 9
28 29 35 35 34 31 28 24 23 22 19 17 17 14 12 10 9 9 10 12 15 19 15 22 19 21 21 23 31 35 33 28 28 25 19 17 15 13 17 14 11 10 10 7
27 32 32 31 31 28 27 24 20 18 18 17 15 12 11 10 9 9 11 13 13 10 10 10 11 11 10 14 19 28 29 25 27 24 20 17 15 13 11 12 13 11 9 6
29 28 28 28 25 26 26 23 21 18 17 15 14 12 11 9 8 9 12 6 5 6 4 6 4 2 5 10 15 19 21 21 24 21 18 14 15 13 12 10 8 8 7 5
29 25 23 24 23 20 19 19 19 18 17 14 12 11 9 8 9 10 8 6 3 3 3 2 2 5 8 13 15 16 18 17 19 17 18 13 10 12 11 10 10 9 8 9
29 27 25 22 19 17 18 20 19 17 15 13 11 8 8 9 10 12 11 7 6 7 6 6 6 7 8 10 12 15 16 15 17 16 18 15 14 14 12 12 12 13 12 12
26 23 21 20 19 18 19 18 17 15 13 11 8 8 8 8 14 14 12 8 10 6 3 3 4 4 6 8 8 10 11 13 15 15 11 16 21 21 18 18 17 14 13 13
25 25 22 19 19 18 18 17 16 14 12 9 8 8 8 14 15 13 13 10 8 6 2 1 2 3 7 8 10 13 14 14 15 16 17 17 19 21 20 19 16 14 14 14

GFSNW_500_spd_108.txt.gz
Wind_Speed
75 74 73 73 75 76 73 69 65 61 57 55 52 53 50 49 42 46 41 44 45 43 41 39 39 36 31 35 37 28 28 28 26 23 27 29 26 25 20 24 22 17 26 27
66 68 68 62 58 57 63 59 59 57 57 55 53 48 48 46 44 47 42 44 43 40 39 41 37 39 41 40 39 34 32 27 23 25 30 18 16 17 23 25 29 23 25 23
57 56 55 47 46 42 42 41 45 51 52 50 48 46 45 45 42 43 43 42 40 39 38 37 35 39 40 40 41 34 28 27 23 23 26 25 17 19 28 31 32 33 34 33
49 47 38 48 46 40 38 40 38 38 44 44 41 43 42 43 42 41 39 39 37 37 36 36 35 37 39 35 33 31 29 26 26 25 30 30 26 28 29 30 33 34 38 45
36 38 52 40 41 35 39 38 37 37 39 40 40 41 39 39 38 37 35 36 35 35 35 36 34 34 34 33 32 29 25 24 28 26 25 34 38 38 35 35 33 34 36 36
36 52 41 37 34 41 34 37 40 32 39 38 40 37 37 36 35 36 35 35 35 34 34 36 33 33 31 29 25 25 25 25 25 27 30 35 40 37 31 22 22 27 26 33
43 54 38 32 32 30 32 36 41 41 36 33 36 37 35 33 31 30 33 33 34 34 34 31 26 24 23 23 24 22 24 28 29 32 27 24 29 20 20 23 26 28 29 34
51 39 37 31 27 29 28 29 33 34 27 27 29 32 30 27 28 30 35 33 33 35 31 26 25 23 21 22 23 22 21 23 22 20 17 24 22 15 20 23 22 24 27 31
44 40 39 29 23 28 28 28 27 27 24 24 26 28 29 30 30 35 36 32 34 30 25 24 24 24 24 24 24 24 22 19 18 17 17 20 17 18 15 20 21 20 24 19
38 35 34 29 24 24 26 31 30 29 24 28 26 28 29 27 32 38 35 31 32 26 24 24 24 31 30 27 22 19 17 17 16 16 19 19 15 12 16 20 17 11 15 18
34 34 27 22 23 29 30 32 29 30 27 26 27 26 26 32 33 33 37 29 27 28 27 23 23 22 28 24 19 16 16 15 17 17 16 13 12 13 16 13 12 15 15 18
29 26 22 24 29 27 26 30 32 38 36 26 33 35 30 32 31 26 23 27 24 23 25 26 27 22 17 17 17 16 15 15 12 14 8 9 10 11 9 7 10 6 11 6
22 20 20 28 30 25 27 26 35 38 31 25 33 34 34 31 24 24 24 24 20 21 20 17 16 17 17 17 16 16 14 13 13 11 9 10 10 9 6 8 5 5 8 3
23 24 28 33 26 32 31 26 33 31 28 28 30 29 28 26 25 23 22 21 20 20 19 19 19 19 16 16 16 15 12 11 11 12 11 10 10 9 7 8 9 5 4 5
27 27 30 28 32 34 28 23 27 25 22 23 25 26 27 23 25 22 21 22 19 20 19 20 20 17 17 15 13 12 10 11 13 14 13 10 9 10 9 13 11 10 7 9
28 30 29 30 34 33 30 28 27 25 28 25 29 27 27 24 21 19 18 18 19 19 19 18 16 17 15 15 15 13 13 12 13 16 15 11 10 10 10 8 4 5 6 14
28 25 30 36 35 35 30 29 25 25 27 25 27 25 23 20 19 19 17 17 17 17 18 17 17 16 16 17 16 15 16 15 15 16 19 16 10 12 12 9 8 8 13 11
25 26 29 37 37 36 31 28 28 29 28 29 28 24 22 20 17 16 16 16 16 16 16 17 16 16 17 18 18 18 19 19 19 19 19 20 15 15 15 13 11 12 13 13
30 35 36 34 35 31 27 28 30 31 26 26 24 22 18 17 15 15 15 14 14 14 15 15 17 18 21 19 23 23 24 23 23 21 21 20 19 15 17 14 13 13 13 13
40 37 35 34 31 30 31 32 28 28 26 24 23 19 17 16 14 13 13 12 12 13 15 17 20 24 27 28 29 31 30 29 28 25 24 21 21 17 16 17 16 15 15 14
38 37 32 32 32 35 33 29 26 24 24 23 20 18 16 14 13 12 11 11 11 13 16 18 21 25 25 28 25 30 34 33 31 26 24 22 20 20 22 21 17 17 17 15
31 31 31 32 35 33 30 27 25 21 21 20 20 17 14 12 11 10 10 11 12 12 13 15 16 17 20 24 23 23 26 30 28 27 26 22 19 19 22 21 18 15 15 15
31 35 34 33 32 30 27 22 19 19 16 15 15 13 13 11 9 8 10 11 9 9 4 6 11 13 12 10 8 16 20 23 25 28 26 21 19 16 13 14 16 15 15 14
29 32 31 32 27 21 18 15 13 15 15 15 14 12 10 8 9 9 10 6 2 3 2 7 9 8 4 1 6 14 18 19 24 26 25 20 18 18 17 17 16 14 15 15
22 23 23 22 18 19 19 19 18 17 16 15 13 11 9 9 9 10 6 7 6 5 3 4 4 4 3 4 10 16 17 20 23 21 20 17 16 18 17 16 17 16 15 13
22 21 21 21 20 18 17 19 18 16 15 14 12 10 9 9 10 7 11 11 9 6 2 1 2 1 3 6 7 11 16 20 20 17 16 17 14 15 14 14 15 13 13 15
23 22 21 18 16 16 16 18 18 17 14 13 11 8 8 9 8 11 13 11 9 6 3 2 3 3 4 2 3 4 9 11 14 16 16 15 16 18 17 17 16 15 17 18

GFSNW_500_spd_111.txt.gz
Wind_Speed
72 71 69 68 68 67 68 68 69 65 65 67 66 62 58 51 50 49 51 49 43 44 40 36 38 41 44 42 36 30 35 30 27 24 25 29 32 31 26 20 17 24 24 35
67 67 66 65 65 65 64 67 66 67 67 67 64 61 57 54 54 47 47 45 44 42 39 45 42 43 40 36 33 37 34 32 33 32 30 29 33 27 24 22 26 23 29 31
67 66 65 63 63 61 59 55 55 58 64 62 56 54 55 53 45 46 48 49 40 40 42 42 41 40 36 37 35 38 45 43 39 36 34 29 30 29 25 24 28 29 30 30
53 52 53 54 54 53 42 45 53 45 49 43 42 43 47 45 45 48 48 45 41 42 44 41 40 38 37 37 35 36 44 43 39 36 32 31 25 26 25 26 25 29 33 35
48 50 48 47 46 44 46 45 42 35 28 34 40 44 42 47 46 42 42 44 42 41 39 39 37 36 36 37 34 34 37 38 36 33 30 29 31 34 31 31 32 34 37 40
45 44 43 46 46 53 51 44 37 26 28 35 36 42 43 42 39 42 44 41 40 38 36 36 34 33 35 36 33 33 35 31 32 31 28 32 32 26 29 36 39 43 42 41
40 40 39 37 46 56 38 33 37 40 31 15 31 32 39 41 37 35 34 37 36 36 33 31 32 32 31 31 27 29 28 27 26 28 25 28 28 25 30 35 34 30 28 30
33 33 33 41 50 45 33 36 36 44 38 24 21 28 29 33 30 33 28 31 26 30 32 30 31 31 26 27 26 26 24 25 27 29 27 30 24 27 25 25 25 28 30 30
31 32 36 45 40 33 33 37 37 34 39 36 26 25 27 31 30 33 25 29 31 28 29 29 31 28 24 27 24 23 23 22 23 25 26 25 19 17 21 23 19 20 26 28
32 42 50 40 36 33 32 29 32 32 29 27 26 21 23 26 30 31 32 40 34 32 29 26 27 27 25 25 23 20 22 23 21 22 20 20 17 16 19 18 16 18 16 19
41 51 45 37 34 27 31 28 28 26 25 14 24 21 24 25 27 29 35 37 35 29 23 23 23 25 26 26 23 23 22 21 18 19 19 16 17 16 15 15 15 11 13 17
50 45 37 38 28 24 26 29 34 27 22 15 19 19 22 30 34 37 35 36 32 24 25 24 22 22 22 20 22 21 18 18 18 18 16 13 14 13 11 10 7 11 11 13
42 40 35 31 26 30 30 25 29 33 19 21 22 27 19 28 34 30 27 23 24 24 23 25 23 23 21 19 19 19 19 18 17 15 12 13 11 9 9 8 6 5 7 8
35 32 25 24 27 32 27 27 31 27 23 22 26 27 34 29 28 27 22 18 20 21 21 22 18 17 22 17 17 18 18 16 15 14 15 12 11 9 6 7 6 7 3 2
28 25 25 28 31 25 25 25 38 33 29 27 23 32 31 31 25 21 19 20 21 17 21 19 16 15 18 18 19 15 16 15 13 13 13 12 11 8 6 8 9 8 8 5
22 24 26 32 26 26 27 28 34 35 31 25 22 27 26 25 23 22 22 19 16 17 19 17 17 16 16 18 14 15 15 13 14 15 15 14 12 9 8 10 9 9 6 8
25 25 31 29 25 24 28 26 28 24 21 17 20 22 21 22 24 21 19 21 19 19 16 16 17 16 16 15 14 14 15 16 16 15 15 16 13 9 9 11 9 6 10 15
27 29 31 25 26 28 26 22 21 19 16 14 17 23 27 23 17 18 17 15 15 15 17 16 15 16 15 14 14 17 18 18 19 17 17 16 18 14 11 13 10 9 12 13
27 26 30 36 33 30 23 22 21 18 15 17 22 22 19 19 18 16 15 15 15 15 14 14 17 18 17 18 21 22 22 22 22 21 20 19 17 19 15 16 14 12 16 16
28 34 37 36 32 29 24 22 19 18 23 23 23 23 19 18 14 13 13 13 13 14 14 16 17 18 19 22 25 27 27 27 27 26 26 23 20 20 19 17 15 15 19 19
32 37 40 35 31 26 21 21 22 25 24 24 22 21 18 17 15 13 12 12 13 12 14 15 17 19 23 26 28 31 33 35 35 35 31 27 25 22 22 18 18 20 21 20
35 35 31 30 28 23 23 22 22 24 23 22 21 18 15 12 11 12 11 10 10 11 14 15 14 13 15 20 23 25 27 28 28 34 32 28 27 24 23 20 22 22 22 22
33 32 30 29 28 27 25 20 20 20 20 18 16 16 15 13 12 11 9 9 10 11 9 4 5 11 16 17 19 19 19 22 25 27 29 28 26 25 25 26 27 24 22 22
32 28 26 27 25 22 20 20 20 18 16 15 16 14 12 11 10 9 9 9 7 4 3 1 7 8 11 13 11 8 6 15 23 27 29 27 24 24 25 28 28 24 21 19
25 24 24 23 21 20 20 19 17 15 14 15 15 13 12 10 8 8 9 7 7 7 3 4 7 6 7 7 2 5 10 15 19 24 23 25 24 23 21 21 19 20 20 20
23 22 20 20 18 16 16 15 14 15 14 14 13 11 10 8 8 9 7 8 10 6 5 2 4 2 1 2 2 5 9 12 19 20 20 23 20 19 20 21 20 20 20 20
21 19 19 19 16 16 16 15 14 14 14 12 11 9 8 8 8 5 9 11 9 9 4 3 2 2 2 1 2 3 7 11 16 15 16 18 15 15 18 18 19 19 19 19

GFSNW_500_spd_114.txt.gz
Wind_Speed
70 69 68 67 66 66 66 65 65 63 61 61 64 63 58 55 50 51 51 48 50 46 39 39 44 45 42 38 36 36 36 41 40 39 32 30 30 29 30 31 25 29 32 25
70 69 68 66 66 66 66 66 66 64 65 66 64 63 61 60 57 54 51 50 45 41 41 43 45 43 40 38 35 38 40 41 37 38 36 26 30 28 31 31 29 28 31 32
69 68 67 67 67 67 68 67 67 67 67 65 62 62 60 58 55 55 52 49 47 47 47 47 45 41 39 42 40 43 39 38 38 43 35 26 30 38 39 34 32 30 34 37
67 66 65 64 64 65 65 65 64 61 61 61 60 54 52 52 54 54 49 46 53 49 45 48 43 38 40 46 45 41 38 36 36 42 38 40 39 39 39 36 39 35 31 36
55 55 59 59 62 63 65 61 57 54 53 49 49 46 44 41 39 40 45 43 41 51 52 44 39 44 46 46 42 39 36 35 35 36 38 43 41 40 39 33 34 34 28 30
48 49 50 51 52 53 52 52 48 47 46 37 38 30 31 32 35 42 44 42 44 36 35 40 44 46 44 42 38 36 35 35 34 34 35 38 45 40 36 32 36 34 32 31
44 43 42 42 44 45 44 40 35 36 37 37 27 32 36 36 38 32 39 49 53 48 37 41 41 39 38 38 36 34 32 32 34 36 38 41 43 35 32 34 34 32 32 36
40 39 40 41 42 42 42 41 47 43 40 35 33 25 33 31 36 44 38 36 42 46 41 43 38 35 36 31 30 28 29 31 32 32 33 37 36 28 25 30 31 32 33 31
37 39 40 40 40 40 40 40 45 45 38 43 40 29 21 31 29 36 36 28 28 30 30 34 35 34 29 29 27 25 26 27 27 29 32 31 26 27 29 28 25 28 28 29
33 34 34 35 38 37 36 46 37 35 42 40 37 24 17 19 27 28 33 31 31 37 26 28 29 32 31 29 27 26 25 26 24 24 25 23 22 25 23 21 19 24 26 25
28 29 28 31 32 36 49 36 36 34 33 28 33 30 25 18 22 28 33 29 32 27 28 28 26 29 29 29 27 27 25 24 21 24 22 22 19 20 19 20 20 20 22 20
27 30 32 29 37 40 36 33 32 31 28 29 32 29 25 20 24 29 32 24 27 23 27 28 26 23 25 22 23 24 23 22 24 24 17 17 15 18 19 17 14 13 13 12
34 40 42 39 36 36 31 30 28 29 30 24 12 19 18 22 24 27 28 25 27 26 26 26 23 20 19 19 19 19 20 20 19 18 17 16 17 14 13 12 11 11 9 9
46 50 41 37 36 26 25 29 30 34 31 22 17 15 14 22 26 24 27 26 27 27 28 28 24 22 24 19 17 19 20 20 16 17 18 17 16 13 12 11 11 10 7 6
48 40 35 32 28 24 27 30 34 26 28 24 22 21 21 20 22 21 21 21 20 20 19 22 23 21 21 24 19 16 16 17 18 17 18 16 14 12 12 10 13 9 8 6
39 37 37 30 30 33 25 25 28 30 27 21 19 21 24 25 18 18 16 17 17 18 20 22 23 20 20 20 17 16 16 17 17 16 16 16 15 13 11 11 12 11 11 10
32 29 29 30 32 25 25 24 28 28 26 22 19 19 22 28 25 22 21 17 18 16 15 19 16 14 12 14 16 16 15 15 15 14 14 16 15 14 12 10 11 11 10 9
27 25 27 32 27 28 25 25 29 30 26 21 19 17 20 23 21 20 20 19 17 16 17 15 14 13 12 12 15 16 15 16 16 16 16 16 16 17 13 10 11 12 9 14
24 28 32 26 27 27 24 25 22 20 18 14 11 15 16 18 20 19 16 17 15 15 13 14 15 13 13 15 16 17 18 19 19 19 19 19 17 18 19 13 14 14 12 17
26 32 28 27 28 27 23 21 19 15 10 10 14 18 19 19 18 16 17 17 15 15 16 14 12 13 16 19 20 21 22 23 24 25 25 24 23 20 21 21 17 17 17 19
32 31 28 29 30 25 21 18 16 12 12 13 20 24 21 19 17 15 14 14 14 13 12 14 14 16 19 21 24 27 29 31 32 33 32 31 29 26 23 25 22 20 20 20
33 34 31 28 28 22 17 16 12 13 14 18 23 21 18 16 15 13 12 12 12 11 12 13 15 19 21 24 26 27 29 32 35 37 39 38 34 30 26 25 26 24 22 24
34 35 30 28 26 23 17 12 11 14 17 20 19 17 15 14 14 12 12 11 10 11 12 14 14 12 12 14 16 17 21 26 30 33 32 31 32 32 30 28 26 24 24 26
31 30 28 25 23 18 11 11 14 19 21 18 18 17 15 13 11 11 10 10 10 10 10 10 6 7 10 12 12 13 16 14 13 21 25 27 30 30 30 28 26 23 25 26
26 25 24 23 18 14 14 17 18 19 17 16 15 14 14 12 11 10 9 9 10 9 10 4 5 8 8 10 10 8 9 6 5 12 18 23 24 26 27 27 25 24 23 26
23 22 20 18 16 15 19 18 15 16 15 13 14 14 12 11 10 8 9 10 8 9 7 2 5 6 4 5 8 6 6 3 5 9 14 10 18 24 26 24 23 25 26 26
23 20 18 18 16 18 17 17 15 15 13 14 13 12 10 9 8 9 9 9 11 9 7 1 5 3 3 4 4 4 3 1 10 15 11 12 16 21 21 19 19 22 22 22

GFSNW_500_spd_117.txt.gz
Wind_Speed
71 67 66 67 66 66 67 64 63 60 59 61 60 60 58 52 51 54 53 50 52 50 44 44 45 44 42 44 46 44 37 36 36 36 35 39 38 37 33 35 33 33 33 35
73 70 69 67 66 65 64 64 62 61 61 64 63 60 58 56 52 54 53 53 47 46 46 47 44 43 44 43 42 38 37 40 43 41 40 41 40 34 32 33 36 31 32 33
71 69 69 68 67 66 67 67 66 66 67 64 61 59 60 59 54 54 54 51 51 52 51 50 48 44 42 46 43 40 40 44 45 42 41 40 38 33 38 32 35 37 37 38
67 68 68 67 65 65 65 67 67 65 64 63 60 59 58 56 55 55 54 55 54 50 49 48 45 45 47 44 42 45 46 43 48 45 42 43 40 31 40 32 33 38 35 38
62 66 65 63 64 62 64 63 64 64 62 60 61 60 56 54 52 53 53 53 48 44 46 42 43 45 47 48 47 41 46 49 50 43 40 42 41 45 38 35 37 39 38 41
54 55 59 60 63 62 62 61 59 59 59 56 57 57 52 45 42 43 44 44 45 46 42 41 44 50 51 50 47 44 45 46 45 44 39 38 41 35 36 36 40 40 43 36
46 48 50 54 56 57 55 59 56 53 51 52 51 48 42 37 32 34 35 40 43 39 38 33 30 43 44 52 46 49 47 47 42 42 37 39 38 37 38 36 39 41 39 35
42 42 44 46 47 48 48 48 50 48 46 42 40 36 36 35 33 35 38 40 33 39 43 40 34 38 38 39 41 42 42 42 38 38 38 38 38 36 39 41 42 40 35 35
38 40 40 41 41 39 40 39 40 39 34 29 29 32 34 36 34 31 30 38 35 29 45 49 45 40 40 41 37 36 34 30 33 36 37 37 33 30 32 34 35 29 31 33
36 38 39 38 37 38 38 37 36 36 34 37 36 35 29 24 22 23 21 34 41 29 28 38 47 43 37 36 38 33 30 30 30 29 33 30 26 26 30 32 26 30 28 28
32 34 35 36 36 36 36 35 35 34 34 35 39 38 32 30 22 22 22 28 42 41 33 37 29 35 35 33 31 33 31 30 29 30 29 22 19 26 29 25 25 24 24 26
28 30 31 32 32 33 32 30 32 39 32 33 37 34 31 30 20 21 22 28 29 37 33 34 23 25 22 25 29 32 34 30 27 27 21 21 22 24 21 19 21 23 21 20
25 27 29 27 29 29 28 28 35 36 35 31 24 24 31 31 25 19 22 26 25 21 19 22 31 29 26 28 27 27 27 24 24 24 23 24 24 21 19 19 18 17 16 13
26 30 28 30 30 38 42 34 29 22 24 19 13 16 23 24 24 22 21 26 27 23 24 23 21 23 24 25 21 19 19 20 23 23 20 17 19 20 17 15 14 13 12 12
37 42 39 35 40 36 29 25 24 25 23 23 19 18 19 25 23 21 23 27 24 22 21 22 23 26 26 23 17 16 18 20 21 20 20 19 19 18 17 15 12 12 13 12
46 43 40 39 34 31 29 30 27 25 32 26 16 11 23 21 25 24 26 25 22 21 20 22 22 19 19 20 22 23 19 19 17 17 17 17 18 17 16 15 13 14 14 12
46 41 37 33 33 24 23 26 28 32 25 17 16 15 12 15 20 16 17 17 17 19 20 18 18 22 25 21 19 23 18 15 16 16 16 16 18 18 16 14 13 13 15 13
36 33 33 31 25 29 25 32 30 32 25 19 16 16 14 17 19 18 15 15 14 14 16 17 23 23 19 17 16 16 16 14 14 14 15 15 16 17 17 15 13 14 14 12
34 31 25 26 29 25 24 28 30 27 24 21 16 15 15 18 21 21 20 17 17 16 15 17 18 18 15 14 13 15 15 15 16 15 16 16 16 18 18 17 15 15 15 13
25 27 32 29 30 26 28 26 24 22 18 18 16 17 15 15 16 16 17 17 17 15 15 14 13 14 14 13 13 14 15 16 18 19 19 19 20 21 20 22 21 18 18 16
23 33 29 32 27 23 22 21 19 17 15 15 18 21 17 17 18 16 15 14 13 13 13 13 14 15 14 15 17 18 20 22 24 25 26 26 26 25 25 24 25 25 22 21
31 30 32 29 25 23 21 19 18 13 13 14 17 20 21 19 16 14 14 15 15 14 13 13 14 15 16 18 20 24 27 30 32 34 35 35 34 32 30 28 26 28 26 24
29 30 30 28 26 22 18 15 12 12 13 14 16 18 18 17 16 15 12 12 11 10 12 12 13 16 18 17 18 21 22 24 26 29 34 37 37 36 36 33 31 30 29 27
30 29 28 26 21 16 13 11 13 14 14 17 19 17 15 13 14 12 10 9 10 9 10 12 13 11 10 12 15 17 17 19 23 27 27 29 32 31 34 33 33 30 28 28
29 26 22 20 15 13 9 11 14 15 18 19 16 17 16 13 11 10 9 9 8 9 11 8 6 7 10 11 12 13 13 16 19 12 8 13 20 22 26 26 29 27 26 25
24 23 21 18 16 10 10 13 14 15 14 12 13 14 12 12 10 9 8 8 10 10 8 7 4 6 7 6 7 10 11 10 9 5 3 5 10 17 19 23 25 24 24 21
21 19 18 16 14 14 15 14 15 14 12 11 12 12 11 9 8 7 7 10 10 9 10 6 3 6 7 7 8 8 8 8 2 10 2 7 10 9 16 18 19 18 19 20

GFSNW_500_spd_120.txt.gz
Wind_Speed
70 62 68 68 68 66 65 65 67 65 67 66 70 71 60 60 60 60 57 57 58 55 54 54 51 49 45 43 43 44 42 45 46 43 40 34 33 30 36 38 39 39 41 38
64 62 68 68 69 71 66 65 62 63 69 69 68 66 61 58 58 57 57 57 52 48 47 47 46 45 44 43 42 42 34 33 31 33 37 35 36 35 39 42 41 41 38 36
61 63 62 68 66 65 69 70 68 68 69 67 65 61 60 58 55 53 52 53 50 50 47 46 47 45 44 42 42 39 34 44 47 45 44 44 43 42 41 40 40 37 46 32
48 63 58 66 65 63 62 65 66 67 65 60 58 54 54 56 56 54 51 52 48 47 48 48 48 47 46 44 44 43 43 45 47 46 47 47 44 44 42 46 37 40 42 43
55 57 54 57 63 63 63 64 65 62 60 58 56 56 54 52 49 52 51 52 50 51 52 50 49 49 49 50 48 47 45 47 50 51 48 49 48 45 47 43 39 38 30 38
54 50 54 51 60 61 61 61 59 58 60 59 59 57 51 49 49 49 50 50 50 51 49 49 50 50 49 46 45 45 42 46 49 48 47 48 51 45 48 44 41 42 46 35
52 49 52 49 48 53 53 55 55 55 57 57 52 49 47 44 45 45 42 45 47 45 48 51 51 51 48 46 44 45 48 45 47 49 47 50 49 42 41 42 41 41 40 33
43 47 48 47 44 43 48 50 50 51 52 51 50 47 46 45 44 43 41 37 38 38 42 46 50 49 48 40 34 42 45 47 52 49 50 51 45 44 40 39 39 39 39 42
37 42 45 39 38 35 44 46 48 48 46 46 44 45 43 40 36 33 30 32 37 38 39 43 42 44 41 42 33 38 45 43 42 44 44 46 43 38 36 36 37 35 34 32
40 46 41 34 34 32 40 42 45 47 44 41 41 40 37 33 34 32 34 38 40 40 43 39 33 41 43 41 27 29 31 35 33 33 36 40 34 32 32 33 26 28 27 26
42 40 39 38 36 35 34 36 39 38 36 35 36 34 32 30 26 31 31 28 33 34 36 39 34 34 40 50 42 35 32 32 34 33 35 36 29 28 28 25 25 25 24 24
48 43 37 36 33 35 36 35 35 33 32 30 35 35 31 32 31 29 25 24 22 22 33 33 32 22 36 29 36 33 33 31 30 33 34 30 28 26 22 21 22 21 21 22
33 36 36 34 35 36 34 32 31 30 30 32 34 33 34 29 28 23 21 20 21 24 26 32 32 30 26 29 24 24 23 27 31 34 30 27 27 26 22 20 21 21 19 18
23 27 29 30 31 30 29 29 27 30 32 29 23 23 26 29 28 27 17 20 21 21 19 17 34 19 31 33 20 22 24 27 27 27 25 25 26 26 25 23 18 18 15 15
21 25 28 30 31 31 31 27 25 28 30 22 19 21 20 23 27 25 22 19 18 25 20 19 21 17 18 21 23 23 21 21 21 21 24 24 24 24 22 19 18 15 15 14
21 29 27 35 37 37 33 30 31 24 15 17 19 4 14 22 26 27 28 19 19 22 17 15 16 19 21 24 25 21 21 20 18 19 21 20 18 17 17 18 17 16 14 14
32 35 33 36 38 36 33 29 24 21 15 13 11 9 17 23 24 22 21 17 20 20 18 18 17 19 22 19 17 20 21 21 20 17 17 16 18 18 19 18 17 16 14 14
42 42 38 34 28 25 26 24 25 21 18 14 15 17 15 25 21 18 21 22 19 17 17 21 23 21 20 23 21 19 18 17 17 14 15 17 17 18 19 19 18 17 15 14
43 34 31 31 26 19 27 26 27 23 20 16 14 12 10 14 16 17 18 16 16 16 17 18 18 20 22 22 20 18 16 16 15 14 16 15 16 17 19 20 19 18 16 15
35 32 29 29 25 24 27 27 23 24 19 14 13 9 9 11 14 17 18 16 15 14 15 17 18 21 21 17 13 13 13 14 15 14 15 16 17 18 19 21 21 19 17 16
26 23 28 28 25 28 28 27 25 20 18 17 17 16 16 17 15 16 15 15 14 14 12 13 12 13 12 11 11 12 13 14 16 17 18 19 20 20 20 21 22 23 23 20
28 28 31 32 25 24 24 22 20 18 16 17 17 16 18 18 16 15 15 15 14 11 11 12 12 11 11 12 14 16 18 20 22 23 25 26 27 27 27 27 26 25 27 27
30 31 30 26 25 25 23 20 18 15 14 15 16 18 18 17 15 13 12 12 11 11 10 9 9 10 12 14 16 18 19 21 23 24 24 26 28 29 31 33 33 31 30 30
29 27 25 23 21 18 16 16 16 15 16 17 18 18 17 14 14 12 10 9 8 9 8 8 9 11 11 9 10 13 17 20 20 21 24 28 32 34 35 34 36 35 34 32
28 26 23 21 16 13 11 11 13 16 18 18 17 16 15 13 11 10 9 8 6 6 7 9 7 5 5 8 10 12 16 16 16 20 25 26 22 22 26 29 31 32 30 30
27 24 21 17 12 8 10 13 15 15 15 15 15 14 12 11 10 8 7 6 6 7 8 6 4 4 7 7 7 11 13 13 11 11 10 10 4 6 12 16 20 24 24 25
23 20 17 14 13 10 13 16 16 15 14 13 13 12 11 9 8 8 6 6 8 8 5 7 7 6 7 8 9 12 13 12 6 2 8 4 0 2 10 13 14 17 20 22

GFSNW_500_spd_123.txt.gz
Wind_Speed
76 49 54 49 48 50 56 59 59 57 58 62 65 64 52 56 56 55 54 55 54 52 53 53 53 52 50 49 48 48 43 43 43 42 42 41 41 41 38 36 34 34 39 40
67 69 57 45 53 54 54 59 57 58 63 67 64 57 54 56 55 58 56 54 54 54 51 51 52 52 50 47 43 41 38 36 38 42 40 36 32 29 32 33 39 42 40 44
62 70 61 59 56 49 45 46 59 61 65 61 61 60 59 58 57 58 56 56 56 54 53 51 50 49 46 41 40 40 38 39 33 35 33 31 34 37 38 40 44 42 45 41
46 62 67 61 56 64 51 46 52 61 59 61 58 57 54 55 55 55 55 56 54 51 51 50 48 45 44 42 41 42 43 43 42 38 42 45 47 47 46 45 45 46 41 42
54 51 54 65 71 65 68 58 58 58 61 55 55 52 57 54 52 55 55 52 50 49 49 47 46 45 46 45 46 46 44 44 44 44 45 50 52 47 45 50 47 45 41 44
56 49 53 52 64 69 68 61 56 52 58 58 56 57 48 47 50 52 51 49 50 51 47 45 46 47 48 48 48 49 48 48 46 46 47 51 54 48 49 51 46 44 47 40
44 47 40 48 54 57 56 45 48 45 47 54 54 49 46 44 44 42 42 41 42 42 43 45 45 46 47 47 46 47 47 48 43 48 46 52 47 45 48 44 45 43 42 40
40 47 45 45 46 39 43 56 45 41 38 39 46 46 44 43 43 41 40 39 39 39 40 43 44 45 47 42 44 46 46 47 47 46 49 48 48 44 43 47 45 41 43 42
41 44 47 50 46 43 42 46 45 46 50 47 44 45 44 43 43 41 39 38 38 38 40 42 43 44 41 42 40 39 43 44 44 46 55 52 45 47 47 49 41 37 37 35
33 33 38 40 39 39 41 47 45 47 43 43 44 44 41 41 40 38 37 37 38 39 39 40 39 37 36 36 34 35 41 42 34 44 51 42 34 35 34 36 31 33 32 30
38 32 32 32 34 42 47 46 46 51 50 45 40 38 38 39 36 34 35 37 37 38 41 41 40 40 40 39 36 33 27 25 47 42 29 31 27 32 33 32 31 29 29 27
27 32 35 36 43 40 35 38 42 45 55 49 45 39 36 34 32 32 33 30 30 32 33 39 37 36 34 34 32 27 41 40 38 33 30 29 29 31 31 29 29 27 22 22
31 30 34 37 38 33 33 37 36 40 43 46 42 35 36 38 37 30 21 22 28 26 23 23 26 29 27 36 23 26 27 35 32 30 29 29 31 33 32 30 28 22 19 21
45 43 40 41 34 41 34 34 35 35 35 35 34 35 34 30 34 31 27 25 25 26 25 25 23 27 24 24 25 19 16 19 21 24 28 31 32 31 30 29 25 22 20 20
22 29 34 40 39 35 33 32 29 28 26 25 27 26 23 26 28 26 25 22 22 18 17 18 13 18 20 22 22 20 23 21 23 23 25 25 25 25 24 25 23 24 20 17
15 21 26 31 35 33 30 29 29 28 26 26 20 18 22 24 28 27 25 24 16 19 13 23 13 19 17 19 14 15 19 22 23 21 19 21 24 21 22 22 20 19 19 16
20 25 31 33 33 30 28 27 29 33 26 15 6 14 11 22 26 27 30 18 16 18 15 25 24 20 18 18 18 21 23 24 21 19 19 18 19 19 19 15 17 19 19 16
24 26 31 36 39 39 37 36 28 21 19 11 7 4 12 20 19 19 18 17 19 23 19 17 17 17 17 18 20 21 20 18 19 20 19 16 15 16 17 18 19 19 18 17
40 43 41 37 39 35 29 28 23 15 16 8 8 17 24 20 20 20 20 23 17 17 17 17 17 19 20 19 20 19 16 16 15 16 14 13 14 17 18 19 19 19 18 18
39 37 33 29 28 28 26 20 21 18 13 12 18 17 19 18 22 16 18 19 20 19 15 16 15 17 17 18 18 17 17 16 14 13 15 15 14 15 17 18 20 20 20 19
33 32 30 27 28 26 21 18 23 22 19 18 15 12 12 16 17 16 15 15 14 14 13 12 13 14 14 15 16 14 13 12 12 12 14 15 15 17 17 19 20 21 22 21
27 26 25 26 24 29 27 25 21 19 16 13 10 9 10 12 14 14 17 17 15 15 12 11 11 9 11 11 12 12 12 13 15 16 17 18 19 20 21 22 22 23 24 25
24 26 24 26 23 19 19 18 16 14 12 10 9 10 12 14 14 14 16 15 13 12 11 10 12 11 11 12 12 14 15 17 19 21 23 24 24 25 26 27 29 29 29 28
28 27 31 28 22 15 13 14 14 13 11 12 13 13 14 15 15 14 12 11 11 10 10 8 8 9 10 11 10 9 10 12 16 18 18 19 20 22 25 27 29 31 34 33
27 24 24 19 16 16 14 13 14 13 12 13 15 15 17 15 14 12 11 9 8 7 7 7 7 8 7 6 6 6 7 11 15 14 14 17 22 26 30 31 32 33 34 34
23 19 16 16 12 12 13 13 13 14 16 16 16 15 13 11 10 10 8 7 6 6 5 6 6 6 4 4 5 5 9 13 15 15 10 12 16 14 7 8 18 21 24 24
20 18 15 12 10 8 11 13 15 17 18 17 15 14 13 11 11 9 8 7 5 6 6 6 8 6 3 5 6 8 11 13 12 8 6 9 11 9 5 3 5 12 19 22